<?xml version="1.0" encoding="UTF-8" standalone="no" ?>
<gpx xmlns="http://www.topografix.com/GPX/1/1" xmlns:xsi="http://www.w3.org/2001/XMLSchema-instance" xsi:schemaLocation="http://www.topografix.com/GPX/1/1 http://www.topografix.com/GPX/1/1/gpx.xsd" version="1.1" creator="VisuGPX - https://www.visugpx.com">
  <metadata>
    <name>rand\'O givrée au Parc de Miribel</name>
    <desc><![CDATA[Rand\'O givrée du 5 février 2012. Parcours T]]></desc>
  </metadata>
  <trk>
    <name><![CDATA[2012-02-05T08:59:56Z]]></name>
    <trkseg>
      <trkpt lat="45.79883" lon="4.94092">
        <ele>177</ele>
        <time>2012-02-05T08:59:56Z</time>
      </trkpt>
      <trkpt lat="45.79883" lon="4.9409">
        <ele>177</ele>
        <time>2012-02-05T09:00:00Z</time>
      </trkpt>
      <trkpt lat="45.79873" lon="4.94094">
        <ele>177</ele>
        <time>2012-02-05T09:00:04Z</time>
      </trkpt>
      <trkpt lat="45.79867" lon="4.94098">
        <ele>177</ele>
        <time>2012-02-05T09:00:06Z</time>
      </trkpt>
      <trkpt lat="45.79862" lon="4.94105">
        <ele>177</ele>
        <time>2012-02-05T09:00:09Z</time>
      </trkpt>
      <trkpt lat="45.79857" lon="4.94121">
        <ele>177</ele>
        <time>2012-02-05T09:00:14Z</time>
      </trkpt>
      <trkpt lat="45.79852" lon="4.94145">
        <ele>176</ele>
        <time>2012-02-05T09:00:20Z</time>
      </trkpt>
      <trkpt lat="45.79851" lon="4.94149">
        <ele>176</ele>
        <time>2012-02-05T09:00:21Z</time>
      </trkpt>
      <trkpt lat="45.7985" lon="4.94157">
        <ele>176</ele>
        <time>2012-02-05T09:00:23Z</time>
      </trkpt>
      <trkpt lat="45.79851" lon="4.94165">
        <ele>176</ele>
        <time>2012-02-05T09:00:25Z</time>
      </trkpt>
      <trkpt lat="45.79849" lon="4.94178">
        <ele>176</ele>
        <time>2012-02-05T09:00:28Z</time>
      </trkpt>
      <trkpt lat="45.79848" lon="4.94182">
        <ele>176</ele>
        <time>2012-02-05T09:00:29Z</time>
      </trkpt>
      <trkpt lat="45.79838" lon="4.94195">
        <ele>176</ele>
        <time>2012-02-05T09:00:34Z</time>
      </trkpt>
      <trkpt lat="45.79835" lon="4.94197">
        <ele>176</ele>
        <time>2012-02-05T09:00:35Z</time>
      </trkpt>
      <trkpt lat="45.79818" lon="4.94207">
        <ele>176</ele>
        <time>2012-02-05T09:00:41Z</time>
      </trkpt>
      <trkpt lat="45.79816" lon="4.94209">
        <ele>176</ele>
        <time>2012-02-05T09:00:42Z</time>
      </trkpt>
      <trkpt lat="45.79812" lon="4.94213">
        <ele>176</ele>
        <time>2012-02-05T09:00:44Z</time>
      </trkpt>
      <trkpt lat="45.7981" lon="4.94212">
        <ele>176</ele>
        <time>2012-02-05T09:00:45Z</time>
      </trkpt>
      <trkpt lat="45.79804" lon="4.94213">
        <ele>175</ele>
        <time>2012-02-05T09:00:48Z</time>
      </trkpt>
      <trkpt lat="45.79801" lon="4.94218">
        <ele>175</ele>
        <time>2012-02-05T09:00:50Z</time>
      </trkpt>
      <trkpt lat="45.79802" lon="4.94234">
        <ele>176</ele>
        <time>2012-02-05T09:00:54Z</time>
      </trkpt>
      <trkpt lat="45.79802" lon="4.94238">
        <ele>176</ele>
        <time>2012-02-05T09:00:55Z</time>
      </trkpt>
      <trkpt lat="45.79803" lon="4.94247">
        <ele>176</ele>
        <time>2012-02-05T09:00:57Z</time>
      </trkpt>
      <trkpt lat="45.79804" lon="4.94264">
        <ele>176</ele>
        <time>2012-02-05T09:01:01Z</time>
      </trkpt>
      <trkpt lat="45.79804" lon="4.94277">
        <ele>176</ele>
        <time>2012-02-05T09:01:04Z</time>
      </trkpt>
      <trkpt lat="45.79802" lon="4.94289">
        <ele>176</ele>
        <time>2012-02-05T09:01:07Z</time>
      </trkpt>
      <trkpt lat="45.79801" lon="4.94305">
        <ele>176</ele>
        <time>2012-02-05T09:01:11Z</time>
      </trkpt>
      <trkpt lat="45.79802" lon="4.94313">
        <ele>176</ele>
        <time>2012-02-05T09:01:13Z</time>
      </trkpt>
      <trkpt lat="45.79804" lon="4.94333">
        <ele>176</ele>
        <time>2012-02-05T09:01:18Z</time>
      </trkpt>
      <trkpt lat="45.79804" lon="4.94354">
        <ele>176</ele>
        <time>2012-02-05T09:01:23Z</time>
      </trkpt>
      <trkpt lat="45.79804" lon="4.94358">
        <ele>176</ele>
        <time>2012-02-05T09:01:24Z</time>
      </trkpt>
      <trkpt lat="45.79802" lon="4.94384">
        <ele>176</ele>
        <time>2012-02-05T09:01:30Z</time>
      </trkpt>
      <trkpt lat="45.79802" lon="4.94403">
        <ele>176</ele>
        <time>2012-02-05T09:01:35Z</time>
      </trkpt>
      <trkpt lat="45.79803" lon="4.94413">
        <ele>176</ele>
        <time>2012-02-05T09:01:38Z</time>
      </trkpt>
      <trkpt lat="45.79804" lon="4.94421">
        <ele>175</ele>
        <time>2012-02-05T09:01:40Z</time>
      </trkpt>
      <trkpt lat="45.79806" lon="4.94441">
        <ele>175</ele>
        <time>2012-02-05T09:01:45Z</time>
      </trkpt>
      <trkpt lat="45.79806" lon="4.94445">
        <ele>175</ele>
        <time>2012-02-05T09:01:46Z</time>
      </trkpt>
      <trkpt lat="45.79806" lon="4.94469">
        <ele>175</ele>
        <time>2012-02-05T09:01:52Z</time>
      </trkpt>
      <trkpt lat="45.79807" lon="4.94478">
        <ele>175</ele>
        <time>2012-02-05T09:01:54Z</time>
      </trkpt>
      <trkpt lat="45.79808" lon="4.94499">
        <ele>174</ele>
        <time>2012-02-05T09:01:59Z</time>
      </trkpt>
      <trkpt lat="45.79808" lon="4.94507">
        <ele>174</ele>
        <time>2012-02-05T09:02:01Z</time>
      </trkpt>
      <trkpt lat="45.79809" lon="4.94528">
        <ele>174</ele>
        <time>2012-02-05T09:02:06Z</time>
      </trkpt>
      <trkpt lat="45.79809" lon="4.94532">
        <ele>174</ele>
        <time>2012-02-05T09:02:07Z</time>
      </trkpt>
      <trkpt lat="45.79809" lon="4.94552">
        <ele>174</ele>
        <time>2012-02-05T09:02:12Z</time>
      </trkpt>
      <trkpt lat="45.79809" lon="4.94555">
        <ele>174</ele>
        <time>2012-02-05T09:02:13Z</time>
      </trkpt>
      <trkpt lat="45.79803" lon="4.94564">
        <ele>174</ele>
        <time>2012-02-05T09:02:16Z</time>
      </trkpt>
      <trkpt lat="45.79798" lon="4.94578">
        <ele>174</ele>
        <time>2012-02-05T09:02:20Z</time>
      </trkpt>
      <trkpt lat="45.79794" lon="4.94593">
        <ele>175</ele>
        <time>2012-02-05T09:02:24Z</time>
      </trkpt>
      <trkpt lat="45.7979" lon="4.94605">
        <ele>175</ele>
        <time>2012-02-05T09:02:27Z</time>
      </trkpt>
      <trkpt lat="45.79789" lon="4.94612">
        <ele>175</ele>
        <time>2012-02-05T09:02:29Z</time>
      </trkpt>
      <trkpt lat="45.79786" lon="4.94622">
        <ele>175</ele>
        <time>2012-02-05T09:02:34Z</time>
      </trkpt>
      <trkpt lat="45.79785" lon="4.94623">
        <ele>175</ele>
        <time>2012-02-05T09:02:40Z</time>
      </trkpt>
      <trkpt lat="45.79785" lon="4.94625">
        <ele>175</ele>
        <time>2012-02-05T09:02:46Z</time>
      </trkpt>
      <trkpt lat="45.79784" lon="4.94629">
        <ele>175</ele>
        <time>2012-02-05T09:02:55Z</time>
      </trkpt>
      <trkpt lat="45.79783" lon="4.9463">
        <ele>175</ele>
        <time>2012-02-05T09:02:56Z</time>
      </trkpt>
      <trkpt lat="45.79775" lon="4.9464">
        <ele>175</ele>
        <time>2012-02-05T09:03:05Z</time>
      </trkpt>
      <trkpt lat="45.79771" lon="4.94648">
        <ele>175</ele>
        <time>2012-02-05T09:03:10Z</time>
      </trkpt>
      <trkpt lat="45.79765" lon="4.94655">
        <ele>174</ele>
        <time>2012-02-05T09:03:13Z</time>
      </trkpt>
      <trkpt lat="45.79756" lon="4.94666">
        <ele>174</ele>
        <time>2012-02-05T09:03:16Z</time>
      </trkpt>
      <trkpt lat="45.79751" lon="4.94674">
        <ele>174</ele>
        <time>2012-02-05T09:03:18Z</time>
      </trkpt>
      <trkpt lat="45.79742" lon="4.94685">
        <ele>174</ele>
        <time>2012-02-05T09:03:21Z</time>
      </trkpt>
      <trkpt lat="45.7974" lon="4.94689">
        <ele>174</ele>
        <time>2012-02-05T09:03:22Z</time>
      </trkpt>
      <trkpt lat="45.79729" lon="4.94708">
        <ele>174</ele>
        <time>2012-02-05T09:03:27Z</time>
      </trkpt>
      <trkpt lat="45.79726" lon="4.94712">
        <ele>173</ele>
        <time>2012-02-05T09:03:28Z</time>
      </trkpt>
      <trkpt lat="45.79715" lon="4.94731">
        <ele>173</ele>
        <time>2012-02-05T09:03:33Z</time>
      </trkpt>
      <trkpt lat="45.79705" lon="4.94744">
        <ele>174</ele>
        <time>2012-02-05T09:03:38Z</time>
      </trkpt>
      <trkpt lat="45.79701" lon="4.9475">
        <ele>174</ele>
        <time>2012-02-05T09:03:40Z</time>
      </trkpt>
      <trkpt lat="45.79693" lon="4.94761">
        <ele>173</ele>
        <time>2012-02-05T09:03:44Z</time>
      </trkpt>
      <trkpt lat="45.79687" lon="4.94768">
        <ele>173</ele>
        <time>2012-02-05T09:03:47Z</time>
      </trkpt>
      <trkpt lat="45.79681" lon="4.94771">
        <ele>173</ele>
        <time>2012-02-05T09:03:49Z</time>
      </trkpt>
      <trkpt lat="45.79668" lon="4.94777">
        <ele>173</ele>
        <time>2012-02-05T09:03:54Z</time>
      </trkpt>
      <trkpt lat="45.79653" lon="4.94791">
        <ele>173</ele>
        <time>2012-02-05T09:04:00Z</time>
      </trkpt>
      <trkpt lat="45.79641" lon="4.94806">
        <ele>173</ele>
        <time>2012-02-05T09:04:06Z</time>
      </trkpt>
      <trkpt lat="45.79637" lon="4.94811">
        <ele>173</ele>
        <time>2012-02-05T09:04:08Z</time>
      </trkpt>
      <trkpt lat="45.79631" lon="4.94818">
        <ele>173</ele>
        <time>2012-02-05T09:04:11Z</time>
      </trkpt>
      <trkpt lat="45.79623" lon="4.94829">
        <ele>173</ele>
        <time>2012-02-05T09:04:15Z</time>
      </trkpt>
      <trkpt lat="45.79621" lon="4.94832">
        <ele>173</ele>
        <time>2012-02-05T09:04:16Z</time>
      </trkpt>
      <trkpt lat="45.7961" lon="4.94849">
        <ele>173</ele>
        <time>2012-02-05T09:04:21Z</time>
      </trkpt>
      <trkpt lat="45.7961" lon="4.94849">
        <ele>173</ele>
        <time>2012-02-05T09:04:22Z</time>
      </trkpt>
      <trkpt lat="45.796" lon="4.94861">
        <ele>173</ele>
        <time>2012-02-05T09:04:27Z</time>
      </trkpt>
      <trkpt lat="45.79596" lon="4.94867">
        <ele>173</ele>
        <time>2012-02-05T09:04:29Z</time>
      </trkpt>
      <trkpt lat="45.79586" lon="4.94877">
        <ele>173</ele>
        <time>2012-02-05T09:04:33Z</time>
      </trkpt>
      <trkpt lat="45.7958" lon="4.94884">
        <ele>174</ele>
        <time>2012-02-05T09:04:36Z</time>
      </trkpt>
      <trkpt lat="45.79568" lon="4.94896">
        <ele>174</ele>
        <time>2012-02-05T09:04:41Z</time>
      </trkpt>
      <trkpt lat="45.79563" lon="4.94901">
        <ele>174</ele>
        <time>2012-02-05T09:04:44Z</time>
      </trkpt>
      <trkpt lat="45.79552" lon="4.94915">
        <ele>174</ele>
        <time>2012-02-05T09:04:50Z</time>
      </trkpt>
      <trkpt lat="45.79549" lon="4.9492">
        <ele>174</ele>
        <time>2012-02-05T09:04:52Z</time>
      </trkpt>
      <trkpt lat="45.79544" lon="4.94929">
        <ele>175</ele>
        <time>2012-02-05T09:04:56Z</time>
      </trkpt>
      <trkpt lat="45.79536" lon="4.94938">
        <ele>175</ele>
        <time>2012-02-05T09:05:00Z</time>
      </trkpt>
      <trkpt lat="45.79528" lon="4.94947">
        <ele>175</ele>
        <time>2012-02-05T09:05:04Z</time>
      </trkpt>
      <trkpt lat="45.79524" lon="4.94958">
        <ele>175</ele>
        <time>2012-02-05T09:05:07Z</time>
      </trkpt>
      <trkpt lat="45.79522" lon="4.9497">
        <ele>175</ele>
        <time>2012-02-05T09:05:10Z</time>
      </trkpt>
      <trkpt lat="45.7952" lon="4.94978">
        <ele>175</ele>
        <time>2012-02-05T09:05:15Z</time>
      </trkpt>
      <trkpt lat="45.79521" lon="4.94976">
        <ele>175</ele>
        <time>2012-02-05T09:05:21Z</time>
      </trkpt>
      <trkpt lat="45.79518" lon="4.94972">
        <ele>175</ele>
        <time>2012-02-05T09:05:33Z</time>
      </trkpt>
      <trkpt lat="45.79517" lon="4.94971">
        <ele>175</ele>
        <time>2012-02-05T09:05:34Z</time>
      </trkpt>
      <trkpt lat="45.79516" lon="4.9497">
        <ele>175</ele>
        <time>2012-02-05T09:05:35Z</time>
      </trkpt>
      <trkpt lat="45.79512" lon="4.94974">
        <ele>175</ele>
        <time>2012-02-05T09:05:38Z</time>
      </trkpt>
      <trkpt lat="45.79511" lon="4.94975">
        <ele>175</ele>
        <time>2012-02-05T09:05:39Z</time>
      </trkpt>
      <trkpt lat="45.79506" lon="4.94987">
        <ele>175</ele>
        <time>2012-02-05T09:05:47Z</time>
      </trkpt>
      <trkpt lat="45.79502" lon="4.94998">
        <ele>176</ele>
        <time>2012-02-05T09:05:55Z</time>
      </trkpt>
      <trkpt lat="45.79502" lon="4.95">
        <ele>176</ele>
        <time>2012-02-05T09:05:56Z</time>
      </trkpt>
      <trkpt lat="45.79502" lon="4.95013">
        <ele>176</ele>
        <time>2012-02-05T09:06:03Z</time>
      </trkpt>
      <trkpt lat="45.79501" lon="4.95032">
        <ele>175</ele>
        <time>2012-02-05T09:06:07Z</time>
      </trkpt>
      <trkpt lat="45.795" lon="4.95038">
        <ele>176</ele>
        <time>2012-02-05T09:06:08Z</time>
      </trkpt>
      <trkpt lat="45.79497" lon="4.95054">
        <ele>175</ele>
        <time>2012-02-05T09:06:11Z</time>
      </trkpt>
      <trkpt lat="45.79495" lon="4.95067">
        <ele>175</ele>
        <time>2012-02-05T09:06:14Z</time>
      </trkpt>
      <trkpt lat="45.79495" lon="4.95071">
        <ele>175</ele>
        <time>2012-02-05T09:06:15Z</time>
      </trkpt>
      <trkpt lat="45.79495" lon="4.95092">
        <ele>175</ele>
        <time>2012-02-05T09:06:20Z</time>
      </trkpt>
      <trkpt lat="45.79495" lon="4.951">
        <ele>175</ele>
        <time>2012-02-05T09:06:21Z</time>
      </trkpt>
      <trkpt lat="45.79495" lon="4.95118">
        <ele>175</ele>
        <time>2012-02-05T09:06:26Z</time>
      </trkpt>
      <trkpt lat="45.79495" lon="4.95123">
        <ele>175</ele>
        <time>2012-02-05T09:06:27Z</time>
      </trkpt>
      <trkpt lat="45.79494" lon="4.95141">
        <ele>175</ele>
        <time>2012-02-05T09:06:31Z</time>
      </trkpt>
      <trkpt lat="45.79494" lon="4.9515">
        <ele>175</ele>
        <time>2012-02-05T09:06:33Z</time>
      </trkpt>
      <trkpt lat="45.79492" lon="4.95172">
        <ele>175</ele>
        <time>2012-02-05T09:06:38Z</time>
      </trkpt>
      <trkpt lat="45.79492" lon="4.95177">
        <ele>175</ele>
        <time>2012-02-05T09:06:39Z</time>
      </trkpt>
      <trkpt lat="45.7949" lon="4.95194">
        <ele>175</ele>
        <time>2012-02-05T09:06:43Z</time>
      </trkpt>
      <trkpt lat="45.79489" lon="4.95203">
        <ele>175</ele>
        <time>2012-02-05T09:06:45Z</time>
      </trkpt>
      <trkpt lat="45.79484" lon="4.95225">
        <ele>175</ele>
        <time>2012-02-05T09:06:50Z</time>
      </trkpt>
      <trkpt lat="45.79483" lon="4.95229">
        <ele>175</ele>
        <time>2012-02-05T09:06:51Z</time>
      </trkpt>
      <trkpt lat="45.79478" lon="4.95257">
        <ele>177</ele>
        <time>2012-02-05T09:06:58Z</time>
      </trkpt>
      <trkpt lat="45.79478" lon="4.95261">
        <ele>177</ele>
        <time>2012-02-05T09:06:59Z</time>
      </trkpt>
      <trkpt lat="45.79476" lon="4.95284">
        <ele>177</ele>
        <time>2012-02-05T09:07:05Z</time>
      </trkpt>
      <trkpt lat="45.79476" lon="4.95288">
        <ele>177</ele>
        <time>2012-02-05T09:07:06Z</time>
      </trkpt>
      <trkpt lat="45.79476" lon="4.95314">
        <ele>178</ele>
        <time>2012-02-05T09:07:12Z</time>
      </trkpt>
      <trkpt lat="45.79479" lon="4.9533">
        <ele>179</ele>
        <time>2012-02-05T09:07:18Z</time>
      </trkpt>
      <trkpt lat="45.79479" lon="4.95331">
        <ele>179</ele>
        <time>2012-02-05T09:07:21Z</time>
      </trkpt>
      <trkpt lat="45.79478" lon="4.95329">
        <ele>179</ele>
        <time>2012-02-05T09:07:22Z</time>
      </trkpt>
      <trkpt lat="45.79477" lon="4.95327">
        <ele>179</ele>
        <time>2012-02-05T09:07:23Z</time>
      </trkpt>
      <trkpt lat="45.7947" lon="4.95323">
        <ele>178</ele>
        <time>2012-02-05T09:07:26Z</time>
      </trkpt>
      <trkpt lat="45.7947" lon="4.95323">
        <ele>178</ele>
        <time>2012-02-05T09:07:27Z</time>
      </trkpt>
      <trkpt lat="45.79464" lon="4.95324">
        <ele>178</ele>
        <time>2012-02-05T09:07:28Z</time>
      </trkpt>
      <trkpt lat="45.79459" lon="4.95328">
        <ele>177</ele>
        <time>2012-02-05T09:07:30Z</time>
      </trkpt>
      <trkpt lat="45.79457" lon="4.9533">
        <ele>177</ele>
        <time>2012-02-05T09:07:31Z</time>
      </trkpt>
      <trkpt lat="45.7945" lon="4.95338">
        <ele>178</ele>
        <time>2012-02-05T09:07:36Z</time>
      </trkpt>
      <trkpt lat="45.79453" lon="4.95334">
        <ele>179</ele>
        <time>2012-02-05T09:07:39Z</time>
      </trkpt>
      <trkpt lat="45.79474" lon="4.95323">
        <ele>179</ele>
        <time>2012-02-05T09:07:44Z</time>
      </trkpt>
      <trkpt lat="45.79483" lon="4.95331">
        <ele>180</ele>
        <time>2012-02-05T09:07:47Z</time>
      </trkpt>
      <trkpt lat="45.79484" lon="4.95336">
        <ele>181</ele>
        <time>2012-02-05T09:07:48Z</time>
      </trkpt>
      <trkpt lat="45.79488" lon="4.95342">
        <ele>181</ele>
        <time>2012-02-05T09:07:50Z</time>
      </trkpt>
      <trkpt lat="45.79488" lon="4.95342">
        <ele>181</ele>
        <time>2012-02-05T09:07:51Z</time>
      </trkpt>
      <trkpt lat="45.79495" lon="4.9535">
        <ele>181</ele>
        <time>2012-02-05T09:07:53Z</time>
      </trkpt>
      <trkpt lat="45.79504" lon="4.95356">
        <ele>182</ele>
        <time>2012-02-05T09:07:56Z</time>
      </trkpt>
      <trkpt lat="45.79508" lon="4.95361">
        <ele>182</ele>
        <time>2012-02-05T09:07:58Z</time>
      </trkpt>
      <trkpt lat="45.7951" lon="4.95365">
        <ele>182</ele>
        <time>2012-02-05T09:07:59Z</time>
      </trkpt>
      <trkpt lat="45.7951" lon="4.95378">
        <ele>183</ele>
        <time>2012-02-05T09:08:02Z</time>
      </trkpt>
      <trkpt lat="45.79511" lon="4.954">
        <ele>184</ele>
        <time>2012-02-05T09:08:07Z</time>
      </trkpt>
      <trkpt lat="45.79511" lon="4.95403">
        <ele>184</ele>
        <time>2012-02-05T09:08:09Z</time>
      </trkpt>
      <trkpt lat="45.79513" lon="4.95437">
        <ele>184</ele>
        <time>2012-02-05T09:08:16Z</time>
      </trkpt>
      <trkpt lat="45.79515" lon="4.95461">
        <ele>183</ele>
        <time>2012-02-05T09:08:22Z</time>
      </trkpt>
      <trkpt lat="45.79516" lon="4.95465">
        <ele>183</ele>
        <time>2012-02-05T09:08:23Z</time>
      </trkpt>
      <trkpt lat="45.79516" lon="4.95476">
        <ele>182</ele>
        <time>2012-02-05T09:08:27Z</time>
      </trkpt>
      <trkpt lat="45.79517" lon="4.95492">
        <ele>182</ele>
        <time>2012-02-05T09:08:30Z</time>
      </trkpt>
      <trkpt lat="45.79518" lon="4.955">
        <ele>181</ele>
        <time>2012-02-05T09:08:33Z</time>
      </trkpt>
      <trkpt lat="45.7952" lon="4.95521">
        <ele>181</ele>
        <time>2012-02-05T09:08:37Z</time>
      </trkpt>
      <trkpt lat="45.7952" lon="4.95526">
        <ele>181</ele>
        <time>2012-02-05T09:08:38Z</time>
      </trkpt>
      <trkpt lat="45.79523" lon="4.95545">
        <ele>180</ele>
        <time>2012-02-05T09:08:43Z</time>
      </trkpt>
      <trkpt lat="45.79524" lon="4.95548">
        <ele>180</ele>
        <time>2012-02-05T09:08:44Z</time>
      </trkpt>
      <trkpt lat="45.79525" lon="4.95562">
        <ele>180</ele>
        <time>2012-02-05T09:08:48Z</time>
      </trkpt>
      <trkpt lat="45.79521" lon="4.95575">
        <ele>180</ele>
        <time>2012-02-05T09:08:52Z</time>
      </trkpt>
      <trkpt lat="45.7952" lon="4.95578">
        <ele>180</ele>
        <time>2012-02-05T09:08:53Z</time>
      </trkpt>
      <trkpt lat="45.79512" lon="4.95594">
        <ele>178</ele>
        <time>2012-02-05T09:09:00Z</time>
      </trkpt>
      <trkpt lat="45.79511" lon="4.95597">
        <ele>178</ele>
        <time>2012-02-05T09:09:02Z</time>
      </trkpt>
      <trkpt lat="45.79514" lon="4.95605">
        <ele>178</ele>
        <time>2012-02-05T09:09:06Z</time>
      </trkpt>
      <trkpt lat="45.79518" lon="4.95623">
        <ele>178</ele>
        <time>2012-02-05T09:09:11Z</time>
      </trkpt>
      <trkpt lat="45.79519" lon="4.95641">
        <ele>177</ele>
        <time>2012-02-05T09:09:16Z</time>
      </trkpt>
      <trkpt lat="45.79521" lon="4.95648">
        <ele>177</ele>
        <time>2012-02-05T09:09:18Z</time>
      </trkpt>
      <trkpt lat="45.79523" lon="4.95656">
        <ele>177</ele>
        <time>2012-02-05T09:09:20Z</time>
      </trkpt>
      <trkpt lat="45.79524" lon="4.95675">
        <ele>176</ele>
        <time>2012-02-05T09:09:25Z</time>
      </trkpt>
      <trkpt lat="45.79525" lon="4.95679">
        <ele>176</ele>
        <time>2012-02-05T09:09:26Z</time>
      </trkpt>
      <trkpt lat="45.79525" lon="4.95689">
        <ele>176</ele>
        <time>2012-02-05T09:09:29Z</time>
      </trkpt>
      <trkpt lat="45.79526" lon="4.9569">
        <ele>176</ele>
        <time>2012-02-05T09:09:30Z</time>
      </trkpt>
      <trkpt lat="45.79529" lon="4.95701">
        <ele>176</ele>
        <time>2012-02-05T09:09:35Z</time>
      </trkpt>
      <trkpt lat="45.7953" lon="4.95705">
        <ele>176</ele>
        <time>2012-02-05T09:09:36Z</time>
      </trkpt>
      <trkpt lat="45.79536" lon="4.95727">
        <ele>175</ele>
        <time>2012-02-05T09:09:42Z</time>
      </trkpt>
      <trkpt lat="45.79541" lon="4.9575">
        <ele>175</ele>
        <time>2012-02-05T09:09:48Z</time>
      </trkpt>
      <trkpt lat="45.79542" lon="4.95754">
        <ele>175</ele>
        <time>2012-02-05T09:09:49Z</time>
      </trkpt>
      <trkpt lat="45.79549" lon="4.95781">
        <ele>175</ele>
        <time>2012-02-05T09:09:56Z</time>
      </trkpt>
      <trkpt lat="45.79554" lon="4.95803">
        <ele>175</ele>
        <time>2012-02-05T09:10:02Z</time>
      </trkpt>
      <trkpt lat="45.79555" lon="4.95806">
        <ele>175</ele>
        <time>2012-02-05T09:10:03Z</time>
      </trkpt>
      <trkpt lat="45.79559" lon="4.95821">
        <ele>175</ele>
        <time>2012-02-05T09:10:07Z</time>
      </trkpt>
      <trkpt lat="45.79562" lon="4.95831">
        <ele>175</ele>
        <time>2012-02-05T09:10:10Z</time>
      </trkpt>
      <trkpt lat="45.79564" lon="4.95842">
        <ele>175</ele>
        <time>2012-02-05T09:10:13Z</time>
      </trkpt>
      <trkpt lat="45.79568" lon="4.95856">
        <ele>175</ele>
        <time>2012-02-05T09:10:17Z</time>
      </trkpt>
      <trkpt lat="45.7957" lon="4.95863">
        <ele>175</ele>
        <time>2012-02-05T09:10:19Z</time>
      </trkpt>
      <trkpt lat="45.79574" lon="4.95881">
        <ele>175</ele>
        <time>2012-02-05T09:10:24Z</time>
      </trkpt>
      <trkpt lat="45.79575" lon="4.95885">
        <ele>175</ele>
        <time>2012-02-05T09:10:25Z</time>
      </trkpt>
      <trkpt lat="45.7958" lon="4.95907">
        <ele>175</ele>
        <time>2012-02-05T09:10:31Z</time>
      </trkpt>
      <trkpt lat="45.79585" lon="4.95929">
        <ele>175</ele>
        <time>2012-02-05T09:10:37Z</time>
      </trkpt>
      <trkpt lat="45.79586" lon="4.95932">
        <ele>175</ele>
        <time>2012-02-05T09:10:38Z</time>
      </trkpt>
      <trkpt lat="45.7959" lon="4.95947">
        <ele>174</ele>
        <time>2012-02-05T09:10:42Z</time>
      </trkpt>
      <trkpt lat="45.79591" lon="4.95958">
        <ele>174</ele>
        <time>2012-02-05T09:10:45Z</time>
      </trkpt>
      <trkpt lat="45.79593" lon="4.95965">
        <ele>174</ele>
        <time>2012-02-05T09:10:47Z</time>
      </trkpt>
      <trkpt lat="45.79596" lon="4.95986">
        <ele>174</ele>
        <time>2012-02-05T09:10:53Z</time>
      </trkpt>
      <trkpt lat="45.79597" lon="4.96005">
        <ele>174</ele>
        <time>2012-02-05T09:10:58Z</time>
      </trkpt>
      <trkpt lat="45.79597" lon="4.96012">
        <ele>175</ele>
        <time>2012-02-05T09:11:00Z</time>
      </trkpt>
      <trkpt lat="45.79598" lon="4.96023">
        <ele>175</ele>
        <time>2012-02-05T09:11:03Z</time>
      </trkpt>
      <trkpt lat="45.79602" lon="4.96039">
        <ele>175</ele>
        <time>2012-02-05T09:11:08Z</time>
      </trkpt>
      <trkpt lat="45.79602" lon="4.96039">
        <ele>175</ele>
        <time>2012-02-05T09:11:09Z</time>
      </trkpt>
      <trkpt lat="45.79605" lon="4.9606">
        <ele>175</ele>
        <time>2012-02-05T09:11:14Z</time>
      </trkpt>
      <trkpt lat="45.79606" lon="4.96066">
        <ele>175</ele>
        <time>2012-02-05T09:11:16Z</time>
      </trkpt>
      <trkpt lat="45.79609" lon="4.96083">
        <ele>175</ele>
        <time>2012-02-05T09:11:21Z</time>
      </trkpt>
      <trkpt lat="45.79611" lon="4.96093">
        <ele>177</ele>
        <time>2012-02-05T09:11:24Z</time>
      </trkpt>
      <trkpt lat="45.79614" lon="4.96106">
        <ele>177</ele>
        <time>2012-02-05T09:11:28Z</time>
      </trkpt>
      <trkpt lat="45.79618" lon="4.96119">
        <ele>178</ele>
        <time>2012-02-05T09:11:32Z</time>
      </trkpt>
      <trkpt lat="45.79618" lon="4.96119">
        <ele>178</ele>
        <time>2012-02-05T09:11:33Z</time>
      </trkpt>
      <trkpt lat="45.79621" lon="4.96125">
        <ele>178</ele>
        <time>2012-02-05T09:11:34Z</time>
      </trkpt>
      <trkpt lat="45.79626" lon="4.96133">
        <ele>178</ele>
        <time>2012-02-05T09:11:37Z</time>
      </trkpt>
      <trkpt lat="45.7963" lon="4.96138">
        <ele>178</ele>
        <time>2012-02-05T09:11:39Z</time>
      </trkpt>
      <trkpt lat="45.79633" lon="4.96145">
        <ele>179</ele>
        <time>2012-02-05T09:11:41Z</time>
      </trkpt>
      <trkpt lat="45.79638" lon="4.96162">
        <ele>179</ele>
        <time>2012-02-05T09:11:46Z</time>
      </trkpt>
      <trkpt lat="45.79639" lon="4.96166">
        <ele>179</ele>
        <time>2012-02-05T09:11:47Z</time>
      </trkpt>
      <trkpt lat="45.79639" lon="4.96189">
        <ele>179</ele>
        <time>2012-02-05T09:11:53Z</time>
      </trkpt>
      <trkpt lat="45.79644" lon="4.96209">
        <ele>179</ele>
        <time>2012-02-05T09:12:00Z</time>
      </trkpt>
      <trkpt lat="45.79647" lon="4.96213">
        <ele>179</ele>
        <time>2012-02-05T09:12:02Z</time>
      </trkpt>
      <trkpt lat="45.79655" lon="4.96224">
        <ele>179</ele>
        <time>2012-02-05T09:12:07Z</time>
      </trkpt>
      <trkpt lat="45.79659" lon="4.96233">
        <ele>179</ele>
        <time>2012-02-05T09:12:10Z</time>
      </trkpt>
      <trkpt lat="45.79663" lon="4.96245">
        <ele>180</ele>
        <time>2012-02-05T09:12:14Z</time>
      </trkpt>
      <trkpt lat="45.79664" lon="4.96257">
        <ele>179</ele>
        <time>2012-02-05T09:12:18Z</time>
      </trkpt>
      <trkpt lat="45.79663" lon="4.96261">
        <ele>179</ele>
        <time>2012-02-05T09:12:19Z</time>
      </trkpt>
      <trkpt lat="45.79661" lon="4.96282">
        <ele>177</ele>
        <time>2012-02-05T09:12:25Z</time>
      </trkpt>
      <trkpt lat="45.7966" lon="4.96286">
        <ele>177</ele>
        <time>2012-02-05T09:12:26Z</time>
      </trkpt>
      <trkpt lat="45.79657" lon="4.963">
        <ele>177</ele>
        <time>2012-02-05T09:12:30Z</time>
      </trkpt>
      <trkpt lat="45.79654" lon="4.96313">
        <ele>176</ele>
        <time>2012-02-05T09:12:34Z</time>
      </trkpt>
      <trkpt lat="45.79652" lon="4.96319">
        <ele>176</ele>
        <time>2012-02-05T09:12:36Z</time>
      </trkpt>
      <trkpt lat="45.79651" lon="4.96336">
        <ele>175</ele>
        <time>2012-02-05T09:12:40Z</time>
      </trkpt>
      <trkpt lat="45.79651" lon="4.9634">
        <ele>175</ele>
        <time>2012-02-05T09:12:41Z</time>
      </trkpt>
      <trkpt lat="45.79646" lon="4.96357">
        <ele>175</ele>
        <time>2012-02-05T09:12:46Z</time>
      </trkpt>
      <trkpt lat="45.79643" lon="4.96367">
        <ele>175</ele>
        <time>2012-02-05T09:12:49Z</time>
      </trkpt>
      <trkpt lat="45.7964" lon="4.96382">
        <ele>175</ele>
        <time>2012-02-05T09:12:54Z</time>
      </trkpt>
      <trkpt lat="45.79638" lon="4.96392">
        <ele>175</ele>
        <time>2012-02-05T09:12:57Z</time>
      </trkpt>
      <trkpt lat="45.79638" lon="4.96396">
        <ele>175</ele>
        <time>2012-02-05T09:12:58Z</time>
      </trkpt>
      <trkpt lat="45.79634" lon="4.96418">
        <ele>175</ele>
        <time>2012-02-05T09:13:04Z</time>
      </trkpt>
      <trkpt lat="45.79633" lon="4.96422">
        <ele>175</ele>
        <time>2012-02-05T09:13:05Z</time>
      </trkpt>
      <trkpt lat="45.7963" lon="4.96447">
        <ele>175</ele>
        <time>2012-02-05T09:13:12Z</time>
      </trkpt>
      <trkpt lat="45.79628" lon="4.96469">
        <ele>175</ele>
        <time>2012-02-05T09:13:18Z</time>
      </trkpt>
      <trkpt lat="45.79628" lon="4.96473">
        <ele>175</ele>
        <time>2012-02-05T09:13:19Z</time>
      </trkpt>
      <trkpt lat="45.79626" lon="4.96485">
        <ele>175</ele>
        <time>2012-02-05T09:13:24Z</time>
      </trkpt>
      <trkpt lat="45.79625" lon="4.965">
        <ele>176</ele>
        <time>2012-02-05T09:13:30Z</time>
      </trkpt>
      <trkpt lat="45.79624" lon="4.9652">
        <ele>177</ele>
        <time>2012-02-05T09:13:35Z</time>
      </trkpt>
      <trkpt lat="45.79624" lon="4.96528">
        <ele>177</ele>
        <time>2012-02-05T09:13:37Z</time>
      </trkpt>
      <trkpt lat="45.79623" lon="4.96543">
        <ele>177</ele>
        <time>2012-02-05T09:13:41Z</time>
      </trkpt>
      <trkpt lat="45.79621" lon="4.96554">
        <ele>177</ele>
        <time>2012-02-05T09:13:44Z</time>
      </trkpt>
      <trkpt lat="45.79621" lon="4.9656">
        <ele>177</ele>
        <time>2012-02-05T09:13:46Z</time>
      </trkpt>
      <trkpt lat="45.79621" lon="4.96584">
        <ele>177</ele>
        <time>2012-02-05T09:13:52Z</time>
      </trkpt>
      <trkpt lat="45.79619" lon="4.96606">
        <ele>177</ele>
        <time>2012-02-05T09:13:58Z</time>
      </trkpt>
      <trkpt lat="45.79619" lon="4.9661">
        <ele>177</ele>
        <time>2012-02-05T09:13:59Z</time>
      </trkpt>
      <trkpt lat="45.79616" lon="4.96632">
        <ele>177</ele>
        <time>2012-02-05T09:14:05Z</time>
      </trkpt>
      <trkpt lat="45.79616" lon="4.96636">
        <ele>177</ele>
        <time>2012-02-05T09:14:06Z</time>
      </trkpt>
      <trkpt lat="45.79613" lon="4.96654">
        <ele>177</ele>
        <time>2012-02-05T09:14:11Z</time>
      </trkpt>
      <trkpt lat="45.79612" lon="4.96662">
        <ele>176</ele>
        <time>2012-02-05T09:14:13Z</time>
      </trkpt>
      <trkpt lat="45.79611" lon="4.96676">
        <ele>176</ele>
        <time>2012-02-05T09:14:17Z</time>
      </trkpt>
      <trkpt lat="45.79609" lon="4.96691">
        <ele>176</ele>
        <time>2012-02-05T09:14:21Z</time>
      </trkpt>
      <trkpt lat="45.79609" lon="4.96698">
        <ele>176</ele>
        <time>2012-02-05T09:14:23Z</time>
      </trkpt>
      <trkpt lat="45.79608" lon="4.9672">
        <ele>177</ele>
        <time>2012-02-05T09:14:29Z</time>
      </trkpt>
      <trkpt lat="45.79608" lon="4.96747">
        <ele>176</ele>
        <time>2012-02-05T09:14:36Z</time>
      </trkpt>
      <trkpt lat="45.79608" lon="4.96765">
        <ele>176</ele>
        <time>2012-02-05T09:14:41Z</time>
      </trkpt>
      <trkpt lat="45.79608" lon="4.96775">
        <ele>177</ele>
        <time>2012-02-05T09:14:44Z</time>
      </trkpt>
      <trkpt lat="45.79608" lon="4.96779">
        <ele>177</ele>
        <time>2012-02-05T09:14:46Z</time>
      </trkpt>
      <trkpt lat="45.79608" lon="4.96784">
        <ele>177</ele>
        <time>2012-02-05T09:14:49Z</time>
      </trkpt>
      <trkpt lat="45.79609" lon="4.96789">
        <ele>177</ele>
        <time>2012-02-05T09:14:52Z</time>
      </trkpt>
      <trkpt lat="45.79606" lon="4.96799">
        <ele>177</ele>
        <time>2012-02-05T09:14:56Z</time>
      </trkpt>
      <trkpt lat="45.79605" lon="4.96803">
        <ele>177</ele>
        <time>2012-02-05T09:14:57Z</time>
      </trkpt>
      <trkpt lat="45.79602" lon="4.96814">
        <ele>177</ele>
        <time>2012-02-05T09:15:01Z</time>
      </trkpt>
      <trkpt lat="45.79603" lon="4.96824">
        <ele>177</ele>
        <time>2012-02-05T09:15:04Z</time>
      </trkpt>
      <trkpt lat="45.79604" lon="4.96827">
        <ele>177</ele>
        <time>2012-02-05T09:15:05Z</time>
      </trkpt>
      <trkpt lat="45.79608" lon="4.96848">
        <ele>177</ele>
        <time>2012-02-05T09:15:11Z</time>
      </trkpt>
      <trkpt lat="45.79608" lon="4.96852">
        <ele>177</ele>
        <time>2012-02-05T09:15:12Z</time>
      </trkpt>
      <trkpt lat="45.79613" lon="4.96875">
        <ele>177</ele>
        <time>2012-02-05T09:15:19Z</time>
      </trkpt>
      <trkpt lat="45.79614" lon="4.96879">
        <ele>177</ele>
        <time>2012-02-05T09:15:20Z</time>
      </trkpt>
      <trkpt lat="45.79617" lon="4.96896">
        <ele>177</ele>
        <time>2012-02-05T09:15:25Z</time>
      </trkpt>
      <trkpt lat="45.79621" lon="4.96906">
        <ele>177</ele>
        <time>2012-02-05T09:15:28Z</time>
      </trkpt>
      <trkpt lat="45.79626" lon="4.96914">
        <ele>177</ele>
        <time>2012-02-05T09:15:31Z</time>
      </trkpt>
      <trkpt lat="45.79632" lon="4.96926">
        <ele>177</ele>
        <time>2012-02-05T09:15:35Z</time>
      </trkpt>
      <trkpt lat="45.79634" lon="4.96929">
        <ele>177</ele>
        <time>2012-02-05T09:15:36Z</time>
      </trkpt>
      <trkpt lat="45.79645" lon="4.96944">
        <ele>178</ele>
        <time>2012-02-05T09:15:42Z</time>
      </trkpt>
      <trkpt lat="45.79647" lon="4.96946">
        <ele>178</ele>
        <time>2012-02-05T09:15:43Z</time>
      </trkpt>
      <trkpt lat="45.79656" lon="4.96957">
        <ele>178</ele>
        <time>2012-02-05T09:15:48Z</time>
      </trkpt>
      <trkpt lat="45.79656" lon="4.96961">
        <ele>178</ele>
        <time>2012-02-05T09:15:49Z</time>
      </trkpt>
      <trkpt lat="45.79656" lon="4.96965">
        <ele>178</ele>
        <time>2012-02-05T09:15:51Z</time>
      </trkpt>
      <trkpt lat="45.79656" lon="4.96991">
        <ele>178</ele>
        <time>2012-02-05T09:15:57Z</time>
      </trkpt>
      <trkpt lat="45.79655" lon="4.96996">
        <ele>178</ele>
        <time>2012-02-05T09:15:59Z</time>
      </trkpt>
      <trkpt lat="45.79657" lon="4.97005">
        <ele>179</ele>
        <time>2012-02-05T09:16:03Z</time>
      </trkpt>
      <trkpt lat="45.79664" lon="4.97015">
        <ele>179</ele>
        <time>2012-02-05T09:16:08Z</time>
      </trkpt>
      <trkpt lat="45.79666" lon="4.97015">
        <ele>179</ele>
        <time>2012-02-05T09:16:10Z</time>
      </trkpt>
      <trkpt lat="45.79672" lon="4.9702">
        <ele>178</ele>
        <time>2012-02-05T09:16:13Z</time>
      </trkpt>
      <trkpt lat="45.79676" lon="4.97035">
        <ele>178</ele>
        <time>2012-02-05T09:16:17Z</time>
      </trkpt>
      <trkpt lat="45.79676" lon="4.97039">
        <ele>178</ele>
        <time>2012-02-05T09:16:18Z</time>
      </trkpt>
      <trkpt lat="45.79673" lon="4.97058">
        <ele>178</ele>
        <time>2012-02-05T09:16:23Z</time>
      </trkpt>
      <trkpt lat="45.79671" lon="4.97061">
        <ele>178</ele>
        <time>2012-02-05T09:16:24Z</time>
      </trkpt>
      <trkpt lat="45.79668" lon="4.97071">
        <ele>178</ele>
        <time>2012-02-05T09:16:28Z</time>
      </trkpt>
      <trkpt lat="45.79665" lon="4.97087">
        <ele>179</ele>
        <time>2012-02-05T09:16:34Z</time>
      </trkpt>
      <trkpt lat="45.79662" lon="4.97099">
        <ele>179</ele>
        <time>2012-02-05T09:16:40Z</time>
      </trkpt>
      <trkpt lat="45.79657" lon="4.97113">
        <ele>179</ele>
        <time>2012-02-05T09:16:44Z</time>
      </trkpt>
      <trkpt lat="45.79656" lon="4.97116">
        <ele>179</ele>
        <time>2012-02-05T09:16:45Z</time>
      </trkpt>
      <trkpt lat="45.79648" lon="4.97127">
        <ele>179</ele>
        <time>2012-02-05T09:16:49Z</time>
      </trkpt>
      <trkpt lat="45.79643" lon="4.97132">
        <ele>179</ele>
        <time>2012-02-05T09:16:51Z</time>
      </trkpt>
      <trkpt lat="45.79642" lon="4.97134">
        <ele>179</ele>
        <time>2012-02-05T09:16:53Z</time>
      </trkpt>
      <trkpt lat="45.79642" lon="4.97137">
        <ele>179</ele>
        <time>2012-02-05T09:16:54Z</time>
      </trkpt>
      <trkpt lat="45.79644" lon="4.97153">
        <ele>179</ele>
        <time>2012-02-05T09:16:58Z</time>
      </trkpt>
      <trkpt lat="45.79645" lon="4.97157">
        <ele>179</ele>
        <time>2012-02-05T09:16:59Z</time>
      </trkpt>
      <trkpt lat="45.79645" lon="4.97161">
        <ele>179</ele>
        <time>2012-02-05T09:17:00Z</time>
      </trkpt>
      <trkpt lat="45.79646" lon="4.9717">
        <ele>180</ele>
        <time>2012-02-05T09:17:03Z</time>
      </trkpt>
      <trkpt lat="45.79648" lon="4.97175">
        <ele>180</ele>
        <time>2012-02-05T09:17:07Z</time>
      </trkpt>
      <trkpt lat="45.79648" lon="4.97175">
        <ele>180</ele>
        <time>2012-02-05T09:17:08Z</time>
      </trkpt>
      <trkpt lat="45.79654" lon="4.97171">
        <ele>179</ele>
        <time>2012-02-05T09:17:20Z</time>
      </trkpt>
      <trkpt lat="45.79657" lon="4.97173">
        <ele>179</ele>
        <time>2012-02-05T09:17:24Z</time>
      </trkpt>
      <trkpt lat="45.79657" lon="4.97178">
        <ele>179</ele>
        <time>2012-02-05T09:17:27Z</time>
      </trkpt>
      <trkpt lat="45.79657" lon="4.97193">
        <ele>180</ele>
        <time>2012-02-05T09:17:34Z</time>
      </trkpt>
      <trkpt lat="45.79656" lon="4.97199">
        <ele>180</ele>
        <time>2012-02-05T09:17:37Z</time>
      </trkpt>
      <trkpt lat="45.79655" lon="4.97205">
        <ele>180</ele>
        <time>2012-02-05T09:17:40Z</time>
      </trkpt>
      <trkpt lat="45.79657" lon="4.9722">
        <ele>179</ele>
        <time>2012-02-05T09:17:47Z</time>
      </trkpt>
      <trkpt lat="45.79659" lon="4.97224">
        <ele>179</ele>
        <time>2012-02-05T09:17:49Z</time>
      </trkpt>
      <trkpt lat="45.79661" lon="4.97236">
        <ele>179</ele>
        <time>2012-02-05T09:17:55Z</time>
      </trkpt>
      <trkpt lat="45.79664" lon="4.97245">
        <ele>178</ele>
        <time>2012-02-05T09:18:01Z</time>
      </trkpt>
      <trkpt lat="45.79666" lon="4.9725">
        <ele>178</ele>
        <time>2012-02-05T09:18:04Z</time>
      </trkpt>
      <trkpt lat="45.7967" lon="4.97256">
        <ele>178</ele>
        <time>2012-02-05T09:18:07Z</time>
      </trkpt>
      <trkpt lat="45.79678" lon="4.97271">
        <ele>178</ele>
        <time>2012-02-05T09:18:12Z</time>
      </trkpt>
      <trkpt lat="45.79681" lon="4.97293">
        <ele>178</ele>
        <time>2012-02-05T09:18:18Z</time>
      </trkpt>
      <trkpt lat="45.79682" lon="4.97297">
        <ele>178</ele>
        <time>2012-02-05T09:18:19Z</time>
      </trkpt>
      <trkpt lat="45.79681" lon="4.97318">
        <ele>178</ele>
        <time>2012-02-05T09:18:24Z</time>
      </trkpt>
      <trkpt lat="45.7968" lon="4.97326">
        <ele>178</ele>
        <time>2012-02-05T09:18:26Z</time>
      </trkpt>
      <trkpt lat="45.79682" lon="4.97337">
        <ele>178</ele>
        <time>2012-02-05T09:18:29Z</time>
      </trkpt>
      <trkpt lat="45.79687" lon="4.97349">
        <ele>178</ele>
        <time>2012-02-05T09:18:33Z</time>
      </trkpt>
      <trkpt lat="45.79687" lon="4.97353">
        <ele>178</ele>
        <time>2012-02-05T09:18:34Z</time>
      </trkpt>
      <trkpt lat="45.79688" lon="4.97378">
        <ele>178</ele>
        <time>2012-02-05T09:18:41Z</time>
      </trkpt>
      <trkpt lat="45.7969" lon="4.97399">
        <ele>178</ele>
        <time>2012-02-05T09:18:46Z</time>
      </trkpt>
      <trkpt lat="45.79691" lon="4.97403">
        <ele>178</ele>
        <time>2012-02-05T09:18:47Z</time>
      </trkpt>
      <trkpt lat="45.79691" lon="4.97419">
        <ele>179</ele>
        <time>2012-02-05T09:18:51Z</time>
      </trkpt>
      <trkpt lat="45.79691" lon="4.9743">
        <ele>179</ele>
        <time>2012-02-05T09:18:54Z</time>
      </trkpt>
      <trkpt lat="45.79692" lon="4.97445">
        <ele>179</ele>
        <time>2012-02-05T09:18:58Z</time>
      </trkpt>
      <trkpt lat="45.79693" lon="4.97457">
        <ele>179</ele>
        <time>2012-02-05T09:19:01Z</time>
      </trkpt>
      <trkpt lat="45.79694" lon="4.97468">
        <ele>179</ele>
        <time>2012-02-05T09:19:04Z</time>
      </trkpt>
      <trkpt lat="45.79694" lon="4.97483">
        <ele>179</ele>
        <time>2012-02-05T09:19:08Z</time>
      </trkpt>
      <trkpt lat="45.7969" lon="4.97508">
        <ele>178</ele>
        <time>2012-02-05T09:19:15Z</time>
      </trkpt>
      <trkpt lat="45.79687" lon="4.97533">
        <ele>178</ele>
        <time>2012-02-05T09:19:22Z</time>
      </trkpt>
      <trkpt lat="45.79687" lon="4.97537">
        <ele>178</ele>
        <time>2012-02-05T09:19:23Z</time>
      </trkpt>
      <trkpt lat="45.79684" lon="4.9755">
        <ele>177</ele>
        <time>2012-02-05T09:19:27Z</time>
      </trkpt>
      <trkpt lat="45.79681" lon="4.97564">
        <ele>178</ele>
        <time>2012-02-05T09:19:31Z</time>
      </trkpt>
      <trkpt lat="45.79681" lon="4.97567">
        <ele>178</ele>
        <time>2012-02-05T09:19:32Z</time>
      </trkpt>
      <trkpt lat="45.7968" lon="4.9757">
        <ele>178</ele>
        <time>2012-02-05T09:19:33Z</time>
      </trkpt>
      <trkpt lat="45.79681" lon="4.97587">
        <ele>177</ele>
        <time>2012-02-05T09:19:38Z</time>
      </trkpt>
      <trkpt lat="45.79682" lon="4.9759">
        <ele>177</ele>
        <time>2012-02-05T09:19:39Z</time>
      </trkpt>
      <trkpt lat="45.79682" lon="4.97597">
        <ele>176</ele>
        <time>2012-02-05T09:19:41Z</time>
      </trkpt>
      <trkpt lat="45.7968" lon="4.97602">
        <ele>176</ele>
        <time>2012-02-05T09:19:43Z</time>
      </trkpt>
      <trkpt lat="45.79676" lon="4.97608">
        <ele>176</ele>
        <time>2012-02-05T09:19:45Z</time>
      </trkpt>
      <trkpt lat="45.79675" lon="4.9761">
        <ele>176</ele>
        <time>2012-02-05T09:19:46Z</time>
      </trkpt>
      <trkpt lat="45.79674" lon="4.97613">
        <ele>176</ele>
        <time>2012-02-05T09:19:47Z</time>
      </trkpt>
      <trkpt lat="45.79674" lon="4.97616">
        <ele>176</ele>
        <time>2012-02-05T09:19:48Z</time>
      </trkpt>
      <trkpt lat="45.79667" lon="4.97631">
        <ele>176</ele>
        <time>2012-02-05T09:19:53Z</time>
      </trkpt>
      <trkpt lat="45.79664" lon="4.97635">
        <ele>178</ele>
        <time>2012-02-05T09:19:55Z</time>
      </trkpt>
      <trkpt lat="45.79656" lon="4.97647">
        <ele>178</ele>
        <time>2012-02-05T09:20:01Z</time>
      </trkpt>
      <trkpt lat="45.79653" lon="4.97655">
        <ele>178</ele>
        <time>2012-02-05T09:20:06Z</time>
      </trkpt>
      <trkpt lat="45.79651" lon="4.9766">
        <ele>178</ele>
        <time>2012-02-05T09:20:09Z</time>
      </trkpt>
      <trkpt lat="45.79646" lon="4.97678">
        <ele>177</ele>
        <time>2012-02-05T09:20:19Z</time>
      </trkpt>
      <trkpt lat="45.79645" lon="4.9768">
        <ele>177</ele>
        <time>2012-02-05T09:20:20Z</time>
      </trkpt>
      <trkpt lat="45.7964" lon="4.97696">
        <ele>176</ele>
        <time>2012-02-05T09:20:29Z</time>
      </trkpt>
      <trkpt lat="45.79638" lon="4.97704">
        <ele>176</ele>
        <time>2012-02-05T09:20:33Z</time>
      </trkpt>
      <trkpt lat="45.79633" lon="4.97714">
        <ele>175</ele>
        <time>2012-02-05T09:20:39Z</time>
      </trkpt>
      <trkpt lat="45.79626" lon="4.97724">
        <ele>175</ele>
        <time>2012-02-05T09:20:46Z</time>
      </trkpt>
      <trkpt lat="45.79626" lon="4.97726">
        <ele>175</ele>
        <time>2012-02-05T09:20:47Z</time>
      </trkpt>
      <trkpt lat="45.79615" lon="4.97737">
        <ele>175</ele>
        <time>2012-02-05T09:20:56Z</time>
      </trkpt>
      <trkpt lat="45.79612" lon="4.97741">
        <ele>175</ele>
        <time>2012-02-05T09:20:59Z</time>
      </trkpt>
      <trkpt lat="45.79606" lon="4.9775">
        <ele>174</ele>
        <time>2012-02-05T09:21:05Z</time>
      </trkpt>
      <trkpt lat="45.79599" lon="4.97761">
        <ele>175</ele>
        <time>2012-02-05T09:21:12Z</time>
      </trkpt>
      <trkpt lat="45.79596" lon="4.97766">
        <ele>175</ele>
        <time>2012-02-05T09:21:15Z</time>
      </trkpt>
      <trkpt lat="45.79589" lon="4.97785">
        <ele>174</ele>
        <time>2012-02-05T09:21:25Z</time>
      </trkpt>
      <trkpt lat="45.79588" lon="4.97796">
        <ele>174</ele>
        <time>2012-02-05T09:21:32Z</time>
      </trkpt>
      <trkpt lat="45.7959" lon="4.97811">
        <ele>174</ele>
        <time>2012-02-05T09:21:39Z</time>
      </trkpt>
      <trkpt lat="45.79591" lon="4.97815">
        <ele>174</ele>
        <time>2012-02-05T09:21:40Z</time>
      </trkpt>
      <trkpt lat="45.79595" lon="4.97836">
        <ele>174</ele>
        <time>2012-02-05T09:21:46Z</time>
      </trkpt>
      <trkpt lat="45.79603" lon="4.9786">
        <ele>173</ele>
        <time>2012-02-05T09:21:53Z</time>
      </trkpt>
      <trkpt lat="45.7961" lon="4.97881">
        <ele>173</ele>
        <time>2012-02-05T09:21:59Z</time>
      </trkpt>
      <trkpt lat="45.79611" lon="4.97885">
        <ele>173</ele>
        <time>2012-02-05T09:22:00Z</time>
      </trkpt>
      <trkpt lat="45.79616" lon="4.97903">
        <ele>173</ele>
        <time>2012-02-05T09:22:05Z</time>
      </trkpt>
      <trkpt lat="45.79618" lon="4.97909">
        <ele>173</ele>
        <time>2012-02-05T09:22:07Z</time>
      </trkpt>
      <trkpt lat="45.79622" lon="4.97924">
        <ele>173</ele>
        <time>2012-02-05T09:22:11Z</time>
      </trkpt>
      <trkpt lat="45.79625" lon="4.97934">
        <ele>173</ele>
        <time>2012-02-05T09:22:14Z</time>
      </trkpt>
      <trkpt lat="45.7963" lon="4.97944">
        <ele>173</ele>
        <time>2012-02-05T09:22:17Z</time>
      </trkpt>
      <trkpt lat="45.79637" lon="4.97956">
        <ele>173</ele>
        <time>2012-02-05T09:22:21Z</time>
      </trkpt>
      <trkpt lat="45.7964" lon="4.97961">
        <ele>172</ele>
        <time>2012-02-05T09:22:23Z</time>
      </trkpt>
      <trkpt lat="45.79652" lon="4.97971">
        <ele>172</ele>
        <time>2012-02-05T09:22:28Z</time>
      </trkpt>
      <trkpt lat="45.79665" lon="4.97976">
        <ele>172</ele>
        <time>2012-02-05T09:22:33Z</time>
      </trkpt>
      <trkpt lat="45.79672" lon="4.97978">
        <ele>170</ele>
        <time>2012-02-05T09:22:36Z</time>
      </trkpt>
      <trkpt lat="45.79683" lon="4.97976">
        <ele>170</ele>
        <time>2012-02-05T09:22:40Z</time>
      </trkpt>
      <trkpt lat="45.7969" lon="4.97977">
        <ele>170</ele>
        <time>2012-02-05T09:22:43Z</time>
      </trkpt>
      <trkpt lat="45.79692" lon="4.9798">
        <ele>170</ele>
        <time>2012-02-05T09:22:44Z</time>
      </trkpt>
      <trkpt lat="45.79696" lon="4.97992">
        <ele>170</ele>
        <time>2012-02-05T09:22:48Z</time>
      </trkpt>
      <trkpt lat="45.79699" lon="4.98002">
        <ele>172</ele>
        <time>2012-02-05T09:22:51Z</time>
      </trkpt>
      <trkpt lat="45.79701" lon="4.98009">
        <ele>172</ele>
        <time>2012-02-05T09:22:53Z</time>
      </trkpt>
      <trkpt lat="45.79704" lon="4.98026">
        <ele>172</ele>
        <time>2012-02-05T09:22:58Z</time>
      </trkpt>
      <trkpt lat="45.79705" lon="4.98029">
        <ele>172</ele>
        <time>2012-02-05T09:22:59Z</time>
      </trkpt>
      <trkpt lat="45.79708" lon="4.98045">
        <ele>173</ele>
        <time>2012-02-05T09:23:04Z</time>
      </trkpt>
      <trkpt lat="45.79711" lon="4.98054">
        <ele>173</ele>
        <time>2012-02-05T09:23:07Z</time>
      </trkpt>
      <trkpt lat="45.79715" lon="4.9806">
        <ele>173</ele>
        <time>2012-02-05T09:23:09Z</time>
      </trkpt>
      <trkpt lat="45.7972" lon="4.98074">
        <ele>174</ele>
        <time>2012-02-05T09:23:14Z</time>
      </trkpt>
      <trkpt lat="45.79721" lon="4.98078">
        <ele>174</ele>
        <time>2012-02-05T09:23:15Z</time>
      </trkpt>
      <trkpt lat="45.79722" lon="4.98091">
        <ele>176</ele>
        <time>2012-02-05T09:23:19Z</time>
      </trkpt>
      <trkpt lat="45.79723" lon="4.98099">
        <ele>176</ele>
        <time>2012-02-05T09:23:21Z</time>
      </trkpt>
      <trkpt lat="45.79724" lon="4.98105">
        <ele>176</ele>
        <time>2012-02-05T09:23:23Z</time>
      </trkpt>
      <trkpt lat="45.79725" lon="4.98107">
        <ele>176</ele>
        <time>2012-02-05T09:23:24Z</time>
      </trkpt>
      <trkpt lat="45.79729" lon="4.98126">
        <ele>177</ele>
        <time>2012-02-05T09:23:30Z</time>
      </trkpt>
      <trkpt lat="45.79731" lon="4.98132">
        <ele>177</ele>
        <time>2012-02-05T09:23:32Z</time>
      </trkpt>
      <trkpt lat="45.79736" lon="4.98146">
        <ele>178</ele>
        <time>2012-02-05T09:23:37Z</time>
      </trkpt>
      <trkpt lat="45.79739" lon="4.98155">
        <ele>178</ele>
        <time>2012-02-05T09:23:40Z</time>
      </trkpt>
      <trkpt lat="45.79741" lon="4.98157">
        <ele>178</ele>
        <time>2012-02-05T09:23:42Z</time>
      </trkpt>
      <trkpt lat="45.7974" lon="4.98157">
        <ele>178</ele>
        <time>2012-02-05T09:23:50Z</time>
      </trkpt>
      <trkpt lat="45.79741" lon="4.98158">
        <ele>179</ele>
        <time>2012-02-05T09:23:57Z</time>
      </trkpt>
      <trkpt lat="45.7974" lon="4.98165">
        <ele>179</ele>
        <time>2012-02-05T09:24:02Z</time>
      </trkpt>
      <trkpt lat="45.7974" lon="4.98175">
        <ele>179</ele>
        <time>2012-02-05T09:24:08Z</time>
      </trkpt>
      <trkpt lat="45.79739" lon="4.98178">
        <ele>179</ele>
        <time>2012-02-05T09:24:09Z</time>
      </trkpt>
      <trkpt lat="45.79736" lon="4.9819">
        <ele>178</ele>
        <time>2012-02-05T09:24:12Z</time>
      </trkpt>
      <trkpt lat="45.79734" lon="4.98205">
        <ele>178</ele>
        <time>2012-02-05T09:24:16Z</time>
      </trkpt>
      <trkpt lat="45.79733" lon="4.98208">
        <ele>178</ele>
        <time>2012-02-05T09:24:17Z</time>
      </trkpt>
      <trkpt lat="45.79728" lon="4.9823">
        <ele>178</ele>
        <time>2012-02-05T09:24:23Z</time>
      </trkpt>
      <trkpt lat="45.79727" lon="4.98234">
        <ele>178</ele>
        <time>2012-02-05T09:24:24Z</time>
      </trkpt>
      <trkpt lat="45.7972" lon="4.98258">
        <ele>178</ele>
        <time>2012-02-05T09:24:30Z</time>
      </trkpt>
      <trkpt lat="45.79717" lon="4.98275">
        <ele>177</ele>
        <time>2012-02-05T09:24:35Z</time>
      </trkpt>
      <trkpt lat="45.79718" lon="4.98282">
        <ele>177</ele>
        <time>2012-02-05T09:24:37Z</time>
      </trkpt>
      <trkpt lat="45.79722" lon="4.98295">
        <ele>177</ele>
        <time>2012-02-05T09:24:41Z</time>
      </trkpt>
      <trkpt lat="45.79726" lon="4.98309">
        <ele>177</ele>
        <time>2012-02-05T09:24:45Z</time>
      </trkpt>
      <trkpt lat="45.79728" lon="4.98315">
        <ele>177</ele>
        <time>2012-02-05T09:24:47Z</time>
      </trkpt>
      <trkpt lat="45.79734" lon="4.98335">
        <ele>177</ele>
        <time>2012-02-05T09:24:53Z</time>
      </trkpt>
      <trkpt lat="45.79739" lon="4.98354">
        <ele>177</ele>
        <time>2012-02-05T09:24:59Z</time>
      </trkpt>
      <trkpt lat="45.79741" lon="4.9836">
        <ele>177</ele>
        <time>2012-02-05T09:25:01Z</time>
      </trkpt>
      <trkpt lat="45.79745" lon="4.98372">
        <ele>177</ele>
        <time>2012-02-05T09:25:05Z</time>
      </trkpt>
      <trkpt lat="45.79749" lon="4.98383">
        <ele>177</ele>
        <time>2012-02-05T09:25:08Z</time>
      </trkpt>
      <trkpt lat="45.7975" lon="4.98386">
        <ele>177</ele>
        <time>2012-02-05T09:25:09Z</time>
      </trkpt>
      <trkpt lat="45.79755" lon="4.98403">
        <ele>179</ele>
        <time>2012-02-05T09:25:15Z</time>
      </trkpt>
      <trkpt lat="45.79756" lon="4.98407">
        <ele>179</ele>
        <time>2012-02-05T09:25:17Z</time>
      </trkpt>
      <trkpt lat="45.7976" lon="4.98421">
        <ele>178</ele>
        <time>2012-02-05T09:25:24Z</time>
      </trkpt>
      <trkpt lat="45.79763" lon="4.98432">
        <ele>178</ele>
        <time>2012-02-05T09:25:28Z</time>
      </trkpt>
      <trkpt lat="45.79764" lon="4.98436">
        <ele>178</ele>
        <time>2012-02-05T09:25:29Z</time>
      </trkpt>
      <trkpt lat="45.7977" lon="4.98457">
        <ele>178</ele>
        <time>2012-02-05T09:25:35Z</time>
      </trkpt>
      <trkpt lat="45.79776" lon="4.98477">
        <ele>178</ele>
        <time>2012-02-05T09:25:41Z</time>
      </trkpt>
      <trkpt lat="45.79777" lon="4.98481">
        <ele>178</ele>
        <time>2012-02-05T09:25:42Z</time>
      </trkpt>
      <trkpt lat="45.79782" lon="4.98498">
        <ele>178</ele>
        <time>2012-02-05T09:25:47Z</time>
      </trkpt>
      <trkpt lat="45.79784" lon="4.98505">
        <ele>177</ele>
        <time>2012-02-05T09:25:49Z</time>
      </trkpt>
      <trkpt lat="45.79788" lon="4.98523">
        <ele>177</ele>
        <time>2012-02-05T09:25:54Z</time>
      </trkpt>
      <trkpt lat="45.7979" lon="4.98531">
        <ele>177</ele>
        <time>2012-02-05T09:25:56Z</time>
      </trkpt>
      <trkpt lat="45.79792" lon="4.98542">
        <ele>177</ele>
        <time>2012-02-05T09:25:59Z</time>
      </trkpt>
      <trkpt lat="45.79791" lon="4.98559">
        <ele>176</ele>
        <time>2012-02-05T09:26:03Z</time>
      </trkpt>
      <trkpt lat="45.79784" lon="4.98578">
        <ele>176</ele>
        <time>2012-02-05T09:26:08Z</time>
      </trkpt>
      <trkpt lat="45.79783" lon="4.98582">
        <ele>176</ele>
        <time>2012-02-05T09:26:09Z</time>
      </trkpt>
      <trkpt lat="45.79776" lon="4.986">
        <ele>176</ele>
        <time>2012-02-05T09:26:14Z</time>
      </trkpt>
      <trkpt lat="45.79774" lon="4.98608">
        <ele>176</ele>
        <time>2012-02-05T09:26:16Z</time>
      </trkpt>
      <trkpt lat="45.79768" lon="4.98622">
        <ele>176</ele>
        <time>2012-02-05T09:26:20Z</time>
      </trkpt>
      <trkpt lat="45.79764" lon="4.98633">
        <ele>176</ele>
        <time>2012-02-05T09:26:23Z</time>
      </trkpt>
      <trkpt lat="45.79761" lon="4.98644">
        <ele>176</ele>
        <time>2012-02-05T09:26:26Z</time>
      </trkpt>
      <trkpt lat="45.79757" lon="4.98659">
        <ele>176</ele>
        <time>2012-02-05T09:26:30Z</time>
      </trkpt>
      <trkpt lat="45.79758" lon="4.98666">
        <ele>176</ele>
        <time>2012-02-05T09:26:32Z</time>
      </trkpt>
      <trkpt lat="45.79762" lon="4.98683">
        <ele>176</ele>
        <time>2012-02-05T09:26:37Z</time>
      </trkpt>
      <trkpt lat="45.79762" lon="4.98686">
        <ele>176</ele>
        <time>2012-02-05T09:26:38Z</time>
      </trkpt>
      <trkpt lat="45.79766" lon="4.987">
        <ele>176</ele>
        <time>2012-02-05T09:26:42Z</time>
      </trkpt>
      <trkpt lat="45.79767" lon="4.98711">
        <ele>177</ele>
        <time>2012-02-05T09:26:45Z</time>
      </trkpt>
      <trkpt lat="45.79769" lon="4.98718">
        <ele>177</ele>
        <time>2012-02-05T09:26:47Z</time>
      </trkpt>
      <trkpt lat="45.79773" lon="4.98739">
        <ele>177</ele>
        <time>2012-02-05T09:26:53Z</time>
      </trkpt>
      <trkpt lat="45.79781" lon="4.98752">
        <ele>177</ele>
        <time>2012-02-05T09:26:58Z</time>
      </trkpt>
      <trkpt lat="45.79784" lon="4.98761">
        <ele>177</ele>
        <time>2012-02-05T09:27:01Z</time>
      </trkpt>
      <trkpt lat="45.79787" lon="4.98769">
        <ele>177</ele>
        <time>2012-02-05T09:27:04Z</time>
      </trkpt>
      <trkpt lat="45.79793" lon="4.98785">
        <ele>177</ele>
        <time>2012-02-05T09:27:09Z</time>
      </trkpt>
      <trkpt lat="45.79794" lon="4.98789">
        <ele>177</ele>
        <time>2012-02-05T09:27:10Z</time>
      </trkpt>
      <trkpt lat="45.79798" lon="4.98807">
        <ele>177</ele>
        <time>2012-02-05T09:27:15Z</time>
      </trkpt>
      <trkpt lat="45.79798" lon="4.98811">
        <ele>177</ele>
        <time>2012-02-05T09:27:16Z</time>
      </trkpt>
      <trkpt lat="45.79802" lon="4.98829">
        <ele>178</ele>
        <time>2012-02-05T09:27:21Z</time>
      </trkpt>
      <trkpt lat="45.79803" lon="4.98837">
        <ele>178</ele>
        <time>2012-02-05T09:27:25Z</time>
      </trkpt>
      <trkpt lat="45.79804" lon="4.98838">
        <ele>178</ele>
        <time>2012-02-05T09:27:26Z</time>
      </trkpt>
      <trkpt lat="45.79811" lon="4.98839">
        <ele>178</ele>
        <time>2012-02-05T09:27:31Z</time>
      </trkpt>
      <trkpt lat="45.79807" lon="4.98845">
        <ele>178</ele>
        <time>2012-02-05T09:27:38Z</time>
      </trkpt>
      <trkpt lat="45.79806" lon="4.98849">
        <ele>178</ele>
        <time>2012-02-05T09:27:39Z</time>
      </trkpt>
      <trkpt lat="45.79804" lon="4.98861">
        <ele>178</ele>
        <time>2012-02-05T09:27:42Z</time>
      </trkpt>
      <trkpt lat="45.79801" lon="4.98876">
        <ele>178</ele>
        <time>2012-02-05T09:27:46Z</time>
      </trkpt>
      <trkpt lat="45.798" lon="4.9888">
        <ele>178</ele>
        <time>2012-02-05T09:27:47Z</time>
      </trkpt>
      <trkpt lat="45.79795" lon="4.98905">
        <ele>178</ele>
        <time>2012-02-05T09:27:54Z</time>
      </trkpt>
      <trkpt lat="45.7979" lon="4.9893">
        <ele>178</ele>
        <time>2012-02-05T09:28:01Z</time>
      </trkpt>
      <trkpt lat="45.79789" lon="4.98953">
        <ele>178</ele>
        <time>2012-02-05T09:28:07Z</time>
      </trkpt>
      <trkpt lat="45.79789" lon="4.98957">
        <ele>178</ele>
        <time>2012-02-05T09:28:08Z</time>
      </trkpt>
      <trkpt lat="45.79791" lon="4.98964">
        <ele>178</ele>
        <time>2012-02-05T09:28:12Z</time>
      </trkpt>
      <trkpt lat="45.79798" lon="4.98961">
        <ele>178</ele>
        <time>2012-02-05T09:28:17Z</time>
      </trkpt>
      <trkpt lat="45.79803" lon="4.98959">
        <ele>178</ele>
        <time>2012-02-05T09:28:20Z</time>
      </trkpt>
      <trkpt lat="45.79805" lon="4.98959">
        <ele>178</ele>
        <time>2012-02-05T09:28:21Z</time>
      </trkpt>
      <trkpt lat="45.79811" lon="4.98956">
        <ele>178</ele>
        <time>2012-02-05T09:28:25Z</time>
      </trkpt>
      <trkpt lat="45.79815" lon="4.98953">
        <ele>178</ele>
        <time>2012-02-05T09:28:28Z</time>
      </trkpt>
      <trkpt lat="45.79819" lon="4.98949">
        <ele>178</ele>
        <time>2012-02-05T09:28:31Z</time>
      </trkpt>
      <trkpt lat="45.79822" lon="4.98947">
        <ele>178</ele>
        <time>2012-02-05T09:28:33Z</time>
      </trkpt>
      <trkpt lat="45.79828" lon="4.98943">
        <ele>178</ele>
        <time>2012-02-05T09:28:39Z</time>
      </trkpt>
      <trkpt lat="45.79827" lon="4.98946">
        <ele>178</ele>
        <time>2012-02-05T09:28:42Z</time>
      </trkpt>
      <trkpt lat="45.79826" lon="4.98946">
        <ele>178</ele>
        <time>2012-02-05T09:28:43Z</time>
      </trkpt>
      <trkpt lat="45.79819" lon="4.98949">
        <ele>178</ele>
        <time>2012-02-05T09:28:48Z</time>
      </trkpt>
      <trkpt lat="45.79817" lon="4.9895">
        <ele>178</ele>
        <time>2012-02-05T09:28:49Z</time>
      </trkpt>
      <trkpt lat="45.79816" lon="4.98951">
        <ele>178</ele>
        <time>2012-02-05T09:28:50Z</time>
      </trkpt>
      <trkpt lat="45.79817" lon="4.98958">
        <ele>178</ele>
        <time>2012-02-05T09:28:53Z</time>
      </trkpt>
      <trkpt lat="45.79818" lon="4.98964">
        <ele>178</ele>
        <time>2012-02-05T09:28:55Z</time>
      </trkpt>
      <trkpt lat="45.79819" lon="4.98967">
        <ele>179</ele>
        <time>2012-02-05T09:28:57Z</time>
      </trkpt>
      <trkpt lat="45.7982" lon="4.98968">
        <ele>179</ele>
        <time>2012-02-05T09:29:03Z</time>
      </trkpt>
      <trkpt lat="45.79819" lon="4.9897">
        <ele>179</ele>
        <time>2012-02-05T09:29:11Z</time>
      </trkpt>
      <trkpt lat="45.79818" lon="4.9897">
        <ele>179</ele>
        <time>2012-02-05T09:29:12Z</time>
      </trkpt>
      <trkpt lat="45.79812" lon="4.98973">
        <ele>179</ele>
        <time>2012-02-05T09:29:16Z</time>
      </trkpt>
      <trkpt lat="45.79811" lon="4.98974">
        <ele>178</ele>
        <time>2012-02-05T09:29:17Z</time>
      </trkpt>
      <trkpt lat="45.79802" lon="4.98978">
        <ele>178</ele>
        <time>2012-02-05T09:29:24Z</time>
      </trkpt>
      <trkpt lat="45.79802" lon="4.98979">
        <ele>178</ele>
        <time>2012-02-05T09:29:32Z</time>
      </trkpt>
      <trkpt lat="45.79801" lon="4.9898">
        <ele>178</ele>
        <time>2012-02-05T09:29:36Z</time>
      </trkpt>
      <trkpt lat="45.79802" lon="4.98977">
        <ele>178</ele>
        <time>2012-02-05T09:29:38Z</time>
      </trkpt>
      <trkpt lat="45.79805" lon="4.98972">
        <ele>178</ele>
        <time>2012-02-05T09:29:41Z</time>
      </trkpt>
      <trkpt lat="45.79806" lon="4.98965">
        <ele>178</ele>
        <time>2012-02-05T09:29:46Z</time>
      </trkpt>
      <trkpt lat="45.79805" lon="4.98969">
        <ele>178</ele>
        <time>2012-02-05T09:29:58Z</time>
      </trkpt>
      <trkpt lat="45.79804" lon="4.98971">
        <ele>178</ele>
        <time>2012-02-05T09:29:59Z</time>
      </trkpt>
      <trkpt lat="45.79801" lon="4.9898">
        <ele>178</ele>
        <time>2012-02-05T09:30:02Z</time>
      </trkpt>
      <trkpt lat="45.79799" lon="4.98984">
        <ele>178</ele>
        <time>2012-02-05T09:30:03Z</time>
      </trkpt>
      <trkpt lat="45.79797" lon="4.98992">
        <ele>178</ele>
        <time>2012-02-05T09:30:05Z</time>
      </trkpt>
      <trkpt lat="45.79795" lon="4.99001">
        <ele>179</ele>
        <time>2012-02-05T09:30:07Z</time>
      </trkpt>
      <trkpt lat="45.79791" lon="4.99016">
        <ele>179</ele>
        <time>2012-02-05T09:30:12Z</time>
      </trkpt>
      <trkpt lat="45.7979" lon="4.99018">
        <ele>179</ele>
        <time>2012-02-05T09:30:13Z</time>
      </trkpt>
      <trkpt lat="45.79789" lon="4.99032">
        <ele>179</ele>
        <time>2012-02-05T09:30:20Z</time>
      </trkpt>
      <trkpt lat="45.79788" lon="4.99041">
        <ele>179</ele>
        <time>2012-02-05T09:30:26Z</time>
      </trkpt>
      <trkpt lat="45.79789" lon="4.99045">
        <ele>179</ele>
        <time>2012-02-05T09:30:37Z</time>
      </trkpt>
      <trkpt lat="45.79788" lon="4.99047">
        <ele>179</ele>
        <time>2012-02-05T09:30:40Z</time>
      </trkpt>
      <trkpt lat="45.79781" lon="4.99054">
        <ele>179</ele>
        <time>2012-02-05T09:30:46Z</time>
      </trkpt>
      <trkpt lat="45.79778" lon="4.99061">
        <ele>179</ele>
        <time>2012-02-05T09:30:52Z</time>
      </trkpt>
      <trkpt lat="45.79777" lon="4.99063">
        <ele>179</ele>
        <time>2012-02-05T09:30:53Z</time>
      </trkpt>
      <trkpt lat="45.79778" lon="4.99077">
        <ele>179</ele>
        <time>2012-02-05T09:31:00Z</time>
      </trkpt>
      <trkpt lat="45.79779" lon="4.99084">
        <ele>180</ele>
        <time>2012-02-05T09:31:06Z</time>
      </trkpt>
      <trkpt lat="45.79781" lon="4.99092">
        <ele>180</ele>
        <time>2012-02-05T09:31:16Z</time>
      </trkpt>
      <trkpt lat="45.7978" lon="4.99096">
        <ele>180</ele>
        <time>2012-02-05T09:31:17Z</time>
      </trkpt>
      <trkpt lat="45.79776" lon="4.99121">
        <ele>180</ele>
        <time>2012-02-05T09:31:22Z</time>
      </trkpt>
      <trkpt lat="45.79775" lon="4.99125">
        <ele>180</ele>
        <time>2012-02-05T09:31:23Z</time>
      </trkpt>
      <trkpt lat="45.7977" lon="4.99146">
        <ele>181</ele>
        <time>2012-02-05T09:31:28Z</time>
      </trkpt>
      <trkpt lat="45.79768" lon="4.9915">
        <ele>181</ele>
        <time>2012-02-05T09:31:29Z</time>
      </trkpt>
      <trkpt lat="45.79762" lon="4.99166">
        <ele>181</ele>
        <time>2012-02-05T09:31:33Z</time>
      </trkpt>
      <trkpt lat="45.79761" lon="4.9917">
        <ele>181</ele>
        <time>2012-02-05T09:31:34Z</time>
      </trkpt>
      <trkpt lat="45.79756" lon="4.99184">
        <ele>181</ele>
        <time>2012-02-05T09:31:38Z</time>
      </trkpt>
      <trkpt lat="45.79755" lon="4.99197">
        <ele>181</ele>
        <time>2012-02-05T09:31:41Z</time>
      </trkpt>
      <trkpt lat="45.79754" lon="4.99206">
        <ele>181</ele>
        <time>2012-02-05T09:31:43Z</time>
      </trkpt>
      <trkpt lat="45.7975" lon="4.99226">
        <ele>181</ele>
        <time>2012-02-05T09:31:48Z</time>
      </trkpt>
      <trkpt lat="45.79741" lon="4.99238">
        <ele>181</ele>
        <time>2012-02-05T09:31:52Z</time>
      </trkpt>
      <trkpt lat="45.7974" lon="4.99241">
        <ele>181</ele>
        <time>2012-02-05T09:31:53Z</time>
      </trkpt>
      <trkpt lat="45.7974" lon="4.9925">
        <ele>181</ele>
        <time>2012-02-05T09:31:55Z</time>
      </trkpt>
      <trkpt lat="45.7974" lon="4.99254">
        <ele>181</ele>
        <time>2012-02-05T09:31:56Z</time>
      </trkpt>
      <trkpt lat="45.7974" lon="4.99262">
        <ele>181</ele>
        <time>2012-02-05T09:31:58Z</time>
      </trkpt>
      <trkpt lat="45.7974" lon="4.99278">
        <ele>181</ele>
        <time>2012-02-05T09:32:02Z</time>
      </trkpt>
      <trkpt lat="45.7974" lon="4.99282">
        <ele>181</ele>
        <time>2012-02-05T09:32:03Z</time>
      </trkpt>
      <trkpt lat="45.79736" lon="4.99303">
        <ele>180</ele>
        <time>2012-02-05T09:32:09Z</time>
      </trkpt>
      <trkpt lat="45.79732" lon="4.99322">
        <ele>180</ele>
        <time>2012-02-05T09:32:14Z</time>
      </trkpt>
      <trkpt lat="45.7973" lon="4.99329">
        <ele>180</ele>
        <time>2012-02-05T09:32:16Z</time>
      </trkpt>
      <trkpt lat="45.79729" lon="4.9934">
        <ele>179</ele>
        <time>2012-02-05T09:32:19Z</time>
      </trkpt>
      <trkpt lat="45.79724" lon="4.99357">
        <ele>179</ele>
        <time>2012-02-05T09:32:23Z</time>
      </trkpt>
      <trkpt lat="45.79724" lon="4.99361">
        <ele>179</ele>
        <time>2012-02-05T09:32:24Z</time>
      </trkpt>
      <trkpt lat="45.79722" lon="4.9937">
        <ele>179</ele>
        <time>2012-02-05T09:32:28Z</time>
      </trkpt>
      <trkpt lat="45.79722" lon="4.9937">
        <ele>179</ele>
        <time>2012-02-05T09:32:29Z</time>
      </trkpt>
      <trkpt lat="45.79726" lon="4.99373">
        <ele>179</ele>
        <time>2012-02-05T09:32:43Z</time>
      </trkpt>
      <trkpt lat="45.79724" lon="4.99376">
        <ele>179</ele>
        <time>2012-02-05T09:32:45Z</time>
      </trkpt>
      <trkpt lat="45.79722" lon="4.99377">
        <ele>179</ele>
        <time>2012-02-05T09:32:47Z</time>
      </trkpt>
      <trkpt lat="45.7972" lon="4.99376">
        <ele>179</ele>
        <time>2012-02-05T09:32:49Z</time>
      </trkpt>
      <trkpt lat="45.7972" lon="4.99379">
        <ele>179</ele>
        <time>2012-02-05T09:32:54Z</time>
      </trkpt>
      <trkpt lat="45.79723" lon="4.99372">
        <ele>179</ele>
        <time>2012-02-05T09:33:06Z</time>
      </trkpt>
      <trkpt lat="45.7973" lon="4.99376">
        <ele>179</ele>
        <time>2012-02-05T09:33:09Z</time>
      </trkpt>
      <trkpt lat="45.7974" lon="4.99385">
        <ele>179</ele>
        <time>2012-02-05T09:33:14Z</time>
      </trkpt>
      <trkpt lat="45.79746" lon="4.99391">
        <ele>179</ele>
        <time>2012-02-05T09:33:17Z</time>
      </trkpt>
      <trkpt lat="45.79749" lon="4.99393">
        <ele>179</ele>
        <time>2012-02-05T09:33:18Z</time>
      </trkpt>
      <trkpt lat="45.79762" lon="4.99407">
        <ele>178</ele>
        <time>2012-02-05T09:33:24Z</time>
      </trkpt>
      <trkpt lat="45.79775" lon="4.99418">
        <ele>178</ele>
        <time>2012-02-05T09:33:29Z</time>
      </trkpt>
      <trkpt lat="45.7978" lon="4.99421">
        <ele>178</ele>
        <time>2012-02-05T09:33:31Z</time>
      </trkpt>
      <trkpt lat="45.79787" lon="4.99424">
        <ele>178</ele>
        <time>2012-02-05T09:33:34Z</time>
      </trkpt>
      <trkpt lat="45.79799" lon="4.99429">
        <ele>178</ele>
        <time>2012-02-05T09:33:39Z</time>
      </trkpt>
      <trkpt lat="45.79805" lon="4.99432">
        <ele>178</ele>
        <time>2012-02-05T09:33:41Z</time>
      </trkpt>
      <trkpt lat="45.79816" lon="4.99438">
        <ele>178</ele>
        <time>2012-02-05T09:33:45Z</time>
      </trkpt>
      <trkpt lat="45.79819" lon="4.99439">
        <ele>178</ele>
        <time>2012-02-05T09:33:46Z</time>
      </trkpt>
      <trkpt lat="45.79833" lon="4.99443">
        <ele>178</ele>
        <time>2012-02-05T09:33:51Z</time>
      </trkpt>
      <trkpt lat="45.79835" lon="4.99443">
        <ele>178</ele>
        <time>2012-02-05T09:33:52Z</time>
      </trkpt>
      <trkpt lat="45.79838" lon="4.99442">
        <ele>178</ele>
        <time>2012-02-05T09:33:56Z</time>
      </trkpt>
      <trkpt lat="45.79846" lon="4.99438">
        <ele>178</ele>
        <time>2012-02-05T09:34:02Z</time>
      </trkpt>
      <trkpt lat="45.79847" lon="4.9944">
        <ele>178</ele>
        <time>2012-02-05T09:34:03Z</time>
      </trkpt>
      <trkpt lat="45.79851" lon="4.99445">
        <ele>178</ele>
        <time>2012-02-05T09:34:07Z</time>
      </trkpt>
      <trkpt lat="45.79854" lon="4.9945">
        <ele>178</ele>
        <time>2012-02-05T09:34:10Z</time>
      </trkpt>
      <trkpt lat="45.79854" lon="4.99453">
        <ele>178</ele>
        <time>2012-02-05T09:34:14Z</time>
      </trkpt>
      <trkpt lat="45.79855" lon="4.99457">
        <ele>178</ele>
        <time>2012-02-05T09:34:21Z</time>
      </trkpt>
      <trkpt lat="45.79862" lon="4.99455">
        <ele>178</ele>
        <time>2012-02-05T09:34:40Z</time>
      </trkpt>
      <trkpt lat="45.79865" lon="4.99454">
        <ele>178</ele>
        <time>2012-02-05T09:34:42Z</time>
      </trkpt>
      <trkpt lat="45.79872" lon="4.99451">
        <ele>178</ele>
        <time>2012-02-05T09:34:48Z</time>
      </trkpt>
      <trkpt lat="45.7988" lon="4.99448">
        <ele>177</ele>
        <time>2012-02-05T09:34:55Z</time>
      </trkpt>
      <trkpt lat="45.79882" lon="4.99446">
        <ele>177</ele>
        <time>2012-02-05T09:34:58Z</time>
      </trkpt>
      <trkpt lat="45.79882" lon="4.99446">
        <ele>177</ele>
        <time>2012-02-05T09:35:01Z</time>
      </trkpt>
      <trkpt lat="45.79882" lon="4.99442">
        <ele>177</ele>
        <time>2012-02-05T09:35:57Z</time>
      </trkpt>
      <trkpt lat="45.79881" lon="4.99434">
        <ele>177</ele>
        <time>2012-02-05T09:35:59Z</time>
      </trkpt>
      <trkpt lat="45.79881" lon="4.99422">
        <ele>177</ele>
        <time>2012-02-05T09:36:02Z</time>
      </trkpt>
      <trkpt lat="45.79881" lon="4.99417">
        <ele>177</ele>
        <time>2012-02-05T09:36:03Z</time>
      </trkpt>
      <trkpt lat="45.79881" lon="4.99412">
        <ele>178</ele>
        <time>2012-02-05T09:36:04Z</time>
      </trkpt>
      <trkpt lat="45.79885" lon="4.99404">
        <ele>178</ele>
        <time>2012-02-05T09:36:07Z</time>
      </trkpt>
      <trkpt lat="45.79886" lon="4.99402">
        <ele>178</ele>
        <time>2012-02-05T09:36:08Z</time>
      </trkpt>
      <trkpt lat="45.79887" lon="4.99399">
        <ele>178</ele>
        <time>2012-02-05T09:36:09Z</time>
      </trkpt>
      <trkpt lat="45.79889" lon="4.99392">
        <ele>178</ele>
        <time>2012-02-05T09:36:11Z</time>
      </trkpt>
      <trkpt lat="45.79889" lon="4.99389">
        <ele>178</ele>
        <time>2012-02-05T09:36:12Z</time>
      </trkpt>
      <trkpt lat="45.79891" lon="4.99386">
        <ele>178</ele>
        <time>2012-02-05T09:36:14Z</time>
      </trkpt>
      <trkpt lat="45.79892" lon="4.99384">
        <ele>178</ele>
        <time>2012-02-05T09:36:16Z</time>
      </trkpt>
      <trkpt lat="45.79892" lon="4.99381">
        <ele>178</ele>
        <time>2012-02-05T09:36:19Z</time>
      </trkpt>
      <trkpt lat="45.79892" lon="4.99381">
        <ele>178</ele>
        <time>2012-02-05T09:36:21Z</time>
      </trkpt>
      <trkpt lat="45.79893" lon="4.9938">
        <ele>178</ele>
        <time>2012-02-05T09:36:38Z</time>
      </trkpt>
      <trkpt lat="45.799" lon="4.99379">
        <ele>178</ele>
        <time>2012-02-05T09:38:13Z</time>
      </trkpt>
      <trkpt lat="45.79903" lon="4.9938">
        <ele>178</ele>
        <time>2012-02-05T09:38:15Z</time>
      </trkpt>
      <trkpt lat="45.79906" lon="4.99381">
        <ele>177</ele>
        <time>2012-02-05T09:38:17Z</time>
      </trkpt>
      <trkpt lat="45.79912" lon="4.99385">
        <ele>177</ele>
        <time>2012-02-05T09:38:21Z</time>
      </trkpt>
      <trkpt lat="45.79913" lon="4.99386">
        <ele>177</ele>
        <time>2012-02-05T09:38:23Z</time>
      </trkpt>
      <trkpt lat="45.79915" lon="4.99388">
        <ele>177</ele>
        <time>2012-02-05T09:38:27Z</time>
      </trkpt>
      <trkpt lat="45.79917" lon="4.99391">
        <ele>177</ele>
        <time>2012-02-05T09:38:29Z</time>
      </trkpt>
      <trkpt lat="45.79921" lon="4.99398">
        <ele>177</ele>
        <time>2012-02-05T09:38:33Z</time>
      </trkpt>
      <trkpt lat="45.79928" lon="4.99404">
        <ele>177</ele>
        <time>2012-02-05T09:38:39Z</time>
      </trkpt>
      <trkpt lat="45.79933" lon="4.99406">
        <ele>177</ele>
        <time>2012-02-05T09:38:46Z</time>
      </trkpt>
      <trkpt lat="45.79938" lon="4.99407">
        <ele>177</ele>
        <time>2012-02-05T09:38:52Z</time>
      </trkpt>
      <trkpt lat="45.79949" lon="4.99411">
        <ele>177</ele>
        <time>2012-02-05T09:39:01Z</time>
      </trkpt>
      <trkpt lat="45.79957" lon="4.99414">
        <ele>177</ele>
        <time>2012-02-05T09:39:06Z</time>
      </trkpt>
      <trkpt lat="45.79959" lon="4.99416">
        <ele>177</ele>
        <time>2012-02-05T09:39:08Z</time>
      </trkpt>
      <trkpt lat="45.79958" lon="4.9942">
        <ele>177</ele>
        <time>2012-02-05T09:39:12Z</time>
      </trkpt>
      <trkpt lat="45.79956" lon="4.99433">
        <ele>177</ele>
        <time>2012-02-05T09:39:17Z</time>
      </trkpt>
      <trkpt lat="45.79955" lon="4.99439">
        <ele>177</ele>
        <time>2012-02-05T09:39:19Z</time>
      </trkpt>
      <trkpt lat="45.79955" lon="4.9944">
        <ele>177</ele>
        <time>2012-02-05T09:39:20Z</time>
      </trkpt>
      <trkpt lat="45.79953" lon="4.99446">
        <ele>177</ele>
        <time>2012-02-05T09:39:26Z</time>
      </trkpt>
      <trkpt lat="45.79951" lon="4.99464">
        <ele>177</ele>
        <time>2012-02-05T09:39:30Z</time>
      </trkpt>
      <trkpt lat="45.7995" lon="4.99468">
        <ele>177</ele>
        <time>2012-02-05T09:39:31Z</time>
      </trkpt>
      <trkpt lat="45.79947" lon="4.99491">
        <ele>177</ele>
        <time>2012-02-05T09:39:37Z</time>
      </trkpt>
      <trkpt lat="45.79933" lon="4.99509">
        <ele>177</ele>
        <time>2012-02-05T09:39:43Z</time>
      </trkpt>
      <trkpt lat="45.79918" lon="4.99527">
        <ele>177</ele>
        <time>2012-02-05T09:39:49Z</time>
      </trkpt>
      <trkpt lat="45.79903" lon="4.99542">
        <ele>177</ele>
        <time>2012-02-05T09:39:55Z</time>
      </trkpt>
      <trkpt lat="45.79892" lon="4.99556">
        <ele>177</ele>
        <time>2012-02-05T09:40:00Z</time>
      </trkpt>
      <trkpt lat="45.7989" lon="4.99559">
        <ele>177</ele>
        <time>2012-02-05T09:40:01Z</time>
      </trkpt>
      <trkpt lat="45.79884" lon="4.99567">
        <ele>177</ele>
        <time>2012-02-05T09:40:04Z</time>
      </trkpt>
      <trkpt lat="45.79883" lon="4.99568">
        <ele>177</ele>
        <time>2012-02-05T09:40:05Z</time>
      </trkpt>
      <trkpt lat="45.79879" lon="4.99576">
        <ele>177</ele>
        <time>2012-02-05T09:40:12Z</time>
      </trkpt>
      <trkpt lat="45.79877" lon="4.99579">
        <ele>177</ele>
        <time>2012-02-05T09:40:15Z</time>
      </trkpt>
      <trkpt lat="45.79874" lon="4.99585">
        <ele>178</ele>
        <time>2012-02-05T09:40:19Z</time>
      </trkpt>
      <trkpt lat="45.79867" lon="4.99595">
        <ele>178</ele>
        <time>2012-02-05T09:40:27Z</time>
      </trkpt>
      <trkpt lat="45.79864" lon="4.99598">
        <ele>178</ele>
        <time>2012-02-05T09:40:30Z</time>
      </trkpt>
      <trkpt lat="45.79857" lon="4.99607">
        <ele>178</ele>
        <time>2012-02-05T09:40:37Z</time>
      </trkpt>
      <trkpt lat="45.79851" lon="4.99615">
        <ele>178</ele>
        <time>2012-02-05T09:40:40Z</time>
      </trkpt>
      <trkpt lat="45.79848" lon="4.99618">
        <ele>178</ele>
        <time>2012-02-05T09:40:41Z</time>
      </trkpt>
      <trkpt lat="45.79837" lon="4.99633">
        <ele>177</ele>
        <time>2012-02-05T09:40:46Z</time>
      </trkpt>
      <trkpt lat="45.79824" lon="4.99646">
        <ele>177</ele>
        <time>2012-02-05T09:40:51Z</time>
      </trkpt>
      <trkpt lat="45.79821" lon="4.99648">
        <ele>177</ele>
        <time>2012-02-05T09:40:52Z</time>
      </trkpt>
      <trkpt lat="45.79812" lon="4.99659">
        <ele>177</ele>
        <time>2012-02-05T09:40:56Z</time>
      </trkpt>
      <trkpt lat="45.79805" lon="4.99665">
        <ele>177</ele>
        <time>2012-02-05T09:40:59Z</time>
      </trkpt>
      <trkpt lat="45.79801" lon="4.9967">
        <ele>177</ele>
        <time>2012-02-05T09:41:01Z</time>
      </trkpt>
      <trkpt lat="45.79796" lon="4.99677">
        <ele>177</ele>
        <time>2012-02-05T09:41:05Z</time>
      </trkpt>
      <trkpt lat="45.79793" lon="4.99684">
        <ele>177</ele>
        <time>2012-02-05T09:41:09Z</time>
      </trkpt>
      <trkpt lat="45.79791" lon="4.99689">
        <ele>177</ele>
        <time>2012-02-05T09:41:13Z</time>
      </trkpt>
      <trkpt lat="45.79793" lon="4.99695">
        <ele>177</ele>
        <time>2012-02-05T09:41:19Z</time>
      </trkpt>
      <trkpt lat="45.798" lon="4.99701">
        <ele>177</ele>
        <time>2012-02-05T09:41:25Z</time>
      </trkpt>
      <trkpt lat="45.79802" lon="4.99702">
        <ele>177</ele>
        <time>2012-02-05T09:41:26Z</time>
      </trkpt>
      <trkpt lat="45.79815" lon="4.99703">
        <ele>177</ele>
        <time>2012-02-05T09:41:30Z</time>
      </trkpt>
      <trkpt lat="45.7982" lon="4.99703">
        <ele>177</ele>
        <time>2012-02-05T09:41:32Z</time>
      </trkpt>
      <trkpt lat="45.79822" lon="4.99702">
        <ele>177</ele>
        <time>2012-02-05T09:41:34Z</time>
      </trkpt>
      <trkpt lat="45.79824" lon="4.99702">
        <ele>177</ele>
        <time>2012-02-05T09:41:36Z</time>
      </trkpt>
      <trkpt lat="45.79829" lon="4.99706">
        <ele>177</ele>
        <time>2012-02-05T09:41:39Z</time>
      </trkpt>
      <trkpt lat="45.79836" lon="4.99712">
        <ele>177</ele>
        <time>2012-02-05T09:41:46Z</time>
      </trkpt>
      <trkpt lat="45.79837" lon="4.99713">
        <ele>177</ele>
        <time>2012-02-05T09:41:47Z</time>
      </trkpt>
      <trkpt lat="45.79841" lon="4.99724">
        <ele>177</ele>
        <time>2012-02-05T09:41:51Z</time>
      </trkpt>
      <trkpt lat="45.79842" lon="4.99738">
        <ele>177</ele>
        <time>2012-02-05T09:41:54Z</time>
      </trkpt>
      <trkpt lat="45.79842" lon="4.99753">
        <ele>178</ele>
        <time>2012-02-05T09:41:57Z</time>
      </trkpt>
      <trkpt lat="45.79841" lon="4.99766">
        <ele>178</ele>
        <time>2012-02-05T09:42:00Z</time>
      </trkpt>
      <trkpt lat="45.79841" lon="4.99775">
        <ele>178</ele>
        <time>2012-02-05T09:42:02Z</time>
      </trkpt>
      <trkpt lat="45.7984" lon="4.99796">
        <ele>178</ele>
        <time>2012-02-05T09:42:07Z</time>
      </trkpt>
      <trkpt lat="45.79839" lon="4.99805">
        <ele>178</ele>
        <time>2012-02-05T09:42:09Z</time>
      </trkpt>
      <trkpt lat="45.79839" lon="4.99822">
        <ele>178</ele>
        <time>2012-02-05T09:42:13Z</time>
      </trkpt>
      <trkpt lat="45.79839" lon="4.99831">
        <ele>177</ele>
        <time>2012-02-05T09:42:15Z</time>
      </trkpt>
      <trkpt lat="45.79838" lon="4.99852">
        <ele>180</ele>
        <time>2012-02-05T09:42:20Z</time>
      </trkpt>
      <trkpt lat="45.79838" lon="4.99855">
        <ele>180</ele>
        <time>2012-02-05T09:42:21Z</time>
      </trkpt>
      <trkpt lat="45.79837" lon="4.9988">
        <ele>182</ele>
        <time>2012-02-05T09:42:27Z</time>
      </trkpt>
      <trkpt lat="45.79837" lon="4.999">
        <ele>182</ele>
        <time>2012-02-05T09:42:32Z</time>
      </trkpt>
      <trkpt lat="45.79836" lon="4.99908">
        <ele>183</ele>
        <time>2012-02-05T09:42:34Z</time>
      </trkpt>
      <trkpt lat="45.79833" lon="4.9992">
        <ele>183</ele>
        <time>2012-02-05T09:42:37Z</time>
      </trkpt>
      <trkpt lat="45.79832" lon="4.99936">
        <ele>184</ele>
        <time>2012-02-05T09:42:41Z</time>
      </trkpt>
      <trkpt lat="45.79833" lon="4.9994">
        <ele>184</ele>
        <time>2012-02-05T09:42:42Z</time>
      </trkpt>
      <trkpt lat="45.79834" lon="4.99957">
        <ele>184</ele>
        <time>2012-02-05T09:42:47Z</time>
      </trkpt>
      <trkpt lat="45.79836" lon="4.99962">
        <ele>184</ele>
        <time>2012-02-05T09:42:49Z</time>
      </trkpt>
      <trkpt lat="45.79837" lon="4.99965">
        <ele>184</ele>
        <time>2012-02-05T09:42:52Z</time>
      </trkpt>
      <trkpt lat="45.79837" lon="4.99967">
        <ele>184</ele>
        <time>2012-02-05T09:42:53Z</time>
      </trkpt>
      <trkpt lat="45.79835" lon="4.99972">
        <ele>184</ele>
        <time>2012-02-05T09:42:57Z</time>
      </trkpt>
      <trkpt lat="45.79835" lon="4.99972">
        <ele>184</ele>
        <time>2012-02-05T09:42:58Z</time>
      </trkpt>
      <trkpt lat="45.79832" lon="4.99978">
        <ele>185</ele>
        <time>2012-02-05T09:43:02Z</time>
      </trkpt>
      <trkpt lat="45.7983" lon="4.99986">
        <ele>185</ele>
        <time>2012-02-05T09:43:05Z</time>
      </trkpt>
      <trkpt lat="45.79831" lon="4.99989">
        <ele>185</ele>
        <time>2012-02-05T09:43:07Z</time>
      </trkpt>
      <trkpt lat="45.79832" lon="5.00001">
        <ele>185</ele>
        <time>2012-02-05T09:43:12Z</time>
      </trkpt>
      <trkpt lat="45.79829" lon="5.00009">
        <ele>185</ele>
        <time>2012-02-05T09:43:15Z</time>
      </trkpt>
      <trkpt lat="45.79827" lon="5.00012">
        <ele>186</ele>
        <time>2012-02-05T09:43:16Z</time>
      </trkpt>
      <trkpt lat="45.79826" lon="5.00015">
        <ele>186</ele>
        <time>2012-02-05T09:43:17Z</time>
      </trkpt>
      <trkpt lat="45.79821" lon="5.00026">
        <ele>186</ele>
        <time>2012-02-05T09:43:21Z</time>
      </trkpt>
      <trkpt lat="45.7982" lon="5.00032">
        <ele>186</ele>
        <time>2012-02-05T09:43:23Z</time>
      </trkpt>
      <trkpt lat="45.79818" lon="5.00044">
        <ele>186</ele>
        <time>2012-02-05T09:43:26Z</time>
      </trkpt>
      <trkpt lat="45.79815" lon="5.00056">
        <ele>186</ele>
        <time>2012-02-05T09:43:30Z</time>
      </trkpt>
      <trkpt lat="45.79815" lon="5.0006">
        <ele>186</ele>
        <time>2012-02-05T09:43:31Z</time>
      </trkpt>
      <trkpt lat="45.79815" lon="5.00067">
        <ele>186</ele>
        <time>2012-02-05T09:43:34Z</time>
      </trkpt>
      <trkpt lat="45.79815" lon="5.00072">
        <ele>186</ele>
        <time>2012-02-05T09:43:36Z</time>
      </trkpt>
      <trkpt lat="45.79811" lon="5.00081">
        <ele>186</ele>
        <time>2012-02-05T09:43:39Z</time>
      </trkpt>
      <trkpt lat="45.79808" lon="5.00086">
        <ele>186</ele>
        <time>2012-02-05T09:43:41Z</time>
      </trkpt>
      <trkpt lat="45.79804" lon="5.001">
        <ele>186</ele>
        <time>2012-02-05T09:43:46Z</time>
      </trkpt>
      <trkpt lat="45.79803" lon="5.00105">
        <ele>186</ele>
        <time>2012-02-05T09:43:48Z</time>
      </trkpt>
      <trkpt lat="45.79801" lon="5.00116">
        <ele>186</ele>
        <time>2012-02-05T09:43:51Z</time>
      </trkpt>
      <trkpt lat="45.79796" lon="5.00132">
        <ele>186</ele>
        <time>2012-02-05T09:43:56Z</time>
      </trkpt>
      <trkpt lat="45.79794" lon="5.00143">
        <ele>185</ele>
        <time>2012-02-05T09:44:01Z</time>
      </trkpt>
      <trkpt lat="45.79794" lon="5.00149">
        <ele>185</ele>
        <time>2012-02-05T09:44:05Z</time>
      </trkpt>
      <trkpt lat="45.79794" lon="5.0015">
        <ele>185</ele>
        <time>2012-02-05T09:44:06Z</time>
      </trkpt>
      <trkpt lat="45.79793" lon="5.00157">
        <ele>185</ele>
        <time>2012-02-05T09:44:09Z</time>
      </trkpt>
      <trkpt lat="45.79793" lon="5.00161">
        <ele>185</ele>
        <time>2012-02-05T09:44:10Z</time>
      </trkpt>
      <trkpt lat="45.79793" lon="5.00177">
        <ele>185</ele>
        <time>2012-02-05T09:44:14Z</time>
      </trkpt>
      <trkpt lat="45.79793" lon="5.00184">
        <ele>185</ele>
        <time>2012-02-05T09:44:16Z</time>
      </trkpt>
      <trkpt lat="45.79794" lon="5.00194">
        <ele>185</ele>
        <time>2012-02-05T09:44:20Z</time>
      </trkpt>
      <trkpt lat="45.79795" lon="5.00196">
        <ele>185</ele>
        <time>2012-02-05T09:44:23Z</time>
      </trkpt>
      <trkpt lat="45.79798" lon="5.00194">
        <ele>185</ele>
        <time>2012-02-05T09:44:26Z</time>
      </trkpt>
      <trkpt lat="45.79804" lon="5.0019">
        <ele>184</ele>
        <time>2012-02-05T09:44:31Z</time>
      </trkpt>
      <trkpt lat="45.79805" lon="5.00189">
        <ele>184</ele>
        <time>2012-02-05T09:44:32Z</time>
      </trkpt>
      <trkpt lat="45.79814" lon="5.00183">
        <ele>184</ele>
        <time>2012-02-05T09:44:36Z</time>
      </trkpt>
      <trkpt lat="45.79822" lon="5.00179">
        <ele>184</ele>
        <time>2012-02-05T09:44:39Z</time>
      </trkpt>
      <trkpt lat="45.79825" lon="5.00178">
        <ele>184</ele>
        <time>2012-02-05T09:44:40Z</time>
      </trkpt>
      <trkpt lat="45.7984" lon="5.00171">
        <ele>183</ele>
        <time>2012-02-05T09:44:46Z</time>
      </trkpt>
      <trkpt lat="45.79842" lon="5.00169">
        <ele>183</ele>
        <time>2012-02-05T09:44:47Z</time>
      </trkpt>
      <trkpt lat="45.79857" lon="5.00164">
        <ele>183</ele>
        <time>2012-02-05T09:44:53Z</time>
      </trkpt>
      <trkpt lat="45.79859" lon="5.00163">
        <ele>183</ele>
        <time>2012-02-05T09:44:54Z</time>
      </trkpt>
      <trkpt lat="45.79875" lon="5.00156">
        <ele>183</ele>
        <time>2012-02-05T09:45:01Z</time>
      </trkpt>
      <trkpt lat="45.79877" lon="5.00154">
        <ele>183</ele>
        <time>2012-02-05T09:45:02Z</time>
      </trkpt>
      <trkpt lat="45.79889" lon="5.00149">
        <ele>183</ele>
        <time>2012-02-05T09:45:07Z</time>
      </trkpt>
      <trkpt lat="45.79895" lon="5.00145">
        <ele>183</ele>
        <time>2012-02-05T09:45:10Z</time>
      </trkpt>
      <trkpt lat="45.79903" lon="5.0014">
        <ele>183</ele>
        <time>2012-02-05T09:45:14Z</time>
      </trkpt>
      <trkpt lat="45.79913" lon="5.00133">
        <ele>183</ele>
        <time>2012-02-05T09:45:18Z</time>
      </trkpt>
      <trkpt lat="45.79919" lon="5.0013">
        <ele>182</ele>
        <time>2012-02-05T09:45:20Z</time>
      </trkpt>
      <trkpt lat="45.79931" lon="5.00125">
        <ele>182</ele>
        <time>2012-02-05T09:45:25Z</time>
      </trkpt>
      <trkpt lat="45.79935" lon="5.00123">
        <ele>182</ele>
        <time>2012-02-05T09:45:27Z</time>
      </trkpt>
      <trkpt lat="45.79949" lon="5.00114">
        <ele>181</ele>
        <time>2012-02-05T09:45:33Z</time>
      </trkpt>
      <trkpt lat="45.79961" lon="5.0011">
        <ele>181</ele>
        <time>2012-02-05T09:45:38Z</time>
      </trkpt>
      <trkpt lat="45.79969" lon="5.00109">
        <ele>181</ele>
        <time>2012-02-05T09:45:41Z</time>
      </trkpt>
      <trkpt lat="45.79974" lon="5.00106">
        <ele>181</ele>
        <time>2012-02-05T09:45:43Z</time>
      </trkpt>
      <trkpt lat="45.79984" lon="5.00102">
        <ele>181</ele>
        <time>2012-02-05T09:45:47Z</time>
      </trkpt>
      <trkpt lat="45.79987" lon="5.00099">
        <ele>181</ele>
        <time>2012-02-05T09:45:49Z</time>
      </trkpt>
      <trkpt lat="45.79995" lon="5.00094">
        <ele>181</ele>
        <time>2012-02-05T09:45:52Z</time>
      </trkpt>
      <trkpt lat="45.80005" lon="5.00091">
        <ele>180</ele>
        <time>2012-02-05T09:45:57Z</time>
      </trkpt>
      <trkpt lat="45.80006" lon="5.0009">
        <ele>180</ele>
        <time>2012-02-05T09:45:58Z</time>
      </trkpt>
      <trkpt lat="45.80016" lon="5.00086">
        <ele>180</ele>
        <time>2012-02-05T09:46:06Z</time>
      </trkpt>
      <trkpt lat="45.80021" lon="5.00083">
        <ele>180</ele>
        <time>2012-02-05T09:46:10Z</time>
      </trkpt>
      <trkpt lat="45.80023" lon="5.00083">
        <ele>180</ele>
        <time>2012-02-05T09:46:11Z</time>
      </trkpt>
      <trkpt lat="45.80025" lon="5.00083">
        <ele>180</ele>
        <time>2012-02-05T09:46:13Z</time>
      </trkpt>
      <trkpt lat="45.80024" lon="5.00081">
        <ele>180</ele>
        <time>2012-02-05T09:46:16Z</time>
      </trkpt>
      <trkpt lat="45.80018" lon="5.00082">
        <ele>180</ele>
        <time>2012-02-05T09:46:19Z</time>
      </trkpt>
      <trkpt lat="45.80011" lon="5.00084">
        <ele>180</ele>
        <time>2012-02-05T09:46:21Z</time>
      </trkpt>
      <trkpt lat="45.80007" lon="5.00086">
        <ele>180</ele>
        <time>2012-02-05T09:46:22Z</time>
      </trkpt>
      <trkpt lat="45.80003" lon="5.00088">
        <ele>180</ele>
        <time>2012-02-05T09:46:23Z</time>
      </trkpt>
      <trkpt lat="45.79988" lon="5.00095">
        <ele>181</ele>
        <time>2012-02-05T09:46:27Z</time>
      </trkpt>
      <trkpt lat="45.79973" lon="5.00104">
        <ele>181</ele>
        <time>2012-02-05T09:46:31Z</time>
      </trkpt>
      <trkpt lat="45.79969" lon="5.00107">
        <ele>181</ele>
        <time>2012-02-05T09:46:32Z</time>
      </trkpt>
      <trkpt lat="45.79963" lon="5.00109">
        <ele>181</ele>
        <time>2012-02-05T09:46:34Z</time>
      </trkpt>
      <trkpt lat="45.7995" lon="5.00111">
        <ele>181</ele>
        <time>2012-02-05T09:46:38Z</time>
      </trkpt>
      <trkpt lat="45.79945" lon="5.00111">
        <ele>182</ele>
        <time>2012-02-05T09:46:42Z</time>
      </trkpt>
      <trkpt lat="45.79943" lon="5.00112">
        <ele>182</ele>
        <time>2012-02-05T09:46:50Z</time>
      </trkpt>
      <trkpt lat="45.79943" lon="5.00106">
        <ele>182</ele>
        <time>2012-02-05T09:46:55Z</time>
      </trkpt>
      <trkpt lat="45.79943" lon="5.00102">
        <ele>182</ele>
        <time>2012-02-05T09:46:57Z</time>
      </trkpt>
      <trkpt lat="45.79943" lon="5.00098">
        <ele>182</ele>
        <time>2012-02-05T09:46:59Z</time>
      </trkpt>
      <trkpt lat="45.79946" lon="5.00086">
        <ele>182</ele>
        <time>2012-02-05T09:47:03Z</time>
      </trkpt>
      <trkpt lat="45.79946" lon="5.00073">
        <ele>183</ele>
        <time>2012-02-05T09:47:07Z</time>
      </trkpt>
      <trkpt lat="45.79945" lon="5.00071">
        <ele>183</ele>
        <time>2012-02-05T09:47:08Z</time>
      </trkpt>
      <trkpt lat="45.79942" lon="5.00064">
        <ele>183</ele>
        <time>2012-02-05T09:47:12Z</time>
      </trkpt>
      <trkpt lat="45.79938" lon="5.00061">
        <ele>183</ele>
        <time>2012-02-05T09:47:14Z</time>
      </trkpt>
      <trkpt lat="45.79936" lon="5.00059">
        <ele>183</ele>
        <time>2012-02-05T09:47:16Z</time>
      </trkpt>
      <trkpt lat="45.79931" lon="5.00057">
        <ele>183</ele>
        <time>2012-02-05T09:47:20Z</time>
      </trkpt>
      <trkpt lat="45.79929" lon="5.00056">
        <ele>183</ele>
        <time>2012-02-05T09:47:21Z</time>
      </trkpt>
      <trkpt lat="45.79922" lon="5.0005">
        <ele>183</ele>
        <time>2012-02-05T09:47:26Z</time>
      </trkpt>
      <trkpt lat="45.79922" lon="5.00045">
        <ele>183</ele>
        <time>2012-02-05T09:47:29Z</time>
      </trkpt>
      <trkpt lat="45.79922" lon="5.00045">
        <ele>183</ele>
        <time>2012-02-05T09:47:30Z</time>
      </trkpt>
      <trkpt lat="45.79922" lon="5.00047">
        <ele>183</ele>
        <time>2012-02-05T09:47:34Z</time>
      </trkpt>
      <trkpt lat="45.79922" lon="5.0005">
        <ele>183</ele>
        <time>2012-02-05T09:47:36Z</time>
      </trkpt>
      <trkpt lat="45.79923" lon="5.00053">
        <ele>183</ele>
        <time>2012-02-05T09:47:38Z</time>
      </trkpt>
      <trkpt lat="45.79924" lon="5.00054">
        <ele>183</ele>
        <time>2012-02-05T09:47:39Z</time>
      </trkpt>
      <trkpt lat="45.79926" lon="5.00054">
        <ele>183</ele>
        <time>2012-02-05T09:47:41Z</time>
      </trkpt>
      <trkpt lat="45.79927" lon="5.00053">
        <ele>183</ele>
        <time>2012-02-05T09:47:42Z</time>
      </trkpt>
      <trkpt lat="45.79936" lon="5.00053">
        <ele>183</ele>
        <time>2012-02-05T09:47:49Z</time>
      </trkpt>
      <trkpt lat="45.79938" lon="5.00054">
        <ele>183</ele>
        <time>2012-02-05T09:47:50Z</time>
      </trkpt>
      <trkpt lat="45.79943" lon="5.0006">
        <ele>183</ele>
        <time>2012-02-05T09:47:52Z</time>
      </trkpt>
      <trkpt lat="45.79944" lon="5.00064">
        <ele>183</ele>
        <time>2012-02-05T09:47:53Z</time>
      </trkpt>
      <trkpt lat="45.79945" lon="5.00082">
        <ele>183</ele>
        <time>2012-02-05T09:47:57Z</time>
      </trkpt>
      <trkpt lat="45.79945" lon="5.00087">
        <ele>182</ele>
        <time>2012-02-05T09:47:58Z</time>
      </trkpt>
      <trkpt lat="45.79947" lon="5.00104">
        <ele>182</ele>
        <time>2012-02-05T09:48:02Z</time>
      </trkpt>
      <trkpt lat="45.79949" lon="5.00106">
        <ele>182</ele>
        <time>2012-02-05T09:48:03Z</time>
      </trkpt>
      <trkpt lat="45.79955" lon="5.00108">
        <ele>181</ele>
        <time>2012-02-05T09:48:05Z</time>
      </trkpt>
      <trkpt lat="45.79957" lon="5.00108">
        <ele>181</ele>
        <time>2012-02-05T09:48:06Z</time>
      </trkpt>
      <trkpt lat="45.79966" lon="5.00106">
        <ele>181</ele>
        <time>2012-02-05T09:48:09Z</time>
      </trkpt>
      <trkpt lat="45.79971" lon="5.00104">
        <ele>181</ele>
        <time>2012-02-05T09:48:11Z</time>
      </trkpt>
      <trkpt lat="45.79974" lon="5.00102">
        <ele>181</ele>
        <time>2012-02-05T09:48:12Z</time>
      </trkpt>
      <trkpt lat="45.79984" lon="5.00099">
        <ele>181</ele>
        <time>2012-02-05T09:48:16Z</time>
      </trkpt>
      <trkpt lat="45.79993" lon="5.00092">
        <ele>181</ele>
        <time>2012-02-05T09:48:20Z</time>
      </trkpt>
      <trkpt lat="45.79998" lon="5.0009">
        <ele>181</ele>
        <time>2012-02-05T09:48:22Z</time>
      </trkpt>
      <trkpt lat="45.8001" lon="5.00086">
        <ele>180</ele>
        <time>2012-02-05T09:48:28Z</time>
      </trkpt>
      <trkpt lat="45.80011" lon="5.00085">
        <ele>180</ele>
        <time>2012-02-05T09:48:29Z</time>
      </trkpt>
      <trkpt lat="45.80025" lon="5.00079">
        <ele>180</ele>
        <time>2012-02-05T09:48:36Z</time>
      </trkpt>
      <trkpt lat="45.80029" lon="5.00075">
        <ele>180</ele>
        <time>2012-02-05T09:48:38Z</time>
      </trkpt>
      <trkpt lat="45.80032" lon="5.00069">
        <ele>180</ele>
        <time>2012-02-05T09:48:40Z</time>
      </trkpt>
      <trkpt lat="45.80035" lon="5.00051">
        <ele>180</ele>
        <time>2012-02-05T09:48:46Z</time>
      </trkpt>
      <trkpt lat="45.80035" lon="5.00049">
        <ele>180</ele>
        <time>2012-02-05T09:48:47Z</time>
      </trkpt>
      <trkpt lat="45.80035" lon="5.00036">
        <ele>180</ele>
        <time>2012-02-05T09:48:51Z</time>
      </trkpt>
      <trkpt lat="45.80037" lon="5.00021">
        <ele>180</ele>
        <time>2012-02-05T09:48:55Z</time>
      </trkpt>
      <trkpt lat="45.80037" lon="5.00018">
        <ele>180</ele>
        <time>2012-02-05T09:48:56Z</time>
      </trkpt>
      <trkpt lat="45.80037" lon="5.00016">
        <ele>180</ele>
        <time>2012-02-05T09:48:57Z</time>
      </trkpt>
      <trkpt lat="45.80038" lon="5.00006">
        <ele>180</ele>
        <time>2012-02-05T09:49:02Z</time>
      </trkpt>
      <trkpt lat="45.80038" lon="5.00002">
        <ele>180</ele>
        <time>2012-02-05T09:49:03Z</time>
      </trkpt>
      <trkpt lat="45.80038" lon="4.99998">
        <ele>181</ele>
        <time>2012-02-05T09:49:05Z</time>
      </trkpt>
      <trkpt lat="45.80036" lon="4.99995">
        <ele>181</ele>
        <time>2012-02-05T09:49:06Z</time>
      </trkpt>
      <trkpt lat="45.80034" lon="4.99995">
        <ele>181</ele>
        <time>2012-02-05T09:49:07Z</time>
      </trkpt>
      <trkpt lat="45.80029" lon="4.99996">
        <ele>182</ele>
        <time>2012-02-05T09:49:12Z</time>
      </trkpt>
      <trkpt lat="45.80031" lon="4.99996">
        <ele>181</ele>
        <time>2012-02-05T09:49:21Z</time>
      </trkpt>
      <trkpt lat="45.80036" lon="4.99996">
        <ele>181</ele>
        <time>2012-02-05T09:49:24Z</time>
      </trkpt>
      <trkpt lat="45.80037" lon="4.99997">
        <ele>181</ele>
        <time>2012-02-05T09:49:25Z</time>
      </trkpt>
      <trkpt lat="45.80036" lon="4.99998">
        <ele>181</ele>
        <time>2012-02-05T09:49:26Z</time>
      </trkpt>
      <trkpt lat="45.80036" lon="5.00005">
        <ele>180</ele>
        <time>2012-02-05T09:49:30Z</time>
      </trkpt>
      <trkpt lat="45.80036" lon="5.00009">
        <ele>180</ele>
        <time>2012-02-05T09:49:35Z</time>
      </trkpt>
      <trkpt lat="45.80036" lon="5.00021">
        <ele>180</ele>
        <time>2012-02-05T09:49:42Z</time>
      </trkpt>
      <trkpt lat="45.80036" lon="5.00021">
        <ele>180</ele>
        <time>2012-02-05T09:49:43Z</time>
      </trkpt>
      <trkpt lat="45.80037" lon="5.00026">
        <ele>180</ele>
        <time>2012-02-05T09:49:47Z</time>
      </trkpt>
      <trkpt lat="45.80036" lon="5.00029">
        <ele>180</ele>
        <time>2012-02-05T09:49:49Z</time>
      </trkpt>
      <trkpt lat="45.80034" lon="5.00036">
        <ele>180</ele>
        <time>2012-02-05T09:49:54Z</time>
      </trkpt>
      <trkpt lat="45.80035" lon="5.00045">
        <ele>180</ele>
        <time>2012-02-05T09:49:57Z</time>
      </trkpt>
      <trkpt lat="45.80035" lon="5.00047">
        <ele>180</ele>
        <time>2012-02-05T09:49:58Z</time>
      </trkpt>
      <trkpt lat="45.80038" lon="5.00047">
        <ele>180</ele>
        <time>2012-02-05T09:50:01Z</time>
      </trkpt>
      <trkpt lat="45.80038" lon="5.00046">
        <ele>180</ele>
        <time>2012-02-05T09:50:02Z</time>
      </trkpt>
      <trkpt lat="45.80039" lon="5.00054">
        <ele>180</ele>
        <time>2012-02-05T09:50:10Z</time>
      </trkpt>
      <trkpt lat="45.8005" lon="5.00061">
        <ele>179</ele>
        <time>2012-02-05T09:50:15Z</time>
      </trkpt>
      <trkpt lat="45.80062" lon="5.00055">
        <ele>179</ele>
        <time>2012-02-05T09:50:19Z</time>
      </trkpt>
      <trkpt lat="45.80069" lon="5.00052">
        <ele>179</ele>
        <time>2012-02-05T09:50:23Z</time>
      </trkpt>
      <trkpt lat="45.8007" lon="5.00051">
        <ele>179</ele>
        <time>2012-02-05T09:50:24Z</time>
      </trkpt>
      <trkpt lat="45.80079" lon="5.00046">
        <ele>179</ele>
        <time>2012-02-05T09:50:32Z</time>
      </trkpt>
      <trkpt lat="45.80086" lon="5.00042">
        <ele>177</ele>
        <time>2012-02-05T09:50:36Z</time>
      </trkpt>
      <trkpt lat="45.80091" lon="5.00039">
        <ele>177</ele>
        <time>2012-02-05T09:50:38Z</time>
      </trkpt>
      <trkpt lat="45.80103" lon="5.00035">
        <ele>177</ele>
        <time>2012-02-05T09:50:42Z</time>
      </trkpt>
      <trkpt lat="45.80108" lon="5.00033">
        <ele>177</ele>
        <time>2012-02-05T09:50:44Z</time>
      </trkpt>
      <trkpt lat="45.8011" lon="5.0003">
        <ele>177</ele>
        <time>2012-02-05T09:50:45Z</time>
      </trkpt>
      <trkpt lat="45.80114" lon="5.00021">
        <ele>177</ele>
        <time>2012-02-05T09:50:48Z</time>
      </trkpt>
      <trkpt lat="45.80116" lon="5.00019">
        <ele>177</ele>
        <time>2012-02-05T09:50:49Z</time>
      </trkpt>
      <trkpt lat="45.80118" lon="5.00018">
        <ele>177</ele>
        <time>2012-02-05T09:50:50Z</time>
      </trkpt>
      <trkpt lat="45.80128" lon="5.00011">
        <ele>177</ele>
        <time>2012-02-05T09:50:54Z</time>
      </trkpt>
      <trkpt lat="45.80133" lon="5.00006">
        <ele>177</ele>
        <time>2012-02-05T09:50:56Z</time>
      </trkpt>
      <trkpt lat="45.80136" lon="5.00002">
        <ele>177</ele>
        <time>2012-02-05T09:50:58Z</time>
      </trkpt>
      <trkpt lat="45.80137" lon="4.99998">
        <ele>177</ele>
        <time>2012-02-05T09:51:00Z</time>
      </trkpt>
      <trkpt lat="45.80135" lon="4.99994">
        <ele>177</ele>
        <time>2012-02-05T09:51:02Z</time>
      </trkpt>
      <trkpt lat="45.80132" lon="4.99985">
        <ele>177</ele>
        <time>2012-02-05T09:51:05Z</time>
      </trkpt>
      <trkpt lat="45.80132" lon="4.99981">
        <ele>177</ele>
        <time>2012-02-05T09:51:06Z</time>
      </trkpt>
      <trkpt lat="45.80131" lon="4.9997">
        <ele>177</ele>
        <time>2012-02-05T09:51:11Z</time>
      </trkpt>
      <trkpt lat="45.80131" lon="4.99965">
        <ele>177</ele>
        <time>2012-02-05T09:51:14Z</time>
      </trkpt>
      <trkpt lat="45.80132" lon="4.99965">
        <ele>177</ele>
        <time>2012-02-05T09:51:17Z</time>
      </trkpt>
      <trkpt lat="45.80129" lon="4.99966">
        <ele>177</ele>
        <time>2012-02-05T09:51:26Z</time>
      </trkpt>
      <trkpt lat="45.8013" lon="4.99968">
        <ele>177</ele>
        <time>2012-02-05T09:51:30Z</time>
      </trkpt>
      <trkpt lat="45.80131" lon="4.99969">
        <ele>177</ele>
        <time>2012-02-05T09:51:31Z</time>
      </trkpt>
      <trkpt lat="45.80132" lon="4.99973">
        <ele>177</ele>
        <time>2012-02-05T09:51:35Z</time>
      </trkpt>
      <trkpt lat="45.80132" lon="4.99975">
        <ele>177</ele>
        <time>2012-02-05T09:51:37Z</time>
      </trkpt>
      <trkpt lat="45.80132" lon="4.99983">
        <ele>177</ele>
        <time>2012-02-05T09:51:42Z</time>
      </trkpt>
      <trkpt lat="45.80133" lon="4.99986">
        <ele>177</ele>
        <time>2012-02-05T09:51:43Z</time>
      </trkpt>
      <trkpt lat="45.80136" lon="4.99994">
        <ele>177</ele>
        <time>2012-02-05T09:51:45Z</time>
      </trkpt>
      <trkpt lat="45.80137" lon="4.99997">
        <ele>177</ele>
        <time>2012-02-05T09:51:47Z</time>
      </trkpt>
      <trkpt lat="45.80135" lon="5.00001">
        <ele>177</ele>
        <time>2012-02-05T09:51:52Z</time>
      </trkpt>
      <trkpt lat="45.80128" lon="5.00011">
        <ele>177</ele>
        <time>2012-02-05T09:51:56Z</time>
      </trkpt>
      <trkpt lat="45.80127" lon="5.00015">
        <ele>177</ele>
        <time>2012-02-05T09:51:58Z</time>
      </trkpt>
      <trkpt lat="45.80128" lon="5.00018">
        <ele>177</ele>
        <time>2012-02-05T09:52:00Z</time>
      </trkpt>
      <trkpt lat="45.80135" lon="5.00021">
        <ele>177</ele>
        <time>2012-02-05T09:52:05Z</time>
      </trkpt>
      <trkpt lat="45.80143" lon="5.00017">
        <ele>177</ele>
        <time>2012-02-05T09:52:08Z</time>
      </trkpt>
      <trkpt lat="45.80145" lon="5.00016">
        <ele>177</ele>
        <time>2012-02-05T09:52:09Z</time>
      </trkpt>
      <trkpt lat="45.80151" lon="5.00013">
        <ele>177</ele>
        <time>2012-02-05T09:52:11Z</time>
      </trkpt>
      <trkpt lat="45.80161" lon="5.00008">
        <ele>177</ele>
        <time>2012-02-05T09:52:15Z</time>
      </trkpt>
      <trkpt lat="45.80167" lon="5.00007">
        <ele>177</ele>
        <time>2012-02-05T09:52:17Z</time>
      </trkpt>
      <trkpt lat="45.8018" lon="4.99999">
        <ele>177</ele>
        <time>2012-02-05T09:52:22Z</time>
      </trkpt>
      <trkpt lat="45.80183" lon="4.99996">
        <ele>177</ele>
        <time>2012-02-05T09:52:23Z</time>
      </trkpt>
      <trkpt lat="45.80196" lon="4.99987">
        <ele>178</ele>
        <time>2012-02-05T09:52:28Z</time>
      </trkpt>
      <trkpt lat="45.80199" lon="4.99986">
        <ele>178</ele>
        <time>2012-02-05T09:52:29Z</time>
      </trkpt>
      <trkpt lat="45.80211" lon="4.9998">
        <ele>178</ele>
        <time>2012-02-05T09:52:33Z</time>
      </trkpt>
      <trkpt lat="45.80216" lon="4.99977">
        <ele>178</ele>
        <time>2012-02-05T09:52:35Z</time>
      </trkpt>
      <trkpt lat="45.80224" lon="4.99972">
        <ele>178</ele>
        <time>2012-02-05T09:52:38Z</time>
      </trkpt>
      <trkpt lat="45.80234" lon="4.99965">
        <ele>178</ele>
        <time>2012-02-05T09:52:42Z</time>
      </trkpt>
      <trkpt lat="45.80239" lon="4.99962">
        <ele>178</ele>
        <time>2012-02-05T09:52:44Z</time>
      </trkpt>
      <trkpt lat="45.80252" lon="4.99956">
        <ele>178</ele>
        <time>2012-02-05T09:52:49Z</time>
      </trkpt>
      <trkpt lat="45.80259" lon="4.99952">
        <ele>178</ele>
        <time>2012-02-05T09:52:52Z</time>
      </trkpt>
      <trkpt lat="45.80271" lon="4.99946">
        <ele>178</ele>
        <time>2012-02-05T09:52:56Z</time>
      </trkpt>
      <trkpt lat="45.80277" lon="4.99944">
        <ele>178</ele>
        <time>2012-02-05T09:52:58Z</time>
      </trkpt>
      <trkpt lat="45.8029" lon="4.99937">
        <ele>178</ele>
        <time>2012-02-05T09:53:03Z</time>
      </trkpt>
      <trkpt lat="45.80296" lon="4.99935">
        <ele>177</ele>
        <time>2012-02-05T09:53:05Z</time>
      </trkpt>
      <trkpt lat="45.80309" lon="4.99929">
        <ele>177</ele>
        <time>2012-02-05T09:53:10Z</time>
      </trkpt>
      <trkpt lat="45.80312" lon="4.99928">
        <ele>177</ele>
        <time>2012-02-05T09:53:11Z</time>
      </trkpt>
      <trkpt lat="45.80325" lon="4.99932">
        <ele>177</ele>
        <time>2012-02-05T09:53:17Z</time>
      </trkpt>
      <trkpt lat="45.80327" lon="4.99934">
        <ele>177</ele>
        <time>2012-02-05T09:53:18Z</time>
      </trkpt>
      <trkpt lat="45.80328" lon="4.99945">
        <ele>177</ele>
        <time>2012-02-05T09:53:22Z</time>
      </trkpt>
      <trkpt lat="45.80325" lon="4.99961">
        <ele>177</ele>
        <time>2012-02-05T09:53:27Z</time>
      </trkpt>
      <trkpt lat="45.80323" lon="4.99986">
        <ele>177</ele>
        <time>2012-02-05T09:53:33Z</time>
      </trkpt>
      <trkpt lat="45.80323" lon="4.9999">
        <ele>177</ele>
        <time>2012-02-05T09:53:34Z</time>
      </trkpt>
      <trkpt lat="45.80321" lon="5.00019">
        <ele>177</ele>
        <time>2012-02-05T09:53:41Z</time>
      </trkpt>
      <trkpt lat="45.8032" lon="5.00045">
        <ele>178</ele>
        <time>2012-02-05T09:53:47Z</time>
      </trkpt>
      <trkpt lat="45.8032" lon="5.00049">
        <ele>178</ele>
        <time>2012-02-05T09:53:48Z</time>
      </trkpt>
      <trkpt lat="45.80319" lon="5.00065">
        <ele>177</ele>
        <time>2012-02-05T09:53:52Z</time>
      </trkpt>
      <trkpt lat="45.80318" lon="5.00078">
        <ele>177</ele>
        <time>2012-02-05T09:53:55Z</time>
      </trkpt>
      <trkpt lat="45.80314" lon="5.00098">
        <ele>178</ele>
        <time>2012-02-05T09:54:00Z</time>
      </trkpt>
      <trkpt lat="45.80313" lon="5.00102">
        <ele>178</ele>
        <time>2012-02-05T09:54:01Z</time>
      </trkpt>
      <trkpt lat="45.80308" lon="5.00117">
        <ele>178</ele>
        <time>2012-02-05T09:54:05Z</time>
      </trkpt>
      <trkpt lat="45.80303" lon="5.00127">
        <ele>178</ele>
        <time>2012-02-05T09:54:08Z</time>
      </trkpt>
      <trkpt lat="45.80301" lon="5.00129">
        <ele>178</ele>
        <time>2012-02-05T09:54:09Z</time>
      </trkpt>
      <trkpt lat="45.80298" lon="5.00131">
        <ele>178</ele>
        <time>2012-02-05T09:54:10Z</time>
      </trkpt>
      <trkpt lat="45.80292" lon="5.00139">
        <ele>178</ele>
        <time>2012-02-05T09:54:14Z</time>
      </trkpt>
      <trkpt lat="45.80289" lon="5.00143">
        <ele>178</ele>
        <time>2012-02-05T09:54:17Z</time>
      </trkpt>
      <trkpt lat="45.80284" lon="5.00145">
        <ele>178</ele>
        <time>2012-02-05T09:54:20Z</time>
      </trkpt>
      <trkpt lat="45.8028" lon="5.00139">
        <ele>178</ele>
        <time>2012-02-05T09:54:24Z</time>
      </trkpt>
      <trkpt lat="45.80279" lon="5.00137">
        <ele>178</ele>
        <time>2012-02-05T09:54:25Z</time>
      </trkpt>
      <trkpt lat="45.80277" lon="5.00134">
        <ele>178</ele>
        <time>2012-02-05T09:54:28Z</time>
      </trkpt>
      <trkpt lat="45.80275" lon="5.00134">
        <ele>178</ele>
        <time>2012-02-05T09:54:30Z</time>
      </trkpt>
      <trkpt lat="45.8027" lon="5.0013">
        <ele>178</ele>
        <time>2012-02-05T09:54:34Z</time>
      </trkpt>
      <trkpt lat="45.80269" lon="5.00125">
        <ele>178</ele>
        <time>2012-02-05T09:54:38Z</time>
      </trkpt>
      <trkpt lat="45.80269" lon="5.00125">
        <ele>178</ele>
        <time>2012-02-05T09:54:39Z</time>
      </trkpt>
      <trkpt lat="45.80265" lon="5.00128">
        <ele>178</ele>
        <time>2012-02-05T09:54:51Z</time>
      </trkpt>
      <trkpt lat="45.80261" lon="5.00126">
        <ele>178</ele>
        <time>2012-02-05T09:54:54Z</time>
      </trkpt>
      <trkpt lat="45.8026" lon="5.00123">
        <ele>178</ele>
        <time>2012-02-05T09:54:56Z</time>
      </trkpt>
      <trkpt lat="45.80259" lon="5.0012">
        <ele>178</ele>
        <time>2012-02-05T09:55:01Z</time>
      </trkpt>
      <trkpt lat="45.8026" lon="5.00119">
        <ele>178</ele>
        <time>2012-02-05T09:55:06Z</time>
      </trkpt>
      <trkpt lat="45.8026" lon="5.00127">
        <ele>178</ele>
        <time>2012-02-05T09:55:14Z</time>
      </trkpt>
      <trkpt lat="45.80259" lon="5.00135">
        <ele>179</ele>
        <time>2012-02-05T09:55:18Z</time>
      </trkpt>
      <trkpt lat="45.8026" lon="5.00141">
        <ele>179</ele>
        <time>2012-02-05T09:55:21Z</time>
      </trkpt>
      <trkpt lat="45.8026" lon="5.00143">
        <ele>179</ele>
        <time>2012-02-05T09:55:22Z</time>
      </trkpt>
      <trkpt lat="45.80258" lon="5.00151">
        <ele>179</ele>
        <time>2012-02-05T09:55:26Z</time>
      </trkpt>
      <trkpt lat="45.80257" lon="5.00158">
        <ele>179</ele>
        <time>2012-02-05T09:55:31Z</time>
      </trkpt>
      <trkpt lat="45.80259" lon="5.00161">
        <ele>179</ele>
        <time>2012-02-05T09:55:34Z</time>
      </trkpt>
      <trkpt lat="45.8026" lon="5.00163">
        <ele>179</ele>
        <time>2012-02-05T09:55:35Z</time>
      </trkpt>
      <trkpt lat="45.80263" lon="5.00168">
        <ele>179</ele>
        <time>2012-02-05T09:55:39Z</time>
      </trkpt>
      <trkpt lat="45.80265" lon="5.00169">
        <ele>179</ele>
        <time>2012-02-05T09:55:41Z</time>
      </trkpt>
      <trkpt lat="45.80268" lon="5.00169">
        <ele>179</ele>
        <time>2012-02-05T09:55:43Z</time>
      </trkpt>
      <trkpt lat="45.80272" lon="5.00166">
        <ele>179</ele>
        <time>2012-02-05T09:55:46Z</time>
      </trkpt>
      <trkpt lat="45.80275" lon="5.00163">
        <ele>179</ele>
        <time>2012-02-05T09:55:48Z</time>
      </trkpt>
      <trkpt lat="45.80276" lon="5.00161">
        <ele>179</ele>
        <time>2012-02-05T09:55:49Z</time>
      </trkpt>
      <trkpt lat="45.80278" lon="5.00158">
        <ele>178</ele>
        <time>2012-02-05T09:55:54Z</time>
      </trkpt>
      <trkpt lat="45.80279" lon="5.00156">
        <ele>178</ele>
        <time>2012-02-05T09:55:56Z</time>
      </trkpt>
      <trkpt lat="45.80282" lon="5.00151">
        <ele>178</ele>
        <time>2012-02-05T09:55:58Z</time>
      </trkpt>
      <trkpt lat="45.80285" lon="5.00146">
        <ele>178</ele>
        <time>2012-02-05T09:56:00Z</time>
      </trkpt>
      <trkpt lat="45.80283" lon="5.00142">
        <ele>178</ele>
        <time>2012-02-05T09:56:02Z</time>
      </trkpt>
      <trkpt lat="45.80282" lon="5.00141">
        <ele>178</ele>
        <time>2012-02-05T09:56:06Z</time>
      </trkpt>
      <trkpt lat="45.80288" lon="5.0014">
        <ele>178</ele>
        <time>2012-02-05T09:56:10Z</time>
      </trkpt>
      <trkpt lat="45.80294" lon="5.00131">
        <ele>178</ele>
        <time>2012-02-05T09:56:14Z</time>
      </trkpt>
      <trkpt lat="45.80295" lon="5.00129">
        <ele>178</ele>
        <time>2012-02-05T09:56:19Z</time>
      </trkpt>
      <trkpt lat="45.80292" lon="5.00136">
        <ele>178</ele>
        <time>2012-02-05T09:56:23Z</time>
      </trkpt>
      <trkpt lat="45.80286" lon="5.00143">
        <ele>178</ele>
        <time>2012-02-05T09:56:29Z</time>
      </trkpt>
      <trkpt lat="45.80285" lon="5.00143">
        <ele>178</ele>
        <time>2012-02-05T09:56:30Z</time>
      </trkpt>
      <trkpt lat="45.80284" lon="5.00143">
        <ele>178</ele>
        <time>2012-02-05T09:56:32Z</time>
      </trkpt>
      <trkpt lat="45.80282" lon="5.00138">
        <ele>178</ele>
        <time>2012-02-05T09:56:34Z</time>
      </trkpt>
      <trkpt lat="45.80274" lon="5.00131">
        <ele>178</ele>
        <time>2012-02-05T09:56:38Z</time>
      </trkpt>
      <trkpt lat="45.8027" lon="5.00128">
        <ele>178</ele>
        <time>2012-02-05T09:56:40Z</time>
      </trkpt>
      <trkpt lat="45.80269" lon="5.00125">
        <ele>178</ele>
        <time>2012-02-05T09:56:42Z</time>
      </trkpt>
      <trkpt lat="45.80268" lon="5.0012">
        <ele>178</ele>
        <time>2012-02-05T09:56:44Z</time>
      </trkpt>
      <trkpt lat="45.80266" lon="5.00116">
        <ele>178</ele>
        <time>2012-02-05T09:56:47Z</time>
      </trkpt>
      <trkpt lat="45.80266" lon="5.00117">
        <ele>178</ele>
        <time>2012-02-05T09:56:48Z</time>
      </trkpt>
      <trkpt lat="45.80261" lon="5.0012">
        <ele>178</ele>
        <time>2012-02-05T09:56:52Z</time>
      </trkpt>
      <trkpt lat="45.80259" lon="5.00117">
        <ele>179</ele>
        <time>2012-02-05T09:56:54Z</time>
      </trkpt>
      <trkpt lat="45.80258" lon="5.00115">
        <ele>179</ele>
        <time>2012-02-05T09:56:56Z</time>
      </trkpt>
      <trkpt lat="45.80258" lon="5.00112">
        <ele>179</ele>
        <time>2012-02-05T09:56:59Z</time>
      </trkpt>
      <trkpt lat="45.80258" lon="5.00111">
        <ele>179</ele>
        <time>2012-02-05T09:57:00Z</time>
      </trkpt>
      <trkpt lat="45.80262" lon="5.00107">
        <ele>179</ele>
        <time>2012-02-05T09:57:05Z</time>
      </trkpt>
      <trkpt lat="45.80263" lon="5.00105">
        <ele>179</ele>
        <time>2012-02-05T09:57:07Z</time>
      </trkpt>
      <trkpt lat="45.80263" lon="5.00103">
        <ele>179</ele>
        <time>2012-02-05T09:57:11Z</time>
      </trkpt>
      <trkpt lat="45.80264" lon="5.001">
        <ele>179</ele>
        <time>2012-02-05T09:57:15Z</time>
      </trkpt>
      <trkpt lat="45.80267" lon="5.00102">
        <ele>179</ele>
        <time>2012-02-05T09:57:19Z</time>
      </trkpt>
      <trkpt lat="45.80268" lon="5.00103">
        <ele>178</ele>
        <time>2012-02-05T09:57:20Z</time>
      </trkpt>
      <trkpt lat="45.80275" lon="5.00107">
        <ele>178</ele>
        <time>2012-02-05T09:57:26Z</time>
      </trkpt>
      <trkpt lat="45.80278" lon="5.0011">
        <ele>178</ele>
        <time>2012-02-05T09:57:31Z</time>
      </trkpt>
      <trkpt lat="45.80284" lon="5.00111">
        <ele>178</ele>
        <time>2012-02-05T09:57:35Z</time>
      </trkpt>
      <trkpt lat="45.80285" lon="5.00111">
        <ele>178</ele>
        <time>2012-02-05T09:57:36Z</time>
      </trkpt>
      <trkpt lat="45.80287" lon="5.00114">
        <ele>178</ele>
        <time>2012-02-05T09:57:39Z</time>
      </trkpt>
      <trkpt lat="45.80289" lon="5.00118">
        <ele>178</ele>
        <time>2012-02-05T09:57:42Z</time>
      </trkpt>
      <trkpt lat="45.8029" lon="5.00118">
        <ele>178</ele>
        <time>2012-02-05T09:57:43Z</time>
      </trkpt>
      <trkpt lat="45.80296" lon="5.0012">
        <ele>178</ele>
        <time>2012-02-05T09:57:49Z</time>
      </trkpt>
      <trkpt lat="45.80297" lon="5.00121">
        <ele>178</ele>
        <time>2012-02-05T09:57:51Z</time>
      </trkpt>
      <trkpt lat="45.80298" lon="5.00122">
        <ele>178</ele>
        <time>2012-02-05T09:57:54Z</time>
      </trkpt>
      <trkpt lat="45.80299" lon="5.00123">
        <ele>178</ele>
        <time>2012-02-05T09:57:55Z</time>
      </trkpt>
      <trkpt lat="45.803" lon="5.00124">
        <ele>178</ele>
        <time>2012-02-05T09:57:56Z</time>
      </trkpt>
      <trkpt lat="45.80299" lon="5.00129">
        <ele>178</ele>
        <time>2012-02-05T09:57:59Z</time>
      </trkpt>
      <trkpt lat="45.80297" lon="5.00132">
        <ele>178</ele>
        <time>2012-02-05T09:58:01Z</time>
      </trkpt>
      <trkpt lat="45.80293" lon="5.00137">
        <ele>178</ele>
        <time>2012-02-05T09:58:05Z</time>
      </trkpt>
      <trkpt lat="45.80289" lon="5.00142">
        <ele>178</ele>
        <time>2012-02-05T09:58:11Z</time>
      </trkpt>
      <trkpt lat="45.80288" lon="5.00142">
        <ele>178</ele>
        <time>2012-02-05T09:58:12Z</time>
      </trkpt>
      <trkpt lat="45.80282" lon="5.00145">
        <ele>178</ele>
        <time>2012-02-05T09:58:18Z</time>
      </trkpt>
      <trkpt lat="45.80284" lon="5.00147">
        <ele>178</ele>
        <time>2012-02-05T09:58:23Z</time>
      </trkpt>
      <trkpt lat="45.80283" lon="5.00149">
        <ele>178</ele>
        <time>2012-02-05T09:58:24Z</time>
      </trkpt>
      <trkpt lat="45.80279" lon="5.00157">
        <ele>178</ele>
        <time>2012-02-05T09:58:28Z</time>
      </trkpt>
      <trkpt lat="45.80275" lon="5.00163">
        <ele>179</ele>
        <time>2012-02-05T09:58:32Z</time>
      </trkpt>
      <trkpt lat="45.80272" lon="5.00164">
        <ele>179</ele>
        <time>2012-02-05T09:58:34Z</time>
      </trkpt>
      <trkpt lat="45.80269" lon="5.00162">
        <ele>179</ele>
        <time>2012-02-05T09:58:36Z</time>
      </trkpt>
      <trkpt lat="45.80268" lon="5.00158">
        <ele>179</ele>
        <time>2012-02-05T09:58:40Z</time>
      </trkpt>
      <trkpt lat="45.80267" lon="5.00155">
        <ele>179</ele>
        <time>2012-02-05T09:59:22Z</time>
      </trkpt>
      <trkpt lat="45.80267" lon="5.00155">
        <ele>179</ele>
        <time>2012-02-05T09:59:25Z</time>
      </trkpt>
      <trkpt lat="45.80266" lon="5.00152">
        <ele>179</ele>
        <time>2012-02-05T09:59:34Z</time>
      </trkpt>
      <trkpt lat="45.80268" lon="5.00157">
        <ele>179</ele>
        <time>2012-02-05T09:59:41Z</time>
      </trkpt>
      <trkpt lat="45.80268" lon="5.00159">
        <ele>179</ele>
        <time>2012-02-05T09:59:42Z</time>
      </trkpt>
      <trkpt lat="45.80268" lon="5.00172">
        <ele>179</ele>
        <time>2012-02-05T09:59:49Z</time>
      </trkpt>
      <trkpt lat="45.80268" lon="5.00176">
        <ele>179</ele>
        <time>2012-02-05T09:59:51Z</time>
      </trkpt>
      <trkpt lat="45.80264" lon="5.00185">
        <ele>179</ele>
        <time>2012-02-05T09:59:54Z</time>
      </trkpt>
      <trkpt lat="45.80257" lon="5.00201">
        <ele>179</ele>
        <time>2012-02-05T09:59:59Z</time>
      </trkpt>
      <trkpt lat="45.80256" lon="5.00205">
        <ele>179</ele>
        <time>2012-02-05T10:00:00Z</time>
      </trkpt>
      <trkpt lat="45.80249" lon="5.00224">
        <ele>179</ele>
        <time>2012-02-05T10:00:05Z</time>
      </trkpt>
      <trkpt lat="45.80246" lon="5.00232">
        <ele>179</ele>
        <time>2012-02-05T10:00:07Z</time>
      </trkpt>
      <trkpt lat="45.80239" lon="5.00249">
        <ele>179</ele>
        <time>2012-02-05T10:00:12Z</time>
      </trkpt>
      <trkpt lat="45.80236" lon="5.0026">
        <ele>179</ele>
        <time>2012-02-05T10:00:15Z</time>
      </trkpt>
      <trkpt lat="45.80232" lon="5.00275">
        <ele>179</ele>
        <time>2012-02-05T10:00:21Z</time>
      </trkpt>
      <trkpt lat="45.80225" lon="5.00301">
        <ele>179</ele>
        <time>2012-02-05T10:00:28Z</time>
      </trkpt>
      <trkpt lat="45.80219" lon="5.00318">
        <ele>179</ele>
        <time>2012-02-05T10:00:33Z</time>
      </trkpt>
      <trkpt lat="45.80215" lon="5.00322">
        <ele>179</ele>
        <time>2012-02-05T10:00:35Z</time>
      </trkpt>
      <trkpt lat="45.80208" lon="5.0033">
        <ele>178</ele>
        <time>2012-02-05T10:00:38Z</time>
      </trkpt>
      <trkpt lat="45.802" lon="5.00342">
        <ele>178</ele>
        <time>2012-02-05T10:00:42Z</time>
      </trkpt>
      <trkpt lat="45.80191" lon="5.00356">
        <ele>178</ele>
        <time>2012-02-05T10:00:47Z</time>
      </trkpt>
      <trkpt lat="45.80186" lon="5.00362">
        <ele>178</ele>
        <time>2012-02-05T10:00:49Z</time>
      </trkpt>
      <trkpt lat="45.80175" lon="5.00377">
        <ele>178</ele>
        <time>2012-02-05T10:00:54Z</time>
      </trkpt>
      <trkpt lat="45.80173" lon="5.0038">
        <ele>178</ele>
        <time>2012-02-05T10:00:55Z</time>
      </trkpt>
      <trkpt lat="45.80164" lon="5.00394">
        <ele>178</ele>
        <time>2012-02-05T10:01:00Z</time>
      </trkpt>
      <trkpt lat="45.8016" lon="5.004">
        <ele>178</ele>
        <time>2012-02-05T10:01:02Z</time>
      </trkpt>
      <trkpt lat="45.80153" lon="5.00408">
        <ele>178</ele>
        <time>2012-02-05T10:01:05Z</time>
      </trkpt>
      <trkpt lat="45.80145" lon="5.0042">
        <ele>178</ele>
        <time>2012-02-05T10:01:09Z</time>
      </trkpt>
      <trkpt lat="45.80143" lon="5.00422">
        <ele>178</ele>
        <time>2012-02-05T10:01:10Z</time>
      </trkpt>
      <trkpt lat="45.80131" lon="5.00436">
        <ele>178</ele>
        <time>2012-02-05T10:01:16Z</time>
      </trkpt>
      <trkpt lat="45.80129" lon="5.00438">
        <ele>178</ele>
        <time>2012-02-05T10:01:17Z</time>
      </trkpt>
      <trkpt lat="45.80117" lon="5.00453">
        <ele>178</ele>
        <time>2012-02-05T10:01:23Z</time>
      </trkpt>
      <trkpt lat="45.80106" lon="5.00468">
        <ele>178</ele>
        <time>2012-02-05T10:01:29Z</time>
      </trkpt>
      <trkpt lat="45.80102" lon="5.00472">
        <ele>178</ele>
        <time>2012-02-05T10:01:31Z</time>
      </trkpt>
      <trkpt lat="45.80093" lon="5.00479">
        <ele>178</ele>
        <time>2012-02-05T10:01:36Z</time>
      </trkpt>
      <trkpt lat="45.80084" lon="5.00477">
        <ele>178</ele>
        <time>2012-02-05T10:01:40Z</time>
      </trkpt>
      <trkpt lat="45.80081" lon="5.00475">
        <ele>179</ele>
        <time>2012-02-05T10:01:42Z</time>
      </trkpt>
      <trkpt lat="45.80073" lon="5.00465">
        <ele>178</ele>
        <time>2012-02-05T10:01:50Z</time>
      </trkpt>
      <trkpt lat="45.80072" lon="5.00457">
        <ele>178</ele>
        <time>2012-02-05T10:01:54Z</time>
      </trkpt>
      <trkpt lat="45.80069" lon="5.00451">
        <ele>178</ele>
        <time>2012-02-05T10:01:57Z</time>
      </trkpt>
      <trkpt lat="45.80068" lon="5.00449">
        <ele>178</ele>
        <time>2012-02-05T10:01:58Z</time>
      </trkpt>
      <trkpt lat="45.80067" lon="5.00439">
        <ele>178</ele>
        <time>2012-02-05T10:02:02Z</time>
      </trkpt>
      <trkpt lat="45.80065" lon="5.00434">
        <ele>178</ele>
        <time>2012-02-05T10:02:04Z</time>
      </trkpt>
      <trkpt lat="45.80063" lon="5.00431">
        <ele>178</ele>
        <time>2012-02-05T10:02:07Z</time>
      </trkpt>
      <trkpt lat="45.80063" lon="5.00431">
        <ele>178</ele>
        <time>2012-02-05T10:02:08Z</time>
      </trkpt>
      <trkpt lat="45.80061" lon="5.00426">
        <ele>178</ele>
        <time>2012-02-05T10:02:12Z</time>
      </trkpt>
      <trkpt lat="45.80067" lon="5.00422">
        <ele>178</ele>
        <time>2012-02-05T10:02:16Z</time>
      </trkpt>
      <trkpt lat="45.80071" lon="5.00425">
        <ele>178</ele>
        <time>2012-02-05T10:02:19Z</time>
      </trkpt>
      <trkpt lat="45.80072" lon="5.00425">
        <ele>178</ele>
        <time>2012-02-05T10:02:20Z</time>
      </trkpt>
      <trkpt lat="45.80076" lon="5.00425">
        <ele>178</ele>
        <time>2012-02-05T10:02:23Z</time>
      </trkpt>
      <trkpt lat="45.8008" lon="5.00426">
        <ele>178</ele>
        <time>2012-02-05T10:02:27Z</time>
      </trkpt>
      <trkpt lat="45.80081" lon="5.00427">
        <ele>178</ele>
        <time>2012-02-05T10:02:33Z</time>
      </trkpt>
      <trkpt lat="45.80081" lon="5.00428">
        <ele>178</ele>
        <time>2012-02-05T10:02:39Z</time>
      </trkpt>
      <trkpt lat="45.80083" lon="5.00433">
        <ele>178</ele>
        <time>2012-02-05T10:02:48Z</time>
      </trkpt>
      <trkpt lat="45.80083" lon="5.00438">
        <ele>178</ele>
        <time>2012-02-05T10:02:51Z</time>
      </trkpt>
      <trkpt lat="45.80084" lon="5.00444">
        <ele>178</ele>
        <time>2012-02-05T10:02:53Z</time>
      </trkpt>
      <trkpt lat="45.80087" lon="5.00459">
        <ele>178</ele>
        <time>2012-02-05T10:02:57Z</time>
      </trkpt>
      <trkpt lat="45.80088" lon="5.00463">
        <ele>178</ele>
        <time>2012-02-05T10:02:58Z</time>
      </trkpt>
      <trkpt lat="45.80089" lon="5.00479">
        <ele>179</ele>
        <time>2012-02-05T10:03:02Z</time>
      </trkpt>
      <trkpt lat="45.80087" lon="5.00492">
        <ele>179</ele>
        <time>2012-02-05T10:03:05Z</time>
      </trkpt>
      <trkpt lat="45.80086" lon="5.00495">
        <ele>179</ele>
        <time>2012-02-05T10:03:06Z</time>
      </trkpt>
      <trkpt lat="45.80076" lon="5.00509">
        <ele>179</ele>
        <time>2012-02-05T10:03:12Z</time>
      </trkpt>
      <trkpt lat="45.80074" lon="5.00511">
        <ele>179</ele>
        <time>2012-02-05T10:03:14Z</time>
      </trkpt>
      <trkpt lat="45.80068" lon="5.00518">
        <ele>179</ele>
        <time>2012-02-05T10:03:17Z</time>
      </trkpt>
      <trkpt lat="45.80058" lon="5.00526">
        <ele>179</ele>
        <time>2012-02-05T10:03:21Z</time>
      </trkpt>
      <trkpt lat="45.80053" lon="5.00529">
        <ele>179</ele>
        <time>2012-02-05T10:03:23Z</time>
      </trkpt>
      <trkpt lat="45.80038" lon="5.00532">
        <ele>179</ele>
        <time>2012-02-05T10:03:29Z</time>
      </trkpt>
      <trkpt lat="45.80036" lon="5.00533">
        <ele>179</ele>
        <time>2012-02-05T10:03:30Z</time>
      </trkpt>
      <trkpt lat="45.80021" lon="5.00543">
        <ele>179</ele>
        <time>2012-02-05T10:03:37Z</time>
      </trkpt>
      <trkpt lat="45.80015" lon="5.00535">
        <ele>179</ele>
        <time>2012-02-05T10:03:41Z</time>
      </trkpt>
      <trkpt lat="45.80009" lon="5.00521">
        <ele>179</ele>
        <time>2012-02-05T10:03:46Z</time>
      </trkpt>
      <trkpt lat="45.80001" lon="5.00505">
        <ele>178</ele>
        <time>2012-02-05T10:03:52Z</time>
      </trkpt>
      <trkpt lat="45.79998" lon="5.00499">
        <ele>178</ele>
        <time>2012-02-05T10:03:54Z</time>
      </trkpt>
      <trkpt lat="45.79991" lon="5.00484">
        <ele>179</ele>
        <time>2012-02-05T10:03:59Z</time>
      </trkpt>
      <trkpt lat="45.79988" lon="5.00477">
        <ele>179</ele>
        <time>2012-02-05T10:04:01Z</time>
      </trkpt>
      <trkpt lat="45.7998" lon="5.00466">
        <ele>179</ele>
        <time>2012-02-05T10:04:05Z</time>
      </trkpt>
      <trkpt lat="45.79976" lon="5.00456">
        <ele>179</ele>
        <time>2012-02-05T10:04:10Z</time>
      </trkpt>
      <trkpt lat="45.79972" lon="5.00442">
        <ele>180</ele>
        <time>2012-02-05T10:04:14Z</time>
      </trkpt>
      <trkpt lat="45.79967" lon="5.00433">
        <ele>180</ele>
        <time>2012-02-05T10:04:17Z</time>
      </trkpt>
      <trkpt lat="45.79965" lon="5.00432">
        <ele>180</ele>
        <time>2012-02-05T10:04:18Z</time>
      </trkpt>
      <trkpt lat="45.79964" lon="5.00433">
        <ele>180</ele>
        <time>2012-02-05T10:04:19Z</time>
      </trkpt>
      <trkpt lat="45.7996" lon="5.00434">
        <ele>180</ele>
        <time>2012-02-05T10:04:21Z</time>
      </trkpt>
      <trkpt lat="45.79954" lon="5.00433">
        <ele>180</ele>
        <time>2012-02-05T10:04:24Z</time>
      </trkpt>
      <trkpt lat="45.79953" lon="5.00434">
        <ele>180</ele>
        <time>2012-02-05T10:04:28Z</time>
      </trkpt>
      <trkpt lat="45.79955" lon="5.00438">
        <ele>180</ele>
        <time>2012-02-05T10:04:34Z</time>
      </trkpt>
      <trkpt lat="45.79957" lon="5.00439">
        <ele>180</ele>
        <time>2012-02-05T10:04:46Z</time>
      </trkpt>
      <trkpt lat="45.79961" lon="5.0044">
        <ele>180</ele>
        <time>2012-02-05T10:04:48Z</time>
      </trkpt>
      <trkpt lat="45.79963" lon="5.00439">
        <ele>180</ele>
        <time>2012-02-05T10:04:49Z</time>
      </trkpt>
      <trkpt lat="45.79969" lon="5.00436">
        <ele>180</ele>
        <time>2012-02-05T10:04:52Z</time>
      </trkpt>
      <trkpt lat="45.7997" lon="5.00436">
        <ele>180</ele>
        <time>2012-02-05T10:04:53Z</time>
      </trkpt>
      <trkpt lat="45.79972" lon="5.0044">
        <ele>180</ele>
        <time>2012-02-05T10:04:55Z</time>
      </trkpt>
      <trkpt lat="45.79973" lon="5.00442">
        <ele>180</ele>
        <time>2012-02-05T10:04:56Z</time>
      </trkpt>
      <trkpt lat="45.79978" lon="5.00455">
        <ele>179</ele>
        <time>2012-02-05T10:05:01Z</time>
      </trkpt>
      <trkpt lat="45.79982" lon="5.00449">
        <ele>179</ele>
        <time>2012-02-05T10:05:04Z</time>
      </trkpt>
      <trkpt lat="45.79982" lon="5.00446">
        <ele>180</ele>
        <time>2012-02-05T10:05:05Z</time>
      </trkpt>
      <trkpt lat="45.79984" lon="5.00435">
        <ele>180</ele>
        <time>2012-02-05T10:05:08Z</time>
      </trkpt>
      <trkpt lat="45.79985" lon="5.00431">
        <ele>180</ele>
        <time>2012-02-05T10:05:09Z</time>
      </trkpt>
      <trkpt lat="45.79986" lon="5.00419">
        <ele>180</ele>
        <time>2012-02-05T10:05:12Z</time>
      </trkpt>
      <trkpt lat="45.79987" lon="5.00412">
        <ele>180</ele>
        <time>2012-02-05T10:05:14Z</time>
      </trkpt>
      <trkpt lat="45.79992" lon="5.00391">
        <ele>180</ele>
        <time>2012-02-05T10:05:19Z</time>
      </trkpt>
      <trkpt lat="45.79993" lon="5.00386">
        <ele>180</ele>
        <time>2012-02-05T10:05:20Z</time>
      </trkpt>
      <trkpt lat="45.79998" lon="5.00369">
        <ele>180</ele>
        <time>2012-02-05T10:05:24Z</time>
      </trkpt>
      <trkpt lat="45.8" lon="5.00366">
        <ele>180</ele>
        <time>2012-02-05T10:05:25Z</time>
      </trkpt>
      <trkpt lat="45.80008" lon="5.00353">
        <ele>179</ele>
        <time>2012-02-05T10:05:29Z</time>
      </trkpt>
      <trkpt lat="45.80013" lon="5.00343">
        <ele>179</ele>
        <time>2012-02-05T10:05:32Z</time>
      </trkpt>
      <trkpt lat="45.80017" lon="5.00338">
        <ele>179</ele>
        <time>2012-02-05T10:05:34Z</time>
      </trkpt>
      <trkpt lat="45.80023" lon="5.00331">
        <ele>179</ele>
        <time>2012-02-05T10:05:38Z</time>
      </trkpt>
      <trkpt lat="45.80026" lon="5.00326">
        <ele>179</ele>
        <time>2012-02-05T10:05:41Z</time>
      </trkpt>
      <trkpt lat="45.80026" lon="5.00324">
        <ele>179</ele>
        <time>2012-02-05T10:05:42Z</time>
      </trkpt>
      <trkpt lat="45.80026" lon="5.00322">
        <ele>179</ele>
        <time>2012-02-05T10:05:43Z</time>
      </trkpt>
      <trkpt lat="45.80026" lon="5.00318">
        <ele>179</ele>
        <time>2012-02-05T10:05:45Z</time>
      </trkpt>
      <trkpt lat="45.80025" lon="5.00309">
        <ele>178</ele>
        <time>2012-02-05T10:05:50Z</time>
      </trkpt>
      <trkpt lat="45.80023" lon="5.00297">
        <ele>178</ele>
        <time>2012-02-05T10:05:56Z</time>
      </trkpt>
      <trkpt lat="45.80023" lon="5.00294">
        <ele>178</ele>
        <time>2012-02-05T10:05:57Z</time>
      </trkpt>
      <trkpt lat="45.80023" lon="5.00268">
        <ele>178</ele>
        <time>2012-02-05T10:06:03Z</time>
      </trkpt>
      <trkpt lat="45.80021" lon="5.00246">
        <ele>178</ele>
        <time>2012-02-05T10:06:08Z</time>
      </trkpt>
      <trkpt lat="45.80022" lon="5.00242">
        <ele>178</ele>
        <time>2012-02-05T10:06:09Z</time>
      </trkpt>
      <trkpt lat="45.80024" lon="5.00224">
        <ele>178</ele>
        <time>2012-02-05T10:06:13Z</time>
      </trkpt>
      <trkpt lat="45.80025" lon="5.00216">
        <ele>178</ele>
        <time>2012-02-05T10:06:15Z</time>
      </trkpt>
      <trkpt lat="45.80027" lon="5.00205">
        <ele>178</ele>
        <time>2012-02-05T10:06:18Z</time>
      </trkpt>
      <trkpt lat="45.8003" lon="5.00188">
        <ele>178</ele>
        <time>2012-02-05T10:06:22Z</time>
      </trkpt>
      <trkpt lat="45.80031" lon="5.00184">
        <ele>178</ele>
        <time>2012-02-05T10:06:23Z</time>
      </trkpt>
      <trkpt lat="45.80037" lon="5.00165">
        <ele>178</ele>
        <time>2012-02-05T10:06:28Z</time>
      </trkpt>
      <trkpt lat="45.80038" lon="5.00162">
        <ele>178</ele>
        <time>2012-02-05T10:06:29Z</time>
      </trkpt>
      <trkpt lat="45.80042" lon="5.00151">
        <ele>178</ele>
        <time>2012-02-05T10:06:34Z</time>
      </trkpt>
      <trkpt lat="45.80045" lon="5.00138">
        <ele>178</ele>
        <time>2012-02-05T10:06:38Z</time>
      </trkpt>
      <trkpt lat="45.80044" lon="5.00131">
        <ele>178</ele>
        <time>2012-02-05T10:06:40Z</time>
      </trkpt>
      <trkpt lat="45.80044" lon="5.00111">
        <ele>179</ele>
        <time>2012-02-05T10:06:45Z</time>
      </trkpt>
      <trkpt lat="45.80047" lon="5.0009">
        <ele>179</ele>
        <time>2012-02-05T10:06:50Z</time>
      </trkpt>
      <trkpt lat="45.80049" lon="5.00083">
        <ele>179</ele>
        <time>2012-02-05T10:06:52Z</time>
      </trkpt>
      <trkpt lat="45.80053" lon="5.00073">
        <ele>179</ele>
        <time>2012-02-05T10:06:55Z</time>
      </trkpt>
      <trkpt lat="45.80061" lon="5.0006">
        <ele>179</ele>
        <time>2012-02-05T10:07:00Z</time>
      </trkpt>
      <trkpt lat="45.80074" lon="5.00052">
        <ele>179</ele>
        <time>2012-02-05T10:07:06Z</time>
      </trkpt>
      <trkpt lat="45.80079" lon="5.0005">
        <ele>179</ele>
        <time>2012-02-05T10:07:08Z</time>
      </trkpt>
      <trkpt lat="45.80089" lon="5.00045">
        <ele>177</ele>
        <time>2012-02-05T10:07:12Z</time>
      </trkpt>
      <trkpt lat="45.80096" lon="5.00042">
        <ele>177</ele>
        <time>2012-02-05T10:07:15Z</time>
      </trkpt>
      <trkpt lat="45.80101" lon="5.00039">
        <ele>177</ele>
        <time>2012-02-05T10:07:17Z</time>
      </trkpt>
      <trkpt lat="45.80114" lon="5.0003">
        <ele>177</ele>
        <time>2012-02-05T10:07:22Z</time>
      </trkpt>
      <trkpt lat="45.8013" lon="5.00021">
        <ele>177</ele>
        <time>2012-02-05T10:07:28Z</time>
      </trkpt>
      <trkpt lat="45.80133" lon="5.00019">
        <ele>177</ele>
        <time>2012-02-05T10:07:29Z</time>
      </trkpt>
      <trkpt lat="45.80144" lon="5.00014">
        <ele>177</ele>
        <time>2012-02-05T10:07:34Z</time>
      </trkpt>
      <trkpt lat="45.8015" lon="5.00011">
        <ele>177</ele>
        <time>2012-02-05T10:07:36Z</time>
      </trkpt>
      <trkpt lat="45.80158" lon="5.00007">
        <ele>177</ele>
        <time>2012-02-05T10:07:39Z</time>
      </trkpt>
      <trkpt lat="45.80168" lon="5.00005">
        <ele>177</ele>
        <time>2012-02-05T10:07:43Z</time>
      </trkpt>
      <trkpt lat="45.80173" lon="5.00003">
        <ele>177</ele>
        <time>2012-02-05T10:07:45Z</time>
      </trkpt>
      <trkpt lat="45.80186" lon="4.99992">
        <ele>177</ele>
        <time>2012-02-05T10:07:50Z</time>
      </trkpt>
      <trkpt lat="45.80201" lon="4.99982">
        <ele>178</ele>
        <time>2012-02-05T10:07:56Z</time>
      </trkpt>
      <trkpt lat="45.80204" lon="4.99981">
        <ele>178</ele>
        <time>2012-02-05T10:07:57Z</time>
      </trkpt>
      <trkpt lat="45.80215" lon="4.99976">
        <ele>178</ele>
        <time>2012-02-05T10:08:01Z</time>
      </trkpt>
      <trkpt lat="45.80222" lon="4.99971">
        <ele>178</ele>
        <time>2012-02-05T10:08:04Z</time>
      </trkpt>
      <trkpt lat="45.8023" lon="4.99967">
        <ele>178</ele>
        <time>2012-02-05T10:08:07Z</time>
      </trkpt>
      <trkpt lat="45.80239" lon="4.99961">
        <ele>178</ele>
        <time>2012-02-05T10:08:11Z</time>
      </trkpt>
      <trkpt lat="45.80244" lon="4.99958">
        <ele>178</ele>
        <time>2012-02-05T10:08:13Z</time>
      </trkpt>
      <trkpt lat="45.80258" lon="4.99951">
        <ele>178</ele>
        <time>2012-02-05T10:08:18Z</time>
      </trkpt>
      <trkpt lat="45.80266" lon="4.99947">
        <ele>178</ele>
        <time>2012-02-05T10:08:21Z</time>
      </trkpt>
      <trkpt lat="45.80277" lon="4.99941">
        <ele>178</ele>
        <time>2012-02-05T10:08:25Z</time>
      </trkpt>
      <trkpt lat="45.80283" lon="4.99938">
        <ele>178</ele>
        <time>2012-02-05T10:08:27Z</time>
      </trkpt>
      <trkpt lat="45.80296" lon="4.99932">
        <ele>177</ele>
        <time>2012-02-05T10:08:32Z</time>
      </trkpt>
      <trkpt lat="45.80299" lon="4.9993">
        <ele>177</ele>
        <time>2012-02-05T10:08:33Z</time>
      </trkpt>
      <trkpt lat="45.80315" lon="4.99924">
        <ele>177</ele>
        <time>2012-02-05T10:08:39Z</time>
      </trkpt>
      <trkpt lat="45.80328" lon="4.99912">
        <ele>177</ele>
        <time>2012-02-05T10:08:45Z</time>
      </trkpt>
      <trkpt lat="45.8033" lon="4.99909">
        <ele>177</ele>
        <time>2012-02-05T10:08:46Z</time>
      </trkpt>
      <trkpt lat="45.80336" lon="4.9989">
        <ele>177</ele>
        <time>2012-02-05T10:08:52Z</time>
      </trkpt>
      <trkpt lat="45.80338" lon="4.99883">
        <ele>177</ele>
        <time>2012-02-05T10:08:54Z</time>
      </trkpt>
      <trkpt lat="45.80343" lon="4.99865">
        <ele>177</ele>
        <time>2012-02-05T10:08:59Z</time>
      </trkpt>
      <trkpt lat="45.80346" lon="4.99858">
        <ele>177</ele>
        <time>2012-02-05T10:09:01Z</time>
      </trkpt>
      <trkpt lat="45.80351" lon="4.99845">
        <ele>177</ele>
        <time>2012-02-05T10:09:05Z</time>
      </trkpt>
      <trkpt lat="45.80355" lon="4.99835">
        <ele>177</ele>
        <time>2012-02-05T10:09:08Z</time>
      </trkpt>
      <trkpt lat="45.8036" lon="4.99825">
        <ele>178</ele>
        <time>2012-02-05T10:09:11Z</time>
      </trkpt>
      <trkpt lat="45.80367" lon="4.99812">
        <ele>178</ele>
        <time>2012-02-05T10:09:15Z</time>
      </trkpt>
      <trkpt lat="45.80371" lon="4.99806">
        <ele>177</ele>
        <time>2012-02-05T10:09:17Z</time>
      </trkpt>
      <trkpt lat="45.8038" lon="4.9979">
        <ele>177</ele>
        <time>2012-02-05T10:09:22Z</time>
      </trkpt>
      <trkpt lat="45.80382" lon="4.99787">
        <ele>177</ele>
        <time>2012-02-05T10:09:23Z</time>
      </trkpt>
      <trkpt lat="45.80394" lon="4.99769">
        <ele>177</ele>
        <time>2012-02-05T10:09:29Z</time>
      </trkpt>
      <trkpt lat="45.80395" lon="4.99766">
        <ele>177</ele>
        <time>2012-02-05T10:09:30Z</time>
      </trkpt>
      <trkpt lat="45.80407" lon="4.99749">
        <ele>176</ele>
        <time>2012-02-05T10:09:36Z</time>
      </trkpt>
      <trkpt lat="45.80418" lon="4.99732">
        <ele>176</ele>
        <time>2012-02-05T10:09:42Z</time>
      </trkpt>
      <trkpt lat="45.8042" lon="4.9973">
        <ele>176</ele>
        <time>2012-02-05T10:09:43Z</time>
      </trkpt>
      <trkpt lat="45.80424" lon="4.99716">
        <ele>176</ele>
        <time>2012-02-05T10:09:47Z</time>
      </trkpt>
      <trkpt lat="45.8042" lon="4.99704">
        <ele>175</ele>
        <time>2012-02-05T10:09:50Z</time>
      </trkpt>
      <trkpt lat="45.80417" lon="4.99697">
        <ele>175</ele>
        <time>2012-02-05T10:09:52Z</time>
      </trkpt>
      <trkpt lat="45.80409" lon="4.99679">
        <ele>176</ele>
        <time>2012-02-05T10:09:57Z</time>
      </trkpt>
      <trkpt lat="45.80399" lon="4.99671">
        <ele>176</ele>
        <time>2012-02-05T10:10:01Z</time>
      </trkpt>
      <trkpt lat="45.80392" lon="4.99668">
        <ele>176</ele>
        <time>2012-02-05T10:10:04Z</time>
      </trkpt>
      <trkpt lat="45.80381" lon="4.99665">
        <ele>176</ele>
        <time>2012-02-05T10:10:08Z</time>
      </trkpt>
      <trkpt lat="45.80373" lon="4.99663">
        <ele>176</ele>
        <time>2012-02-05T10:10:11Z</time>
      </trkpt>
      <trkpt lat="45.80366" lon="4.99663">
        <ele>176</ele>
        <time>2012-02-05T10:10:13Z</time>
      </trkpt>
      <trkpt lat="45.80352" lon="4.99663">
        <ele>177</ele>
        <time>2012-02-05T10:10:18Z</time>
      </trkpt>
      <trkpt lat="45.8035" lon="4.99661">
        <ele>177</ele>
        <time>2012-02-05T10:10:19Z</time>
      </trkpt>
      <trkpt lat="45.80343" lon="4.99659">
        <ele>177</ele>
        <time>2012-02-05T10:10:23Z</time>
      </trkpt>
      <trkpt lat="45.80342" lon="4.99662">
        <ele>177</ele>
        <time>2012-02-05T10:10:26Z</time>
      </trkpt>
      <trkpt lat="45.80343" lon="4.99662">
        <ele>177</ele>
        <time>2012-02-05T10:10:27Z</time>
      </trkpt>
      <trkpt lat="45.80343" lon="4.99658">
        <ele>177</ele>
        <time>2012-02-05T10:10:34Z</time>
      </trkpt>
      <trkpt lat="45.80346" lon="4.99657">
        <ele>177</ele>
        <time>2012-02-05T10:10:38Z</time>
      </trkpt>
      <trkpt lat="45.80347" lon="4.99657">
        <ele>177</ele>
        <time>2012-02-05T10:10:39Z</time>
      </trkpt>
      <trkpt lat="45.80353" lon="4.99661">
        <ele>177</ele>
        <time>2012-02-05T10:10:46Z</time>
      </trkpt>
      <trkpt lat="45.80352" lon="4.99661">
        <ele>177</ele>
        <time>2012-02-05T10:10:58Z</time>
      </trkpt>
      <trkpt lat="45.80347" lon="4.99656">
        <ele>177</ele>
        <time>2012-02-05T10:11:03Z</time>
      </trkpt>
      <trkpt lat="45.80346" lon="4.99654">
        <ele>177</ele>
        <time>2012-02-05T10:11:04Z</time>
      </trkpt>
      <trkpt lat="45.80348" lon="4.9965">
        <ele>177</ele>
        <time>2012-02-05T10:11:06Z</time>
      </trkpt>
      <trkpt lat="45.80342" lon="4.99649">
        <ele>177</ele>
        <time>2012-02-05T10:11:09Z</time>
      </trkpt>
      <trkpt lat="45.80334" lon="4.99644">
        <ele>177</ele>
        <time>2012-02-05T10:11:12Z</time>
      </trkpt>
      <trkpt lat="45.80333" lon="4.99642">
        <ele>177</ele>
        <time>2012-02-05T10:11:13Z</time>
      </trkpt>
      <trkpt lat="45.80327" lon="4.99636">
        <ele>177</ele>
        <time>2012-02-05T10:11:16Z</time>
      </trkpt>
      <trkpt lat="45.80318" lon="4.99634">
        <ele>177</ele>
        <time>2012-02-05T10:11:20Z</time>
      </trkpt>
      <trkpt lat="45.80316" lon="4.99632">
        <ele>177</ele>
        <time>2012-02-05T10:11:21Z</time>
      </trkpt>
      <trkpt lat="45.80315" lon="4.9963">
        <ele>177</ele>
        <time>2012-02-05T10:11:22Z</time>
      </trkpt>
      <trkpt lat="45.80313" lon="4.99628">
        <ele>177</ele>
        <time>2012-02-05T10:11:24Z</time>
      </trkpt>
      <trkpt lat="45.80312" lon="4.99625">
        <ele>177</ele>
        <time>2012-02-05T10:11:26Z</time>
      </trkpt>
      <trkpt lat="45.80312" lon="4.99621">
        <ele>177</ele>
        <time>2012-02-05T10:11:28Z</time>
      </trkpt>
      <trkpt lat="45.80312" lon="4.99612">
        <ele>177</ele>
        <time>2012-02-05T10:11:34Z</time>
      </trkpt>
      <trkpt lat="45.8031" lon="4.99609">
        <ele>177</ele>
        <time>2012-02-05T10:11:36Z</time>
      </trkpt>
      <trkpt lat="45.80304" lon="4.99605">
        <ele>177</ele>
        <time>2012-02-05T10:11:39Z</time>
      </trkpt>
      <trkpt lat="45.80294" lon="4.99594">
        <ele>177</ele>
        <time>2012-02-05T10:11:43Z</time>
      </trkpt>
      <trkpt lat="45.80291" lon="4.99593">
        <ele>177</ele>
        <time>2012-02-05T10:11:44Z</time>
      </trkpt>
      <trkpt lat="45.80284" lon="4.99584">
        <ele>177</ele>
        <time>2012-02-05T10:11:48Z</time>
      </trkpt>
      <trkpt lat="45.80284" lon="4.99581">
        <ele>176</ele>
        <time>2012-02-05T10:11:49Z</time>
      </trkpt>
      <trkpt lat="45.80279" lon="4.99576">
        <ele>176</ele>
        <time>2012-02-05T10:11:52Z</time>
      </trkpt>
      <trkpt lat="45.80275" lon="4.99574">
        <ele>176</ele>
        <time>2012-02-05T10:11:54Z</time>
      </trkpt>
      <trkpt lat="45.80263" lon="4.99569">
        <ele>176</ele>
        <time>2012-02-05T10:11:59Z</time>
      </trkpt>
      <trkpt lat="45.80262" lon="4.99567">
        <ele>176</ele>
        <time>2012-02-05T10:12:00Z</time>
      </trkpt>
      <trkpt lat="45.80259" lon="4.99562">
        <ele>176</ele>
        <time>2012-02-05T10:12:02Z</time>
      </trkpt>
      <trkpt lat="45.80258" lon="4.9956">
        <ele>176</ele>
        <time>2012-02-05T10:12:03Z</time>
      </trkpt>
      <trkpt lat="45.80254" lon="4.99554">
        <ele>176</ele>
        <time>2012-02-05T10:12:07Z</time>
      </trkpt>
      <trkpt lat="45.8025" lon="4.99548">
        <ele>176</ele>
        <time>2012-02-05T10:12:09Z</time>
      </trkpt>
      <trkpt lat="45.80243" lon="4.99535">
        <ele>177</ele>
        <time>2012-02-05T10:12:13Z</time>
      </trkpt>
      <trkpt lat="45.80239" lon="4.99526">
        <ele>177</ele>
        <time>2012-02-05T10:12:16Z</time>
      </trkpt>
      <trkpt lat="45.80237" lon="4.99519">
        <ele>177</ele>
        <time>2012-02-05T10:12:18Z</time>
      </trkpt>
      <trkpt lat="45.80233" lon="4.99504">
        <ele>177</ele>
        <time>2012-02-05T10:12:23Z</time>
      </trkpt>
      <trkpt lat="45.80232" lon="4.995">
        <ele>177</ele>
        <time>2012-02-05T10:12:24Z</time>
      </trkpt>
      <trkpt lat="45.80228" lon="4.99489">
        <ele>178</ele>
        <time>2012-02-05T10:12:27Z</time>
      </trkpt>
      <trkpt lat="45.80225" lon="4.99476">
        <ele>178</ele>
        <time>2012-02-05T10:12:32Z</time>
      </trkpt>
      <trkpt lat="45.80224" lon="4.99472">
        <ele>178</ele>
        <time>2012-02-05T10:12:34Z</time>
      </trkpt>
      <trkpt lat="45.80228" lon="4.99466">
        <ele>178</ele>
        <time>2012-02-05T10:12:37Z</time>
      </trkpt>
      <trkpt lat="45.80227" lon="4.9946">
        <ele>178</ele>
        <time>2012-02-05T10:12:41Z</time>
      </trkpt>
      <trkpt lat="45.80225" lon="4.99453">
        <ele>178</ele>
        <time>2012-02-05T10:12:44Z</time>
      </trkpt>
      <trkpt lat="45.80223" lon="4.99447">
        <ele>178</ele>
        <time>2012-02-05T10:12:47Z</time>
      </trkpt>
      <trkpt lat="45.80219" lon="4.99437">
        <ele>178</ele>
        <time>2012-02-05T10:12:51Z</time>
      </trkpt>
      <trkpt lat="45.80217" lon="4.99435">
        <ele>178</ele>
        <time>2012-02-05T10:12:52Z</time>
      </trkpt>
      <trkpt lat="45.80215" lon="4.99432">
        <ele>178</ele>
        <time>2012-02-05T10:12:53Z</time>
      </trkpt>
      <trkpt lat="45.80213" lon="4.9942">
        <ele>178</ele>
        <time>2012-02-05T10:12:56Z</time>
      </trkpt>
      <trkpt lat="45.80215" lon="4.99411">
        <ele>178</ele>
        <time>2012-02-05T10:12:59Z</time>
      </trkpt>
      <trkpt lat="45.80216" lon="4.99409">
        <ele>178</ele>
        <time>2012-02-05T10:13:00Z</time>
      </trkpt>
      <trkpt lat="45.80217" lon="4.99407">
        <ele>178</ele>
        <time>2012-02-05T10:13:01Z</time>
      </trkpt>
      <trkpt lat="45.80216" lon="4.99398">
        <ele>178</ele>
        <time>2012-02-05T10:13:04Z</time>
      </trkpt>
      <trkpt lat="45.8022" lon="4.99387">
        <ele>178</ele>
        <time>2012-02-05T10:13:08Z</time>
      </trkpt>
      <trkpt lat="45.80221" lon="4.99382">
        <ele>178</ele>
        <time>2012-02-05T10:13:11Z</time>
      </trkpt>
      <trkpt lat="45.80221" lon="4.99376">
        <ele>178</ele>
        <time>2012-02-05T10:13:13Z</time>
      </trkpt>
      <trkpt lat="45.80223" lon="4.99358">
        <ele>178</ele>
        <time>2012-02-05T10:13:18Z</time>
      </trkpt>
      <trkpt lat="45.80223" lon="4.99354">
        <ele>178</ele>
        <time>2012-02-05T10:13:19Z</time>
      </trkpt>
      <trkpt lat="45.80223" lon="4.99341">
        <ele>178</ele>
        <time>2012-02-05T10:13:23Z</time>
      </trkpt>
      <trkpt lat="45.80222" lon="4.99327">
        <ele>178</ele>
        <time>2012-02-05T10:13:28Z</time>
      </trkpt>
      <trkpt lat="45.80221" lon="4.99316">
        <ele>178</ele>
        <time>2012-02-05T10:13:34Z</time>
      </trkpt>
      <trkpt lat="45.80224" lon="4.99299">
        <ele>178</ele>
        <time>2012-02-05T10:13:39Z</time>
      </trkpt>
      <trkpt lat="45.80226" lon="4.99277">
        <ele>178</ele>
        <time>2012-02-05T10:13:44Z</time>
      </trkpt>
      <trkpt lat="45.80226" lon="4.99271">
        <ele>178</ele>
        <time>2012-02-05T10:13:46Z</time>
      </trkpt>
      <trkpt lat="45.80223" lon="4.99267">
        <ele>178</ele>
        <time>2012-02-05T10:13:48Z</time>
      </trkpt>
      <trkpt lat="45.80221" lon="4.99266">
        <ele>178</ele>
        <time>2012-02-05T10:13:51Z</time>
      </trkpt>
      <trkpt lat="45.8022" lon="4.99267">
        <ele>178</ele>
        <time>2012-02-05T10:13:52Z</time>
      </trkpt>
      <trkpt lat="45.80223" lon="4.9926">
        <ele>178</ele>
        <time>2012-02-05T10:14:06Z</time>
      </trkpt>
      <trkpt lat="45.80221" lon="4.99257">
        <ele>178</ele>
        <time>2012-02-05T10:14:15Z</time>
      </trkpt>
      <trkpt lat="45.8022" lon="4.99251">
        <ele>178</ele>
        <time>2012-02-05T10:14:18Z</time>
      </trkpt>
      <trkpt lat="45.80219" lon="4.99249">
        <ele>178</ele>
        <time>2012-02-05T10:14:20Z</time>
      </trkpt>
      <trkpt lat="45.80218" lon="4.99248">
        <ele>178</ele>
        <time>2012-02-05T10:14:21Z</time>
      </trkpt>
      <trkpt lat="45.80216" lon="4.99246">
        <ele>178</ele>
        <time>2012-02-05T10:14:24Z</time>
      </trkpt>
      <trkpt lat="45.80211" lon="4.99247">
        <ele>178</ele>
        <time>2012-02-05T10:14:28Z</time>
      </trkpt>
      <trkpt lat="45.80208" lon="4.99245">
        <ele>178</ele>
        <time>2012-02-05T10:14:33Z</time>
      </trkpt>
      <trkpt lat="45.80207" lon="4.99251">
        <ele>178</ele>
        <time>2012-02-05T10:14:39Z</time>
      </trkpt>
      <trkpt lat="45.80205" lon="4.99254">
        <ele>178</ele>
        <time>2012-02-05T10:14:40Z</time>
      </trkpt>
      <trkpt lat="45.80195" lon="4.9927">
        <ele>178</ele>
        <time>2012-02-05T10:14:44Z</time>
      </trkpt>
      <trkpt lat="45.80191" lon="4.99276">
        <ele>178</ele>
        <time>2012-02-05T10:14:46Z</time>
      </trkpt>
      <trkpt lat="45.80184" lon="4.99283">
        <ele>178</ele>
        <time>2012-02-05T10:14:49Z</time>
      </trkpt>
      <trkpt lat="45.80178" lon="4.99291">
        <ele>178</ele>
        <time>2012-02-05T10:14:54Z</time>
      </trkpt>
      <trkpt lat="45.80178" lon="4.99295">
        <ele>178</ele>
        <time>2012-02-05T10:14:57Z</time>
      </trkpt>
      <trkpt lat="45.80174" lon="4.993">
        <ele>177</ele>
        <time>2012-02-05T10:15:02Z</time>
      </trkpt>
      <trkpt lat="45.80172" lon="4.99304">
        <ele>177</ele>
        <time>2012-02-05T10:15:06Z</time>
      </trkpt>
      <trkpt lat="45.80172" lon="4.99305">
        <ele>177</ele>
        <time>2012-02-05T10:15:07Z</time>
      </trkpt>
      <trkpt lat="45.80165" lon="4.99304">
        <ele>177</ele>
        <time>2012-02-05T10:15:12Z</time>
      </trkpt>
      <trkpt lat="45.80164" lon="4.99303">
        <ele>177</ele>
        <time>2012-02-05T10:15:13Z</time>
      </trkpt>
      <trkpt lat="45.80157" lon="4.99294">
        <ele>178</ele>
        <time>2012-02-05T10:15:21Z</time>
      </trkpt>
      <trkpt lat="45.80149" lon="4.99287">
        <ele>178</ele>
        <time>2012-02-05T10:15:27Z</time>
      </trkpt>
      <trkpt lat="45.80148" lon="4.99287">
        <ele>178</ele>
        <time>2012-02-05T10:15:28Z</time>
      </trkpt>
      <trkpt lat="45.80144" lon="4.99289">
        <ele>178</ele>
        <time>2012-02-05T10:15:34Z</time>
      </trkpt>
      <trkpt lat="45.80141" lon="4.99286">
        <ele>178</ele>
        <time>2012-02-05T10:15:43Z</time>
      </trkpt>
      <trkpt lat="45.8014" lon="4.99287">
        <ele>178</ele>
        <time>2012-02-05T10:15:46Z</time>
      </trkpt>
      <trkpt lat="45.80139" lon="4.99288">
        <ele>178</ele>
        <time>2012-02-05T10:15:47Z</time>
      </trkpt>
      <trkpt lat="45.80137" lon="4.99286">
        <ele>178</ele>
        <time>2012-02-05T10:15:52Z</time>
      </trkpt>
      <trkpt lat="45.80133" lon="4.99281">
        <ele>178</ele>
        <time>2012-02-05T10:15:55Z</time>
      </trkpt>
      <trkpt lat="45.80132" lon="4.9928">
        <ele>178</ele>
        <time>2012-02-05T10:15:59Z</time>
      </trkpt>
      <trkpt lat="45.80132" lon="4.99277">
        <ele>178</ele>
        <time>2012-02-05T10:16:12Z</time>
      </trkpt>
      <trkpt lat="45.80131" lon="4.99276">
        <ele>178</ele>
        <time>2012-02-05T10:16:13Z</time>
      </trkpt>
      <trkpt lat="45.80134" lon="4.99264">
        <ele>178</ele>
        <time>2012-02-05T10:16:17Z</time>
      </trkpt>
      <trkpt lat="45.80137" lon="4.9926">
        <ele>178</ele>
        <time>2012-02-05T10:16:19Z</time>
      </trkpt>
      <trkpt lat="45.80141" lon="4.99256">
        <ele>178</ele>
        <time>2012-02-05T10:16:22Z</time>
      </trkpt>
      <trkpt lat="45.80142" lon="4.99247">
        <ele>178</ele>
        <time>2012-02-05T10:16:26Z</time>
      </trkpt>
      <trkpt lat="45.80145" lon="4.99243">
        <ele>178</ele>
        <time>2012-02-05T10:16:29Z</time>
      </trkpt>
      <trkpt lat="45.80145" lon="4.99242">
        <ele>178</ele>
        <time>2012-02-05T10:16:32Z</time>
      </trkpt>
      <trkpt lat="45.80145" lon="4.99238">
        <ele>178</ele>
        <time>2012-02-05T10:16:37Z</time>
      </trkpt>
      <trkpt lat="45.80144" lon="4.99237">
        <ele>178</ele>
        <time>2012-02-05T10:16:38Z</time>
      </trkpt>
      <trkpt lat="45.80143" lon="4.99237">
        <ele>178</ele>
        <time>2012-02-05T10:16:42Z</time>
      </trkpt>
      <trkpt lat="45.80141" lon="4.99233">
        <ele>178</ele>
        <time>2012-02-05T10:16:46Z</time>
      </trkpt>
      <trkpt lat="45.80141" lon="4.99231">
        <ele>178</ele>
        <time>2012-02-05T10:16:47Z</time>
      </trkpt>
      <trkpt lat="45.80139" lon="4.9923">
        <ele>178</ele>
        <time>2012-02-05T10:16:49Z</time>
      </trkpt>
      <trkpt lat="45.80139" lon="4.99225">
        <ele>178</ele>
        <time>2012-02-05T10:16:51Z</time>
      </trkpt>
      <trkpt lat="45.80141" lon="4.9922">
        <ele>178</ele>
        <time>2012-02-05T10:16:53Z</time>
      </trkpt>
      <trkpt lat="45.80145" lon="4.99212">
        <ele>177</ele>
        <time>2012-02-05T10:16:56Z</time>
      </trkpt>
      <trkpt lat="45.80153" lon="4.99198">
        <ele>177</ele>
        <time>2012-02-05T10:17:01Z</time>
      </trkpt>
      <trkpt lat="45.80155" lon="4.99193">
        <ele>177</ele>
        <time>2012-02-05T10:17:03Z</time>
      </trkpt>
      <trkpt lat="45.80163" lon="4.99175">
        <ele>176</ele>
        <time>2012-02-05T10:17:09Z</time>
      </trkpt>
      <trkpt lat="45.80164" lon="4.99172">
        <ele>176</ele>
        <time>2012-02-05T10:17:10Z</time>
      </trkpt>
      <trkpt lat="45.80171" lon="4.99151">
        <ele>176</ele>
        <time>2012-02-05T10:17:16Z</time>
      </trkpt>
      <trkpt lat="45.80175" lon="4.99136">
        <ele>176</ele>
        <time>2012-02-05T10:17:20Z</time>
      </trkpt>
      <trkpt lat="45.80177" lon="4.99126">
        <ele>176</ele>
        <time>2012-02-05T10:17:23Z</time>
      </trkpt>
      <trkpt lat="45.80179" lon="4.99118">
        <ele>176</ele>
        <time>2012-02-05T10:17:25Z</time>
      </trkpt>
      <trkpt lat="45.80184" lon="4.991">
        <ele>176</ele>
        <time>2012-02-05T10:17:30Z</time>
      </trkpt>
      <trkpt lat="45.80185" lon="4.99097">
        <ele>176</ele>
        <time>2012-02-05T10:17:31Z</time>
      </trkpt>
      <trkpt lat="45.80192" lon="4.9908">
        <ele>176</ele>
        <time>2012-02-05T10:17:36Z</time>
      </trkpt>
      <trkpt lat="45.80192" lon="4.99077">
        <ele>176</ele>
        <time>2012-02-05T10:17:37Z</time>
      </trkpt>
      <trkpt lat="45.80194" lon="4.99062">
        <ele>176</ele>
        <time>2012-02-05T10:17:41Z</time>
      </trkpt>
      <trkpt lat="45.80195" lon="4.99051">
        <ele>176</ele>
        <time>2012-02-05T10:17:44Z</time>
      </trkpt>
      <trkpt lat="45.80197" lon="4.9904">
        <ele>176</ele>
        <time>2012-02-05T10:17:47Z</time>
      </trkpt>
      <trkpt lat="45.802" lon="4.99026">
        <ele>176</ele>
        <time>2012-02-05T10:17:51Z</time>
      </trkpt>
      <trkpt lat="45.80201" lon="4.99019">
        <ele>176</ele>
        <time>2012-02-05T10:17:53Z</time>
      </trkpt>
      <trkpt lat="45.80201" lon="4.99003">
        <ele>176</ele>
        <time>2012-02-05T10:17:58Z</time>
      </trkpt>
      <trkpt lat="45.80201" lon="4.99">
        <ele>177</ele>
        <time>2012-02-05T10:17:59Z</time>
      </trkpt>
      <trkpt lat="45.80201" lon="4.98981">
        <ele>177</ele>
        <time>2012-02-05T10:18:04Z</time>
      </trkpt>
      <trkpt lat="45.80201" lon="4.98971">
        <ele>177</ele>
        <time>2012-02-05T10:18:07Z</time>
      </trkpt>
      <trkpt lat="45.80201" lon="4.98959">
        <ele>177</ele>
        <time>2012-02-05T10:18:10Z</time>
      </trkpt>
      <trkpt lat="45.802" lon="4.98946">
        <ele>177</ele>
        <time>2012-02-05T10:18:13Z</time>
      </trkpt>
      <trkpt lat="45.802" lon="4.98938">
        <ele>177</ele>
        <time>2012-02-05T10:18:15Z</time>
      </trkpt>
      <trkpt lat="45.80201" lon="4.98916">
        <ele>178</ele>
        <time>2012-02-05T10:18:21Z</time>
      </trkpt>
      <trkpt lat="45.802" lon="4.989">
        <ele>178</ele>
        <time>2012-02-05T10:18:25Z</time>
      </trkpt>
      <trkpt lat="45.80199" lon="4.98887">
        <ele>178</ele>
        <time>2012-02-05T10:18:28Z</time>
      </trkpt>
      <trkpt lat="45.80197" lon="4.98876">
        <ele>178</ele>
        <time>2012-02-05T10:18:31Z</time>
      </trkpt>
      <trkpt lat="45.80193" lon="4.9886">
        <ele>178</ele>
        <time>2012-02-05T10:18:35Z</time>
      </trkpt>
      <trkpt lat="45.80189" lon="4.98841">
        <ele>178</ele>
        <time>2012-02-05T10:18:40Z</time>
      </trkpt>
      <trkpt lat="45.80186" lon="4.98833">
        <ele>178</ele>
        <time>2012-02-05T10:18:42Z</time>
      </trkpt>
      <trkpt lat="45.80182" lon="4.98818">
        <ele>178</ele>
        <time>2012-02-05T10:18:46Z</time>
      </trkpt>
      <trkpt lat="45.80178" lon="4.98807">
        <ele>178</ele>
        <time>2012-02-05T10:18:49Z</time>
      </trkpt>
      <trkpt lat="45.80175" lon="4.98796">
        <ele>178</ele>
        <time>2012-02-05T10:18:52Z</time>
      </trkpt>
      <trkpt lat="45.80171" lon="4.98781">
        <ele>178</ele>
        <time>2012-02-05T10:18:56Z</time>
      </trkpt>
      <trkpt lat="45.8017" lon="4.98777">
        <ele>178</ele>
        <time>2012-02-05T10:18:57Z</time>
      </trkpt>
      <trkpt lat="45.80168" lon="4.98756">
        <ele>178</ele>
        <time>2012-02-05T10:19:03Z</time>
      </trkpt>
      <trkpt lat="45.80169" lon="4.98753">
        <ele>178</ele>
        <time>2012-02-05T10:19:04Z</time>
      </trkpt>
      <trkpt lat="45.80175" lon="4.98747">
        <ele>178</ele>
        <time>2012-02-05T10:19:07Z</time>
      </trkpt>
      <trkpt lat="45.80185" lon="4.9874">
        <ele>178</ele>
        <time>2012-02-05T10:19:11Z</time>
      </trkpt>
      <trkpt lat="45.80187" lon="4.98739">
        <ele>178</ele>
        <time>2012-02-05T10:19:12Z</time>
      </trkpt>
      <trkpt lat="45.80196" lon="4.98731">
        <ele>179</ele>
        <time>2012-02-05T10:19:17Z</time>
      </trkpt>
      <trkpt lat="45.80201" lon="4.98726">
        <ele>179</ele>
        <time>2012-02-05T10:19:20Z</time>
      </trkpt>
      <trkpt lat="45.80209" lon="4.98714">
        <ele>179</ele>
        <time>2012-02-05T10:19:25Z</time>
      </trkpt>
      <trkpt lat="45.80215" lon="4.98706">
        <ele>179</ele>
        <time>2012-02-05T10:19:28Z</time>
      </trkpt>
      <trkpt lat="45.80219" lon="4.987">
        <ele>179</ele>
        <time>2012-02-05T10:19:30Z</time>
      </trkpt>
      <trkpt lat="45.80232" lon="4.9869">
        <ele>179</ele>
        <time>2012-02-05T10:19:35Z</time>
      </trkpt>
      <trkpt lat="45.80245" lon="4.98679">
        <ele>179</ele>
        <time>2012-02-05T10:19:41Z</time>
      </trkpt>
      <trkpt lat="45.80249" lon="4.98676">
        <ele>179</ele>
        <time>2012-02-05T10:19:43Z</time>
      </trkpt>
      <trkpt lat="45.80254" lon="4.98669">
        <ele>179</ele>
        <time>2012-02-05T10:19:46Z</time>
      </trkpt>
      <trkpt lat="45.80262" lon="4.98658">
        <ele>179</ele>
        <time>2012-02-05T10:19:50Z</time>
      </trkpt>
      <trkpt lat="45.80265" lon="4.98652">
        <ele>178</ele>
        <time>2012-02-05T10:19:52Z</time>
      </trkpt>
      <trkpt lat="45.80273" lon="4.98634">
        <ele>178</ele>
        <time>2012-02-05T10:19:58Z</time>
      </trkpt>
      <trkpt lat="45.80277" lon="4.9861">
        <ele>178</ele>
        <time>2012-02-05T10:20:04Z</time>
      </trkpt>
      <trkpt lat="45.80277" lon="4.98607">
        <ele>178</ele>
        <time>2012-02-05T10:20:05Z</time>
      </trkpt>
      <trkpt lat="45.8028" lon="4.98587">
        <ele>179</ele>
        <time>2012-02-05T10:20:10Z</time>
      </trkpt>
      <trkpt lat="45.80282" lon="4.98579">
        <ele>179</ele>
        <time>2012-02-05T10:20:12Z</time>
      </trkpt>
      <trkpt lat="45.80285" lon="4.98568">
        <ele>179</ele>
        <time>2012-02-05T10:20:15Z</time>
      </trkpt>
      <trkpt lat="45.80291" lon="4.98554">
        <ele>179</ele>
        <time>2012-02-05T10:20:19Z</time>
      </trkpt>
      <trkpt lat="45.80293" lon="4.98547">
        <ele>179</ele>
        <time>2012-02-05T10:20:21Z</time>
      </trkpt>
      <trkpt lat="45.80297" lon="4.9853">
        <ele>179</ele>
        <time>2012-02-05T10:20:26Z</time>
      </trkpt>
      <trkpt lat="45.80298" lon="4.98527">
        <ele>179</ele>
        <time>2012-02-05T10:20:27Z</time>
      </trkpt>
      <trkpt lat="45.80302" lon="4.9851">
        <ele>178</ele>
        <time>2012-02-05T10:20:32Z</time>
      </trkpt>
      <trkpt lat="45.80303" lon="4.985">
        <ele>179</ele>
        <time>2012-02-05T10:20:35Z</time>
      </trkpt>
      <trkpt lat="45.80304" lon="4.98486">
        <ele>179</ele>
        <time>2012-02-05T10:20:39Z</time>
      </trkpt>
      <trkpt lat="45.80306" lon="4.98472">
        <ele>179</ele>
        <time>2012-02-05T10:20:43Z</time>
      </trkpt>
      <trkpt lat="45.80307" lon="4.98469">
        <ele>179</ele>
        <time>2012-02-05T10:20:44Z</time>
      </trkpt>
      <trkpt lat="45.80309" lon="4.9846">
        <ele>179</ele>
        <time>2012-02-05T10:20:47Z</time>
      </trkpt>
      <trkpt lat="45.80312" lon="4.98444">
        <ele>179</ele>
        <time>2012-02-05T10:20:51Z</time>
      </trkpt>
      <trkpt lat="45.80313" lon="4.98439">
        <ele>179</ele>
        <time>2012-02-05T10:20:52Z</time>
      </trkpt>
      <trkpt lat="45.80321" lon="4.98421">
        <ele>178</ele>
        <time>2012-02-05T10:20:57Z</time>
      </trkpt>
      <trkpt lat="45.80326" lon="4.98405">
        <ele>178</ele>
        <time>2012-02-05T10:21:02Z</time>
      </trkpt>
      <trkpt lat="45.80326" lon="4.98398">
        <ele>178</ele>
        <time>2012-02-05T10:21:07Z</time>
      </trkpt>
      <trkpt lat="45.80328" lon="4.98399">
        <ele>178</ele>
        <time>2012-02-05T10:21:12Z</time>
      </trkpt>
      <trkpt lat="45.80329" lon="4.98398">
        <ele>178</ele>
        <time>2012-02-05T10:21:13Z</time>
      </trkpt>
      <trkpt lat="45.80331" lon="4.98387">
        <ele>178</ele>
        <time>2012-02-05T10:21:17Z</time>
      </trkpt>
      <trkpt lat="45.80331" lon="4.98373">
        <ele>178</ele>
        <time>2012-02-05T10:21:21Z</time>
      </trkpt>
      <trkpt lat="45.80332" lon="4.98369">
        <ele>178</ele>
        <time>2012-02-05T10:21:22Z</time>
      </trkpt>
      <trkpt lat="45.80337" lon="4.98346">
        <ele>175</ele>
        <time>2012-02-05T10:21:28Z</time>
      </trkpt>
      <trkpt lat="45.80339" lon="4.98332">
        <ele>175</ele>
        <time>2012-02-05T10:21:32Z</time>
      </trkpt>
      <trkpt lat="45.80341" lon="4.98321">
        <ele>175</ele>
        <time>2012-02-05T10:21:35Z</time>
      </trkpt>
      <trkpt lat="45.80342" lon="4.98318">
        <ele>175</ele>
        <time>2012-02-05T10:21:36Z</time>
      </trkpt>
      <trkpt lat="45.80343" lon="4.983">
        <ele>174</ele>
        <time>2012-02-05T10:21:41Z</time>
      </trkpt>
      <trkpt lat="45.80343" lon="4.98293">
        <ele>174</ele>
        <time>2012-02-05T10:21:43Z</time>
      </trkpt>
      <trkpt lat="45.80343" lon="4.98286">
        <ele>174</ele>
        <time>2012-02-05T10:21:46Z</time>
      </trkpt>
      <trkpt lat="45.80342" lon="4.98283">
        <ele>174</ele>
        <time>2012-02-05T10:21:51Z</time>
      </trkpt>
      <trkpt lat="45.80343" lon="4.98281">
        <ele>174</ele>
        <time>2012-02-05T10:22:01Z</time>
      </trkpt>
      <trkpt lat="45.80341" lon="4.98277">
        <ele>174</ele>
        <time>2012-02-05T10:22:09Z</time>
      </trkpt>
      <trkpt lat="45.80342" lon="4.98275">
        <ele>174</ele>
        <time>2012-02-05T10:22:10Z</time>
      </trkpt>
      <trkpt lat="45.80344" lon="4.9827">
        <ele>174</ele>
        <time>2012-02-05T10:22:14Z</time>
      </trkpt>
      <trkpt lat="45.80344" lon="4.98268">
        <ele>174</ele>
        <time>2012-02-05T10:22:15Z</time>
      </trkpt>
      <trkpt lat="45.80345" lon="4.98262">
        <ele>175</ele>
        <time>2012-02-05T10:22:17Z</time>
      </trkpt>
      <trkpt lat="45.8035" lon="4.98242">
        <ele>175</ele>
        <time>2012-02-05T10:22:23Z</time>
      </trkpt>
      <trkpt lat="45.80355" lon="4.98233">
        <ele>175</ele>
        <time>2012-02-05T10:22:26Z</time>
      </trkpt>
      <trkpt lat="45.80358" lon="4.98231">
        <ele>175</ele>
        <time>2012-02-05T10:22:27Z</time>
      </trkpt>
      <trkpt lat="45.80365" lon="4.98226">
        <ele>174</ele>
        <time>2012-02-05T10:22:30Z</time>
      </trkpt>
      <trkpt lat="45.80367" lon="4.98224">
        <ele>174</ele>
        <time>2012-02-05T10:22:31Z</time>
      </trkpt>
      <trkpt lat="45.80372" lon="4.98218">
        <ele>174</ele>
        <time>2012-02-05T10:22:33Z</time>
      </trkpt>
      <trkpt lat="45.80374" lon="4.98212">
        <ele>174</ele>
        <time>2012-02-05T10:22:35Z</time>
      </trkpt>
      <trkpt lat="45.80378" lon="4.98204">
        <ele>174</ele>
        <time>2012-02-05T10:22:38Z</time>
      </trkpt>
      <trkpt lat="45.8038" lon="4.98197">
        <ele>174</ele>
        <time>2012-02-05T10:22:40Z</time>
      </trkpt>
      <trkpt lat="45.80385" lon="4.98187">
        <ele>174</ele>
        <time>2012-02-05T10:22:43Z</time>
      </trkpt>
      <trkpt lat="45.80386" lon="4.98184">
        <ele>174</ele>
        <time>2012-02-05T10:22:44Z</time>
      </trkpt>
      <trkpt lat="45.80388" lon="4.98181">
        <ele>174</ele>
        <time>2012-02-05T10:22:45Z</time>
      </trkpt>
      <trkpt lat="45.80393" lon="4.98169">
        <ele>174</ele>
        <time>2012-02-05T10:22:49Z</time>
      </trkpt>
      <trkpt lat="45.80394" lon="4.98159">
        <ele>175</ele>
        <time>2012-02-05T10:22:54Z</time>
      </trkpt>
      <trkpt lat="45.80394" lon="4.98157">
        <ele>175</ele>
        <time>2012-02-05T10:22:55Z</time>
      </trkpt>
      <trkpt lat="45.8039" lon="4.98147">
        <ele>175</ele>
        <time>2012-02-05T10:23:01Z</time>
      </trkpt>
      <trkpt lat="45.80383" lon="4.98138">
        <ele>175</ele>
        <time>2012-02-05T10:23:09Z</time>
      </trkpt>
      <trkpt lat="45.80383" lon="4.98136">
        <ele>175</ele>
        <time>2012-02-05T10:23:10Z</time>
      </trkpt>
      <trkpt lat="45.80378" lon="4.9813">
        <ele>175</ele>
        <time>2012-02-05T10:23:13Z</time>
      </trkpt>
      <trkpt lat="45.80377" lon="4.98126">
        <ele>175</ele>
        <time>2012-02-05T10:23:14Z</time>
      </trkpt>
      <trkpt lat="45.80373" lon="4.98113">
        <ele>175</ele>
        <time>2012-02-05T10:23:18Z</time>
      </trkpt>
      <trkpt lat="45.80366" lon="4.98098">
        <ele>175</ele>
        <time>2012-02-05T10:23:22Z</time>
      </trkpt>
      <trkpt lat="45.80363" lon="4.98096">
        <ele>175</ele>
        <time>2012-02-05T10:23:23Z</time>
      </trkpt>
      <trkpt lat="45.80358" lon="4.98094">
        <ele>175</ele>
        <time>2012-02-05T10:23:25Z</time>
      </trkpt>
      <trkpt lat="45.80356" lon="4.98092">
        <ele>175</ele>
        <time>2012-02-05T10:23:26Z</time>
      </trkpt>
      <trkpt lat="45.80345" lon="4.98088">
        <ele>175</ele>
        <time>2012-02-05T10:23:31Z</time>
      </trkpt>
      <trkpt lat="45.80342" lon="4.98083">
        <ele>174</ele>
        <time>2012-02-05T10:23:34Z</time>
      </trkpt>
      <trkpt lat="45.80341" lon="4.98083">
        <ele>174</ele>
        <time>2012-02-05T10:23:35Z</time>
      </trkpt>
      <trkpt lat="45.8034" lon="4.98079">
        <ele>174</ele>
        <time>2012-02-05T10:23:42Z</time>
      </trkpt>
      <trkpt lat="45.80341" lon="4.98076">
        <ele>174</ele>
        <time>2012-02-05T10:23:44Z</time>
      </trkpt>
      <trkpt lat="45.80347" lon="4.98068">
        <ele>175</ele>
        <time>2012-02-05T10:23:50Z</time>
      </trkpt>
      <trkpt lat="45.80349" lon="4.98065">
        <ele>175</ele>
        <time>2012-02-05T10:23:52Z</time>
      </trkpt>
      <trkpt lat="45.8035" lon="4.98064">
        <ele>175</ele>
        <time>2012-02-05T10:23:53Z</time>
      </trkpt>
      <trkpt lat="45.80357" lon="4.98055">
        <ele>175</ele>
        <time>2012-02-05T10:24:00Z</time>
      </trkpt>
      <trkpt lat="45.80364" lon="4.98046">
        <ele>175</ele>
        <time>2012-02-05T10:24:06Z</time>
      </trkpt>
      <trkpt lat="45.80367" lon="4.98043">
        <ele>175</ele>
        <time>2012-02-05T10:24:09Z</time>
      </trkpt>
      <trkpt lat="45.80376" lon="4.98035">
        <ele>175</ele>
        <time>2012-02-05T10:24:17Z</time>
      </trkpt>
      <trkpt lat="45.8038" lon="4.98032">
        <ele>175</ele>
        <time>2012-02-05T10:24:21Z</time>
      </trkpt>
      <trkpt lat="45.80383" lon="4.98028">
        <ele>175</ele>
        <time>2012-02-05T10:24:25Z</time>
      </trkpt>
      <trkpt lat="45.80386" lon="4.98019">
        <ele>175</ele>
        <time>2012-02-05T10:24:31Z</time>
      </trkpt>
      <trkpt lat="45.80388" lon="4.9801">
        <ele>175</ele>
        <time>2012-02-05T10:24:36Z</time>
      </trkpt>
      <trkpt lat="45.80389" lon="4.98007">
        <ele>175</ele>
        <time>2012-02-05T10:24:38Z</time>
      </trkpt>
      <trkpt lat="45.8039" lon="4.97994">
        <ele>175</ele>
        <time>2012-02-05T10:24:45Z</time>
      </trkpt>
      <trkpt lat="45.80389" lon="4.97985">
        <ele>175</ele>
        <time>2012-02-05T10:24:51Z</time>
      </trkpt>
      <trkpt lat="45.80389" lon="4.97983">
        <ele>174</ele>
        <time>2012-02-05T10:24:52Z</time>
      </trkpt>
      <trkpt lat="45.8039" lon="4.9797">
        <ele>174</ele>
        <time>2012-02-05T10:24:58Z</time>
      </trkpt>
      <trkpt lat="45.80389" lon="4.97969">
        <ele>174</ele>
        <time>2012-02-05T10:25:07Z</time>
      </trkpt>
      <trkpt lat="45.80389" lon="4.97967">
        <ele>174</ele>
        <time>2012-02-05T10:25:17Z</time>
      </trkpt>
      <trkpt lat="45.8039" lon="4.97963">
        <ele>174</ele>
        <time>2012-02-05T10:25:25Z</time>
      </trkpt>
      <trkpt lat="45.8039" lon="4.97964">
        <ele>174</ele>
        <time>2012-02-05T10:25:26Z</time>
      </trkpt>
      <trkpt lat="45.80388" lon="4.97965">
        <ele>174</ele>
        <time>2012-02-05T10:25:27Z</time>
      </trkpt>
      <trkpt lat="45.80387" lon="4.97962">
        <ele>174</ele>
        <time>2012-02-05T10:25:29Z</time>
      </trkpt>
      <trkpt lat="45.80385" lon="4.97955">
        <ele>174</ele>
        <time>2012-02-05T10:25:31Z</time>
      </trkpt>
      <trkpt lat="45.80382" lon="4.97947">
        <ele>174</ele>
        <time>2012-02-05T10:25:33Z</time>
      </trkpt>
      <trkpt lat="45.8038" lon="4.97943">
        <ele>174</ele>
        <time>2012-02-05T10:25:34Z</time>
      </trkpt>
      <trkpt lat="45.80379" lon="4.97937">
        <ele>174</ele>
        <time>2012-02-05T10:25:37Z</time>
      </trkpt>
      <trkpt lat="45.80376" lon="4.97933">
        <ele>174</ele>
        <time>2012-02-05T10:25:47Z</time>
      </trkpt>
      <trkpt lat="45.80374" lon="4.97932">
        <ele>174</ele>
        <time>2012-02-05T10:25:49Z</time>
      </trkpt>
      <trkpt lat="45.80367" lon="4.97925">
        <ele>174</ele>
        <time>2012-02-05T10:25:56Z</time>
      </trkpt>
      <trkpt lat="45.80366" lon="4.97924">
        <ele>174</ele>
        <time>2012-02-05T10:25:57Z</time>
      </trkpt>
      <trkpt lat="45.80358" lon="4.97919">
        <ele>174</ele>
        <time>2012-02-05T10:26:05Z</time>
      </trkpt>
      <trkpt lat="45.80349" lon="4.97914">
        <ele>173</ele>
        <time>2012-02-05T10:26:11Z</time>
      </trkpt>
      <trkpt lat="45.80345" lon="4.97911">
        <ele>173</ele>
        <time>2012-02-05T10:26:13Z</time>
      </trkpt>
      <trkpt lat="45.80332" lon="4.97904">
        <ele>174</ele>
        <time>2012-02-05T10:26:17Z</time>
      </trkpt>
      <trkpt lat="45.80329" lon="4.97902">
        <ele>174</ele>
        <time>2012-02-05T10:26:18Z</time>
      </trkpt>
      <trkpt lat="45.80314" lon="4.97897">
        <ele>174</ele>
        <time>2012-02-05T10:26:23Z</time>
      </trkpt>
      <trkpt lat="45.80311" lon="4.97896">
        <ele>174</ele>
        <time>2012-02-05T10:26:24Z</time>
      </trkpt>
      <trkpt lat="45.80296" lon="4.97894">
        <ele>175</ele>
        <time>2012-02-05T10:26:29Z</time>
      </trkpt>
      <trkpt lat="45.80293" lon="4.97893">
        <ele>175</ele>
        <time>2012-02-05T10:26:30Z</time>
      </trkpt>
      <trkpt lat="45.80281" lon="4.97884">
        <ele>175</ele>
        <time>2012-02-05T10:26:35Z</time>
      </trkpt>
      <trkpt lat="45.80276" lon="4.97879">
        <ele>175</ele>
        <time>2012-02-05T10:26:37Z</time>
      </trkpt>
      <trkpt lat="45.80268" lon="4.97872">
        <ele>175</ele>
        <time>2012-02-05T10:26:40Z</time>
      </trkpt>
      <trkpt lat="45.8026" lon="4.97863">
        <ele>175</ele>
        <time>2012-02-05T10:26:44Z</time>
      </trkpt>
      <trkpt lat="45.80254" lon="4.97855">
        <ele>175</ele>
        <time>2012-02-05T10:26:47Z</time>
      </trkpt>
      <trkpt lat="45.80245" lon="4.97843">
        <ele>175</ele>
        <time>2012-02-05T10:26:52Z</time>
      </trkpt>
      <trkpt lat="45.80244" lon="4.9784">
        <ele>175</ele>
        <time>2012-02-05T10:26:53Z</time>
      </trkpt>
      <trkpt lat="45.80233" lon="4.97824">
        <ele>175</ele>
        <time>2012-02-05T10:26:59Z</time>
      </trkpt>
      <trkpt lat="45.80222" lon="4.97812">
        <ele>174</ele>
        <time>2012-02-05T10:27:04Z</time>
      </trkpt>
      <trkpt lat="45.80219" lon="4.97806">
        <ele>174</ele>
        <time>2012-02-05T10:27:06Z</time>
      </trkpt>
      <trkpt lat="45.80213" lon="4.97798">
        <ele>174</ele>
        <time>2012-02-05T10:27:09Z</time>
      </trkpt>
      <trkpt lat="45.80204" lon="4.97787">
        <ele>174</ele>
        <time>2012-02-05T10:27:13Z</time>
      </trkpt>
      <trkpt lat="45.80201" lon="4.9778">
        <ele>174</ele>
        <time>2012-02-05T10:27:15Z</time>
      </trkpt>
      <trkpt lat="45.80193" lon="4.97772">
        <ele>174</ele>
        <time>2012-02-05T10:27:19Z</time>
      </trkpt>
      <trkpt lat="45.80191" lon="4.97771">
        <ele>174</ele>
        <time>2012-02-05T10:27:20Z</time>
      </trkpt>
      <trkpt lat="45.80181" lon="4.9776">
        <ele>174</ele>
        <time>2012-02-05T10:27:25Z</time>
      </trkpt>
      <trkpt lat="45.80177" lon="4.97754">
        <ele>174</ele>
        <time>2012-02-05T10:27:27Z</time>
      </trkpt>
      <trkpt lat="45.80171" lon="4.97746">
        <ele>175</ele>
        <time>2012-02-05T10:27:30Z</time>
      </trkpt>
      <trkpt lat="45.80167" lon="4.97742">
        <ele>175</ele>
        <time>2012-02-05T10:27:32Z</time>
      </trkpt>
      <trkpt lat="45.80161" lon="4.97742">
        <ele>175</ele>
        <time>2012-02-05T10:27:35Z</time>
      </trkpt>
      <trkpt lat="45.80157" lon="4.9775">
        <ele>175</ele>
        <time>2012-02-05T10:27:38Z</time>
      </trkpt>
      <trkpt lat="45.80156" lon="4.97752">
        <ele>174</ele>
        <time>2012-02-05T10:27:39Z</time>
      </trkpt>
      <trkpt lat="45.80151" lon="4.97763">
        <ele>173</ele>
        <time>2012-02-05T10:27:43Z</time>
      </trkpt>
      <trkpt lat="45.80147" lon="4.97767">
        <ele>172</ele>
        <time>2012-02-05T10:27:45Z</time>
      </trkpt>
      <trkpt lat="45.80138" lon="4.97776">
        <ele>172</ele>
        <time>2012-02-05T10:27:52Z</time>
      </trkpt>
      <trkpt lat="45.80136" lon="4.97778">
        <ele>172</ele>
        <time>2012-02-05T10:27:58Z</time>
      </trkpt>
      <trkpt lat="45.80135" lon="4.97779">
        <ele>172</ele>
        <time>2012-02-05T10:28:05Z</time>
      </trkpt>
      <trkpt lat="45.80134" lon="4.97779">
        <ele>172</ele>
        <time>2012-02-05T10:28:06Z</time>
      </trkpt>
      <trkpt lat="45.80127" lon="4.97782">
        <ele>171</ele>
        <time>2012-02-05T10:28:12Z</time>
      </trkpt>
      <trkpt lat="45.80119" lon="4.97782">
        <ele>171</ele>
        <time>2012-02-05T10:28:20Z</time>
      </trkpt>
      <trkpt lat="45.80117" lon="4.97781">
        <ele>171</ele>
        <time>2012-02-05T10:28:22Z</time>
      </trkpt>
      <trkpt lat="45.80113" lon="4.97774">
        <ele>171</ele>
        <time>2012-02-05T10:28:27Z</time>
      </trkpt>
      <trkpt lat="45.80109" lon="4.97761">
        <ele>171</ele>
        <time>2012-02-05T10:28:31Z</time>
      </trkpt>
      <trkpt lat="45.80109" lon="4.97757">
        <ele>171</ele>
        <time>2012-02-05T10:28:32Z</time>
      </trkpt>
      <trkpt lat="45.80108" lon="4.97739">
        <ele>173</ele>
        <time>2012-02-05T10:28:36Z</time>
      </trkpt>
      <trkpt lat="45.80107" lon="4.9773">
        <ele>173</ele>
        <time>2012-02-05T10:28:38Z</time>
      </trkpt>
      <trkpt lat="45.80106" lon="4.97721">
        <ele>173</ele>
        <time>2012-02-05T10:28:40Z</time>
      </trkpt>
      <trkpt lat="45.80106" lon="4.97702">
        <ele>174</ele>
        <time>2012-02-05T10:28:45Z</time>
      </trkpt>
      <trkpt lat="45.80106" lon="4.97693">
        <ele>174</ele>
        <time>2012-02-05T10:28:47Z</time>
      </trkpt>
      <trkpt lat="45.80106" lon="4.97678">
        <ele>175</ele>
        <time>2012-02-05T10:28:51Z</time>
      </trkpt>
      <trkpt lat="45.80106" lon="4.97674">
        <ele>175</ele>
        <time>2012-02-05T10:28:52Z</time>
      </trkpt>
      <trkpt lat="45.80107" lon="4.97661">
        <ele>175</ele>
        <time>2012-02-05T10:28:55Z</time>
      </trkpt>
      <trkpt lat="45.80108" lon="4.97658">
        <ele>175</ele>
        <time>2012-02-05T10:28:56Z</time>
      </trkpt>
      <trkpt lat="45.80109" lon="4.97647">
        <ele>175</ele>
        <time>2012-02-05T10:28:59Z</time>
      </trkpt>
      <trkpt lat="45.80104" lon="4.9763">
        <ele>174</ele>
        <time>2012-02-05T10:29:04Z</time>
      </trkpt>
      <trkpt lat="45.80103" lon="4.97626">
        <ele>174</ele>
        <time>2012-02-05T10:29:05Z</time>
      </trkpt>
      <trkpt lat="45.80102" lon="4.97624">
        <ele>174</ele>
        <time>2012-02-05T10:29:06Z</time>
      </trkpt>
      <trkpt lat="45.80096" lon="4.97615">
        <ele>174</ele>
        <time>2012-02-05T10:29:09Z</time>
      </trkpt>
      <trkpt lat="45.80089" lon="4.97604">
        <ele>174</ele>
        <time>2012-02-05T10:29:14Z</time>
      </trkpt>
      <trkpt lat="45.80077" lon="4.9759">
        <ele>174</ele>
        <time>2012-02-05T10:29:20Z</time>
      </trkpt>
      <trkpt lat="45.80074" lon="4.97587">
        <ele>174</ele>
        <time>2012-02-05T10:29:21Z</time>
      </trkpt>
      <trkpt lat="45.80061" lon="4.97573">
        <ele>174</ele>
        <time>2012-02-05T10:29:27Z</time>
      </trkpt>
      <trkpt lat="45.80058" lon="4.97571">
        <ele>174</ele>
        <time>2012-02-05T10:29:28Z</time>
      </trkpt>
      <trkpt lat="45.80045" lon="4.97554">
        <ele>173</ele>
        <time>2012-02-05T10:29:35Z</time>
      </trkpt>
      <trkpt lat="45.80043" lon="4.97552">
        <ele>173</ele>
        <time>2012-02-05T10:29:36Z</time>
      </trkpt>
      <trkpt lat="45.80033" lon="4.97541">
        <ele>173</ele>
        <time>2012-02-05T10:29:41Z</time>
      </trkpt>
      <trkpt lat="45.80029" lon="4.97536">
        <ele>173</ele>
        <time>2012-02-05T10:29:43Z</time>
      </trkpt>
      <trkpt lat="45.80019" lon="4.97526">
        <ele>174</ele>
        <time>2012-02-05T10:29:47Z</time>
      </trkpt>
      <trkpt lat="45.80013" lon="4.97519">
        <ele>174</ele>
        <time>2012-02-05T10:29:50Z</time>
      </trkpt>
      <trkpt lat="45.80006" lon="4.97512">
        <ele>175</ele>
        <time>2012-02-05T10:29:53Z</time>
      </trkpt>
      <trkpt lat="45.79998" lon="4.97502">
        <ele>176</ele>
        <time>2012-02-05T10:29:57Z</time>
      </trkpt>
      <trkpt lat="45.79996" lon="4.975">
        <ele>175</ele>
        <time>2012-02-05T10:29:58Z</time>
      </trkpt>
      <trkpt lat="45.79983" lon="4.97485">
        <ele>174</ele>
        <time>2012-02-05T10:30:05Z</time>
      </trkpt>
      <trkpt lat="45.79977" lon="4.97478">
        <ele>173</ele>
        <time>2012-02-05T10:30:08Z</time>
      </trkpt>
      <trkpt lat="45.79968" lon="4.97465">
        <ele>172</ele>
        <time>2012-02-05T10:30:13Z</time>
      </trkpt>
      <trkpt lat="45.79966" lon="4.97463">
        <ele>172</ele>
        <time>2012-02-05T10:30:14Z</time>
      </trkpt>
      <trkpt lat="45.79955" lon="4.97446">
        <ele>172</ele>
        <time>2012-02-05T10:30:21Z</time>
      </trkpt>
      <trkpt lat="45.7994" lon="4.97428">
        <ele>172</ele>
        <time>2012-02-05T10:30:29Z</time>
      </trkpt>
      <trkpt lat="45.79929" lon="4.97417">
        <ele>173</ele>
        <time>2012-02-05T10:30:34Z</time>
      </trkpt>
      <trkpt lat="45.79926" lon="4.97412">
        <ele>172</ele>
        <time>2012-02-05T10:30:36Z</time>
      </trkpt>
      <trkpt lat="45.79918" lon="4.97403">
        <ele>172</ele>
        <time>2012-02-05T10:30:40Z</time>
      </trkpt>
      <trkpt lat="45.79912" lon="4.97392">
        <ele>172</ele>
        <time>2012-02-05T10:30:44Z</time>
      </trkpt>
      <trkpt lat="45.79911" lon="4.97389">
        <ele>172</ele>
        <time>2012-02-05T10:30:45Z</time>
      </trkpt>
      <trkpt lat="45.79904" lon="4.97373">
        <ele>172</ele>
        <time>2012-02-05T10:30:51Z</time>
      </trkpt>
      <trkpt lat="45.79902" lon="4.9737">
        <ele>172</ele>
        <time>2012-02-05T10:30:53Z</time>
      </trkpt>
      <trkpt lat="45.79898" lon="4.97363">
        <ele>172</ele>
        <time>2012-02-05T10:30:58Z</time>
      </trkpt>
      <trkpt lat="45.79892" lon="4.97353">
        <ele>172</ele>
        <time>2012-02-05T10:31:05Z</time>
      </trkpt>
      <trkpt lat="45.7989" lon="4.97351">
        <ele>172</ele>
        <time>2012-02-05T10:31:07Z</time>
      </trkpt>
      <trkpt lat="45.7988" lon="4.97341">
        <ele>172</ele>
        <time>2012-02-05T10:31:15Z</time>
      </trkpt>
      <trkpt lat="45.79874" lon="4.97336">
        <ele>172</ele>
        <time>2012-02-05T10:31:20Z</time>
      </trkpt>
      <trkpt lat="45.79871" lon="4.97333">
        <ele>172</ele>
        <time>2012-02-05T10:31:23Z</time>
      </trkpt>
      <trkpt lat="45.79862" lon="4.97328">
        <ele>173</ele>
        <time>2012-02-05T10:31:31Z</time>
      </trkpt>
      <trkpt lat="45.79858" lon="4.97325">
        <ele>173</ele>
        <time>2012-02-05T10:31:35Z</time>
      </trkpt>
      <trkpt lat="45.79854" lon="4.97322">
        <ele>173</ele>
        <time>2012-02-05T10:31:37Z</time>
      </trkpt>
      <trkpt lat="45.79851" lon="4.9731">
        <ele>173</ele>
        <time>2012-02-05T10:31:41Z</time>
      </trkpt>
      <trkpt lat="45.79851" lon="4.97306">
        <ele>173</ele>
        <time>2012-02-05T10:31:42Z</time>
      </trkpt>
      <trkpt lat="45.79851" lon="4.97303">
        <ele>173</ele>
        <time>2012-02-05T10:31:43Z</time>
      </trkpt>
      <trkpt lat="45.7985" lon="4.9729">
        <ele>173</ele>
        <time>2012-02-05T10:31:46Z</time>
      </trkpt>
      <trkpt lat="45.79846" lon="4.97279">
        <ele>173</ele>
        <time>2012-02-05T10:31:50Z</time>
      </trkpt>
      <trkpt lat="45.79846" lon="4.97275">
        <ele>174</ele>
        <time>2012-02-05T10:31:51Z</time>
      </trkpt>
      <trkpt lat="45.79845" lon="4.97262">
        <ele>174</ele>
        <time>2012-02-05T10:31:55Z</time>
      </trkpt>
      <trkpt lat="45.79847" lon="4.97249">
        <ele>175</ele>
        <time>2012-02-05T10:32:00Z</time>
      </trkpt>
      <trkpt lat="45.79849" lon="4.97243">
        <ele>174</ele>
        <time>2012-02-05T10:32:03Z</time>
      </trkpt>
      <trkpt lat="45.79853" lon="4.97227">
        <ele>174</ele>
        <time>2012-02-05T10:32:12Z</time>
      </trkpt>
      <trkpt lat="45.79854" lon="4.97223">
        <ele>174</ele>
        <time>2012-02-05T10:32:14Z</time>
      </trkpt>
      <trkpt lat="45.79857" lon="4.97207">
        <ele>173</ele>
        <time>2012-02-05T10:32:22Z</time>
      </trkpt>
      <trkpt lat="45.79858" lon="4.97198">
        <ele>173</ele>
        <time>2012-02-05T10:32:26Z</time>
      </trkpt>
      <trkpt lat="45.79859" lon="4.97187">
        <ele>173</ele>
        <time>2012-02-05T10:32:31Z</time>
      </trkpt>
      <trkpt lat="45.7986" lon="4.97171">
        <ele>173</ele>
        <time>2012-02-05T10:32:39Z</time>
      </trkpt>
      <trkpt lat="45.79861" lon="4.97153">
        <ele>174</ele>
        <time>2012-02-05T10:32:45Z</time>
      </trkpt>
      <trkpt lat="45.79862" lon="4.97145">
        <ele>174</ele>
        <time>2012-02-05T10:32:47Z</time>
      </trkpt>
      <trkpt lat="45.79863" lon="4.97123">
        <ele>174</ele>
        <time>2012-02-05T10:32:52Z</time>
      </trkpt>
      <trkpt lat="45.79863" lon="4.97119">
        <ele>174</ele>
        <time>2012-02-05T10:32:53Z</time>
      </trkpt>
      <trkpt lat="45.79865" lon="4.97099">
        <ele>174</ele>
        <time>2012-02-05T10:32:58Z</time>
      </trkpt>
      <trkpt lat="45.79864" lon="4.97091">
        <ele>174</ele>
        <time>2012-02-05T10:33:00Z</time>
      </trkpt>
      <trkpt lat="45.79861" lon="4.9708">
        <ele>176</ele>
        <time>2012-02-05T10:33:03Z</time>
      </trkpt>
      <trkpt lat="45.79852" lon="4.9707">
        <ele>176</ele>
        <time>2012-02-05T10:33:07Z</time>
      </trkpt>
      <trkpt lat="45.79849" lon="4.97068">
        <ele>176</ele>
        <time>2012-02-05T10:33:08Z</time>
      </trkpt>
      <trkpt lat="45.79835" lon="4.97063">
        <ele>176</ele>
        <time>2012-02-05T10:33:13Z</time>
      </trkpt>
      <trkpt lat="45.79829" lon="4.9706">
        <ele>176</ele>
        <time>2012-02-05T10:33:15Z</time>
      </trkpt>
      <trkpt lat="45.79817" lon="4.97059">
        <ele>176</ele>
        <time>2012-02-05T10:33:19Z</time>
      </trkpt>
      <trkpt lat="45.79814" lon="4.97058">
        <ele>176</ele>
        <time>2012-02-05T10:33:20Z</time>
      </trkpt>
      <trkpt lat="45.79802" lon="4.97048">
        <ele>176</ele>
        <time>2012-02-05T10:33:25Z</time>
      </trkpt>
      <trkpt lat="45.798" lon="4.97045">
        <ele>176</ele>
        <time>2012-02-05T10:33:26Z</time>
      </trkpt>
      <trkpt lat="45.79789" lon="4.97028">
        <ele>176</ele>
        <time>2012-02-05T10:33:32Z</time>
      </trkpt>
      <trkpt lat="45.79787" lon="4.97025">
        <ele>176</ele>
        <time>2012-02-05T10:33:33Z</time>
      </trkpt>
      <trkpt lat="45.79782" lon="4.97013">
        <ele>176</ele>
        <time>2012-02-05T10:33:36Z</time>
      </trkpt>
      <trkpt lat="45.7978" lon="4.97">
        <ele>176</ele>
        <time>2012-02-05T10:33:41Z</time>
      </trkpt>
      <trkpt lat="45.79782" lon="4.96989">
        <ele>176</ele>
        <time>2012-02-05T10:33:47Z</time>
      </trkpt>
      <trkpt lat="45.79783" lon="4.96972">
        <ele>176</ele>
        <time>2012-02-05T10:33:52Z</time>
      </trkpt>
      <trkpt lat="45.79786" lon="4.96947">
        <ele>176</ele>
        <time>2012-02-05T10:33:58Z</time>
      </trkpt>
      <trkpt lat="45.79787" lon="4.96943">
        <ele>176</ele>
        <time>2012-02-05T10:33:59Z</time>
      </trkpt>
      <trkpt lat="45.79791" lon="4.9692">
        <ele>176</ele>
        <time>2012-02-05T10:34:05Z</time>
      </trkpt>
      <trkpt lat="45.79791" lon="4.96917">
        <ele>176</ele>
        <time>2012-02-05T10:34:06Z</time>
      </trkpt>
      <trkpt lat="45.79792" lon="4.96907">
        <ele>175</ele>
        <time>2012-02-05T10:34:10Z</time>
      </trkpt>
      <trkpt lat="45.79798" lon="4.96892">
        <ele>175</ele>
        <time>2012-02-05T10:34:16Z</time>
      </trkpt>
      <trkpt lat="45.7981" lon="4.96881">
        <ele>175</ele>
        <time>2012-02-05T10:34:21Z</time>
      </trkpt>
      <trkpt lat="45.79815" lon="4.96876">
        <ele>175</ele>
        <time>2012-02-05T10:34:23Z</time>
      </trkpt>
      <trkpt lat="45.79823" lon="4.96866">
        <ele>174</ele>
        <time>2012-02-05T10:34:27Z</time>
      </trkpt>
      <trkpt lat="45.7983" lon="4.96859">
        <ele>174</ele>
        <time>2012-02-05T10:34:30Z</time>
      </trkpt>
      <trkpt lat="45.79839" lon="4.96849">
        <ele>174</ele>
        <time>2012-02-05T10:34:34Z</time>
      </trkpt>
      <trkpt lat="45.79845" lon="4.96841">
        <ele>174</ele>
        <time>2012-02-05T10:34:37Z</time>
      </trkpt>
      <trkpt lat="45.79851" lon="4.96832">
        <ele>173</ele>
        <time>2012-02-05T10:34:40Z</time>
      </trkpt>
      <trkpt lat="45.79859" lon="4.96821">
        <ele>173</ele>
        <time>2012-02-05T10:34:44Z</time>
      </trkpt>
      <trkpt lat="45.79865" lon="4.96814">
        <ele>173</ele>
        <time>2012-02-05T10:34:47Z</time>
      </trkpt>
      <trkpt lat="45.79873" lon="4.96804">
        <ele>173</ele>
        <time>2012-02-05T10:34:51Z</time>
      </trkpt>
      <trkpt lat="45.79877" lon="4.96799">
        <ele>173</ele>
        <time>2012-02-05T10:34:53Z</time>
      </trkpt>
      <trkpt lat="45.79887" lon="4.96788">
        <ele>173</ele>
        <time>2012-02-05T10:34:58Z</time>
      </trkpt>
      <trkpt lat="45.7989" lon="4.96788">
        <ele>173</ele>
        <time>2012-02-05T10:34:59Z</time>
      </trkpt>
      <trkpt lat="45.79901" lon="4.96783">
        <ele>173</ele>
        <time>2012-02-05T10:35:04Z</time>
      </trkpt>
      <trkpt lat="45.79903" lon="4.96778">
        <ele>173</ele>
        <time>2012-02-05T10:35:06Z</time>
      </trkpt>
      <trkpt lat="45.79906" lon="4.96768">
        <ele>173</ele>
        <time>2012-02-05T10:35:09Z</time>
      </trkpt>
      <trkpt lat="45.79916" lon="4.96757">
        <ele>173</ele>
        <time>2012-02-05T10:35:14Z</time>
      </trkpt>
      <trkpt lat="45.79928" lon="4.96746">
        <ele>174</ele>
        <time>2012-02-05T10:35:20Z</time>
      </trkpt>
      <trkpt lat="45.79933" lon="4.96744">
        <ele>174</ele>
        <time>2012-02-05T10:35:22Z</time>
      </trkpt>
      <trkpt lat="45.7994" lon="4.96743">
        <ele>174</ele>
        <time>2012-02-05T10:35:25Z</time>
      </trkpt>
      <trkpt lat="45.79953" lon="4.96741">
        <ele>174</ele>
        <time>2012-02-05T10:35:30Z</time>
      </trkpt>
      <trkpt lat="45.79956" lon="4.9674">
        <ele>174</ele>
        <time>2012-02-05T10:35:31Z</time>
      </trkpt>
      <trkpt lat="45.79969" lon="4.96736">
        <ele>175</ele>
        <time>2012-02-05T10:35:37Z</time>
      </trkpt>
      <trkpt lat="45.79972" lon="4.96736">
        <ele>175</ele>
        <time>2012-02-05T10:35:39Z</time>
      </trkpt>
      <trkpt lat="45.79976" lon="4.96735">
        <ele>175</ele>
        <time>2012-02-05T10:35:42Z</time>
      </trkpt>
      <trkpt lat="45.79989" lon="4.96731">
        <ele>175</ele>
        <time>2012-02-05T10:35:47Z</time>
      </trkpt>
      <trkpt lat="45.79994" lon="4.9673">
        <ele>175</ele>
        <time>2012-02-05T10:35:49Z</time>
      </trkpt>
      <trkpt lat="45.79999" lon="4.96729">
        <ele>175</ele>
        <time>2012-02-05T10:35:52Z</time>
      </trkpt>
      <trkpt lat="45.79999" lon="4.96728">
        <ele>175</ele>
        <time>2012-02-05T10:35:53Z</time>
      </trkpt>
      <trkpt lat="45.8" lon="4.96724">
        <ele>176</ele>
        <time>2012-02-05T10:35:56Z</time>
      </trkpt>
      <trkpt lat="45.80002" lon="4.96719">
        <ele>176</ele>
        <time>2012-02-05T10:35:59Z</time>
      </trkpt>
      <trkpt lat="45.80003" lon="4.96718">
        <ele>176</ele>
        <time>2012-02-05T10:36:00Z</time>
      </trkpt>
      <trkpt lat="45.8001" lon="4.96708">
        <ele>176</ele>
        <time>2012-02-05T10:36:05Z</time>
      </trkpt>
      <trkpt lat="45.80015" lon="4.96696">
        <ele>176</ele>
        <time>2012-02-05T10:36:09Z</time>
      </trkpt>
      <trkpt lat="45.80026" lon="4.96686">
        <ele>176</ele>
        <time>2012-02-05T10:36:14Z</time>
      </trkpt>
      <trkpt lat="45.80029" lon="4.96679">
        <ele>176</ele>
        <time>2012-02-05T10:36:16Z</time>
      </trkpt>
      <trkpt lat="45.80035" lon="4.96671">
        <ele>177</ele>
        <time>2012-02-05T10:36:19Z</time>
      </trkpt>
      <trkpt lat="45.80042" lon="4.96659">
        <ele>178</ele>
        <time>2012-02-05T10:36:23Z</time>
      </trkpt>
      <trkpt lat="45.80044" lon="4.96656">
        <ele>178</ele>
        <time>2012-02-05T10:36:24Z</time>
      </trkpt>
      <trkpt lat="45.80047" lon="4.96641">
        <ele>178</ele>
        <time>2012-02-05T10:36:29Z</time>
      </trkpt>
      <trkpt lat="45.80048" lon="4.96634">
        <ele>178</ele>
        <time>2012-02-05T10:36:31Z</time>
      </trkpt>
      <trkpt lat="45.80048" lon="4.96626">
        <ele>178</ele>
        <time>2012-02-05T10:36:33Z</time>
      </trkpt>
      <trkpt lat="45.80047" lon="4.96608">
        <ele>178</ele>
        <time>2012-02-05T10:36:38Z</time>
      </trkpt>
      <trkpt lat="45.80047" lon="4.96604">
        <ele>178</ele>
        <time>2012-02-05T10:36:39Z</time>
      </trkpt>
      <trkpt lat="45.80046" lon="4.96581">
        <ele>179</ele>
        <time>2012-02-05T10:36:45Z</time>
      </trkpt>
      <trkpt lat="45.80047" lon="4.96559">
        <ele>179</ele>
        <time>2012-02-05T10:36:51Z</time>
      </trkpt>
      <trkpt lat="45.80047" lon="4.96555">
        <ele>179</ele>
        <time>2012-02-05T10:36:52Z</time>
      </trkpt>
      <trkpt lat="45.80046" lon="4.96537">
        <ele>179</ele>
        <time>2012-02-05T10:36:57Z</time>
      </trkpt>
      <trkpt lat="45.80047" lon="4.96525">
        <ele>179</ele>
        <time>2012-02-05T10:37:00Z</time>
      </trkpt>
      <trkpt lat="45.80046" lon="4.96514">
        <ele>179</ele>
        <time>2012-02-05T10:37:03Z</time>
      </trkpt>
      <trkpt lat="45.80047" lon="4.96496">
        <ele>178</ele>
        <time>2012-02-05T10:37:08Z</time>
      </trkpt>
      <trkpt lat="45.80048" lon="4.96474">
        <ele>178</ele>
        <time>2012-02-05T10:37:14Z</time>
      </trkpt>
      <trkpt lat="45.80047" lon="4.96471">
        <ele>178</ele>
        <time>2012-02-05T10:37:15Z</time>
      </trkpt>
      <trkpt lat="45.80047" lon="4.96455">
        <ele>178</ele>
        <time>2012-02-05T10:37:19Z</time>
      </trkpt>
      <trkpt lat="45.80046" lon="4.96444">
        <ele>178</ele>
        <time>2012-02-05T10:37:22Z</time>
      </trkpt>
      <trkpt lat="45.80045" lon="4.96432">
        <ele>178</ele>
        <time>2012-02-05T10:37:25Z</time>
      </trkpt>
      <trkpt lat="45.80043" lon="4.96417">
        <ele>178</ele>
        <time>2012-02-05T10:37:29Z</time>
      </trkpt>
      <trkpt lat="45.80043" lon="4.96413">
        <ele>177</ele>
        <time>2012-02-05T10:37:30Z</time>
      </trkpt>
      <trkpt lat="45.80044" lon="4.96394">
        <ele>177</ele>
        <time>2012-02-05T10:37:35Z</time>
      </trkpt>
      <trkpt lat="45.80043" lon="4.9639">
        <ele>177</ele>
        <time>2012-02-05T10:37:36Z</time>
      </trkpt>
      <trkpt lat="45.80042" lon="4.96378">
        <ele>177</ele>
        <time>2012-02-05T10:37:39Z</time>
      </trkpt>
      <trkpt lat="45.8004" lon="4.96363">
        <ele>177</ele>
        <time>2012-02-05T10:37:43Z</time>
      </trkpt>
      <trkpt lat="45.8004" lon="4.96356">
        <ele>177</ele>
        <time>2012-02-05T10:37:45Z</time>
      </trkpt>
      <trkpt lat="45.80038" lon="4.96338">
        <ele>176</ele>
        <time>2012-02-05T10:37:50Z</time>
      </trkpt>
      <trkpt lat="45.80039" lon="4.96334">
        <ele>176</ele>
        <time>2012-02-05T10:37:51Z</time>
      </trkpt>
      <trkpt lat="45.80042" lon="4.96319">
        <ele>175</ele>
        <time>2012-02-05T10:37:55Z</time>
      </trkpt>
      <trkpt lat="45.80041" lon="4.96308">
        <ele>175</ele>
        <time>2012-02-05T10:37:58Z</time>
      </trkpt>
      <trkpt lat="45.80041" lon="4.96296">
        <ele>175</ele>
        <time>2012-02-05T10:38:01Z</time>
      </trkpt>
      <trkpt lat="45.80039" lon="4.96282">
        <ele>175</ele>
        <time>2012-02-05T10:38:05Z</time>
      </trkpt>
      <trkpt lat="45.80039" lon="4.96271">
        <ele>175</ele>
        <time>2012-02-05T10:38:08Z</time>
      </trkpt>
      <trkpt lat="45.80037" lon="4.96253">
        <ele>175</ele>
        <time>2012-02-05T10:38:13Z</time>
      </trkpt>
      <trkpt lat="45.80035" lon="4.96241">
        <ele>174</ele>
        <time>2012-02-05T10:38:16Z</time>
      </trkpt>
      <trkpt lat="45.80032" lon="4.96225">
        <ele>174</ele>
        <time>2012-02-05T10:38:21Z</time>
      </trkpt>
      <trkpt lat="45.80029" lon="4.96214">
        <ele>174</ele>
        <time>2012-02-05T10:38:24Z</time>
      </trkpt>
      <trkpt lat="45.80026" lon="4.96204">
        <ele>174</ele>
        <time>2012-02-05T10:38:28Z</time>
      </trkpt>
      <trkpt lat="45.80025" lon="4.96203">
        <ele>174</ele>
        <time>2012-02-05T10:38:35Z</time>
      </trkpt>
      <trkpt lat="45.80023" lon="4.96201">
        <ele>174</ele>
        <time>2012-02-05T10:38:39Z</time>
      </trkpt>
      <trkpt lat="45.8002" lon="4.96198">
        <ele>174</ele>
        <time>2012-02-05T10:38:41Z</time>
      </trkpt>
      <trkpt lat="45.80007" lon="4.96188">
        <ele>174</ele>
        <time>2012-02-05T10:38:46Z</time>
      </trkpt>
      <trkpt lat="45.79993" lon="4.96183">
        <ele>173</ele>
        <time>2012-02-05T10:38:51Z</time>
      </trkpt>
      <trkpt lat="45.79988" lon="4.96181">
        <ele>173</ele>
        <time>2012-02-05T10:38:53Z</time>
      </trkpt>
      <trkpt lat="45.79981" lon="4.96175">
        <ele>173</ele>
        <time>2012-02-05T10:38:56Z</time>
      </trkpt>
      <trkpt lat="45.79973" lon="4.96165">
        <ele>173</ele>
        <time>2012-02-05T10:39:00Z</time>
      </trkpt>
      <trkpt lat="45.79969" lon="4.9616">
        <ele>173</ele>
        <time>2012-02-05T10:39:02Z</time>
      </trkpt>
      <trkpt lat="45.79963" lon="4.96143">
        <ele>173</ele>
        <time>2012-02-05T10:39:07Z</time>
      </trkpt>
      <trkpt lat="45.79962" lon="4.9614">
        <ele>173</ele>
        <time>2012-02-05T10:39:08Z</time>
      </trkpt>
      <trkpt lat="45.79964" lon="4.96122">
        <ele>173</ele>
        <time>2012-02-05T10:39:13Z</time>
      </trkpt>
      <trkpt lat="45.79965" lon="4.96119">
        <ele>173</ele>
        <time>2012-02-05T10:39:14Z</time>
      </trkpt>
      <trkpt lat="45.79977" lon="4.96104">
        <ele>173</ele>
        <time>2012-02-05T10:39:20Z</time>
      </trkpt>
      <trkpt lat="45.79979" lon="4.96102">
        <ele>173</ele>
        <time>2012-02-05T10:39:21Z</time>
      </trkpt>
      <trkpt lat="45.79987" lon="4.96094">
        <ele>173</ele>
        <time>2012-02-05T10:39:24Z</time>
      </trkpt>
      <trkpt lat="45.79996" lon="4.96086">
        <ele>173</ele>
        <time>2012-02-05T10:39:28Z</time>
      </trkpt>
      <trkpt lat="45.80005" lon="4.96081">
        <ele>174</ele>
        <time>2012-02-05T10:39:32Z</time>
      </trkpt>
      <trkpt lat="45.80013" lon="4.96078">
        <ele>174</ele>
        <time>2012-02-05T10:39:35Z</time>
      </trkpt>
      <trkpt lat="45.80026" lon="4.96076">
        <ele>175</ele>
        <time>2012-02-05T10:39:40Z</time>
      </trkpt>
      <trkpt lat="45.80032" lon="4.96075">
        <ele>175</ele>
        <time>2012-02-05T10:39:42Z</time>
      </trkpt>
      <trkpt lat="45.80044" lon="4.96075">
        <ele>176</ele>
        <time>2012-02-05T10:39:47Z</time>
      </trkpt>
      <trkpt lat="45.80051" lon="4.9608">
        <ele>176</ele>
        <time>2012-02-05T10:39:50Z</time>
      </trkpt>
      <trkpt lat="45.80055" lon="4.96085">
        <ele>176</ele>
        <time>2012-02-05T10:39:52Z</time>
      </trkpt>
      <trkpt lat="45.80062" lon="4.96101">
        <ele>176</ele>
        <time>2012-02-05T10:39:57Z</time>
      </trkpt>
      <trkpt lat="45.80065" lon="4.96107">
        <ele>176</ele>
        <time>2012-02-05T10:39:59Z</time>
      </trkpt>
      <trkpt lat="45.80072" lon="4.96122">
        <ele>176</ele>
        <time>2012-02-05T10:40:04Z</time>
      </trkpt>
      <trkpt lat="45.80073" lon="4.96124">
        <ele>176</ele>
        <time>2012-02-05T10:40:05Z</time>
      </trkpt>
      <trkpt lat="45.80076" lon="4.96127">
        <ele>176</ele>
        <time>2012-02-05T10:40:09Z</time>
      </trkpt>
      <trkpt lat="45.80082" lon="4.96134">
        <ele>176</ele>
        <time>2012-02-05T10:40:17Z</time>
      </trkpt>
      <trkpt lat="45.80087" lon="4.96143">
        <ele>177</ele>
        <time>2012-02-05T10:40:20Z</time>
      </trkpt>
      <trkpt lat="45.80092" lon="4.96152">
        <ele>177</ele>
        <time>2012-02-05T10:40:23Z</time>
      </trkpt>
      <trkpt lat="45.80098" lon="4.96166">
        <ele>177</ele>
        <time>2012-02-05T10:40:27Z</time>
      </trkpt>
      <trkpt lat="45.80104" lon="4.96175">
        <ele>177</ele>
        <time>2012-02-05T10:40:30Z</time>
      </trkpt>
      <trkpt lat="45.80109" lon="4.96188">
        <ele>177</ele>
        <time>2012-02-05T10:40:34Z</time>
      </trkpt>
      <trkpt lat="45.80112" lon="4.96206">
        <ele>177</ele>
        <time>2012-02-05T10:40:39Z</time>
      </trkpt>
      <trkpt lat="45.80109" lon="4.96214">
        <ele>177</ele>
        <time>2012-02-05T10:40:43Z</time>
      </trkpt>
      <trkpt lat="45.80108" lon="4.96217">
        <ele>177</ele>
        <time>2012-02-05T10:40:48Z</time>
      </trkpt>
      <trkpt lat="45.8011" lon="4.96218">
        <ele>177</ele>
        <time>2012-02-05T10:40:49Z</time>
      </trkpt>
      <trkpt lat="45.80114" lon="4.96225">
        <ele>177</ele>
        <time>2012-02-05T10:40:53Z</time>
      </trkpt>
      <trkpt lat="45.80115" lon="4.96229">
        <ele>177</ele>
        <time>2012-02-05T10:40:54Z</time>
      </trkpt>
      <trkpt lat="45.80115" lon="4.96237">
        <ele>177</ele>
        <time>2012-02-05T10:40:57Z</time>
      </trkpt>
      <trkpt lat="45.80118" lon="4.96247">
        <ele>177</ele>
        <time>2012-02-05T10:41:03Z</time>
      </trkpt>
      <trkpt lat="45.80119" lon="4.9625">
        <ele>177</ele>
        <time>2012-02-05T10:41:05Z</time>
      </trkpt>
      <trkpt lat="45.80121" lon="4.96253">
        <ele>177</ele>
        <time>2012-02-05T10:41:07Z</time>
      </trkpt>
      <trkpt lat="45.80126" lon="4.96254">
        <ele>177</ele>
        <time>2012-02-05T10:41:10Z</time>
      </trkpt>
      <trkpt lat="45.80127" lon="4.96253">
        <ele>177</ele>
        <time>2012-02-05T10:41:11Z</time>
      </trkpt>
      <trkpt lat="45.80128" lon="4.96253">
        <ele>177</ele>
        <time>2012-02-05T10:41:16Z</time>
      </trkpt>
      <trkpt lat="45.80129" lon="4.96252">
        <ele>177</ele>
        <time>2012-02-05T10:41:24Z</time>
      </trkpt>
      <trkpt lat="45.80125" lon="4.96254">
        <ele>177</ele>
        <time>2012-02-05T10:41:35Z</time>
      </trkpt>
      <trkpt lat="45.80124" lon="4.96254">
        <ele>177</ele>
        <time>2012-02-05T10:41:36Z</time>
      </trkpt>
      <trkpt lat="45.80121" lon="4.96251">
        <ele>177</ele>
        <time>2012-02-05T10:41:40Z</time>
      </trkpt>
      <trkpt lat="45.8012" lon="4.9625">
        <ele>177</ele>
        <time>2012-02-05T10:41:41Z</time>
      </trkpt>
      <trkpt lat="45.80119" lon="4.96245">
        <ele>177</ele>
        <time>2012-02-05T10:41:44Z</time>
      </trkpt>
      <trkpt lat="45.80119" lon="4.96243">
        <ele>177</ele>
        <time>2012-02-05T10:41:45Z</time>
      </trkpt>
      <trkpt lat="45.80116" lon="4.96238">
        <ele>177</ele>
        <time>2012-02-05T10:41:49Z</time>
      </trkpt>
      <trkpt lat="45.80116" lon="4.96237">
        <ele>177</ele>
        <time>2012-02-05T10:41:50Z</time>
      </trkpt>
      <trkpt lat="45.80116" lon="4.96235">
        <ele>177</ele>
        <time>2012-02-05T10:41:51Z</time>
      </trkpt>
      <trkpt lat="45.80116" lon="4.9623">
        <ele>177</ele>
        <time>2012-02-05T10:41:54Z</time>
      </trkpt>
      <trkpt lat="45.80116" lon="4.96227">
        <ele>177</ele>
        <time>2012-02-05T10:41:55Z</time>
      </trkpt>
      <trkpt lat="45.80113" lon="4.96222">
        <ele>177</ele>
        <time>2012-02-05T10:41:57Z</time>
      </trkpt>
      <trkpt lat="45.8011" lon="4.96214">
        <ele>177</ele>
        <time>2012-02-05T10:42:00Z</time>
      </trkpt>
      <trkpt lat="45.8011" lon="4.96212">
        <ele>177</ele>
        <time>2012-02-05T10:42:01Z</time>
      </trkpt>
      <trkpt lat="45.80113" lon="4.962">
        <ele>177</ele>
        <time>2012-02-05T10:42:05Z</time>
      </trkpt>
      <trkpt lat="45.80113" lon="4.96196">
        <ele>177</ele>
        <time>2012-02-05T10:42:06Z</time>
      </trkpt>
      <trkpt lat="45.80109" lon="4.96184">
        <ele>177</ele>
        <time>2012-02-05T10:42:09Z</time>
      </trkpt>
      <trkpt lat="45.80103" lon="4.96174">
        <ele>177</ele>
        <time>2012-02-05T10:42:12Z</time>
      </trkpt>
      <trkpt lat="45.80101" lon="4.9617">
        <ele>177</ele>
        <time>2012-02-05T10:42:13Z</time>
      </trkpt>
      <trkpt lat="45.80099" lon="4.96166">
        <ele>177</ele>
        <time>2012-02-05T10:42:14Z</time>
      </trkpt>
      <trkpt lat="45.80091" lon="4.9615">
        <ele>177</ele>
        <time>2012-02-05T10:42:19Z</time>
      </trkpt>
      <trkpt lat="45.80089" lon="4.96147">
        <ele>177</ele>
        <time>2012-02-05T10:42:20Z</time>
      </trkpt>
      <trkpt lat="45.80079" lon="4.96128">
        <ele>176</ele>
        <time>2012-02-05T10:42:26Z</time>
      </trkpt>
      <trkpt lat="45.80066" lon="4.96107">
        <ele>176</ele>
        <time>2012-02-05T10:42:33Z</time>
      </trkpt>
      <trkpt lat="45.80055" lon="4.96088">
        <ele>176</ele>
        <time>2012-02-05T10:42:39Z</time>
      </trkpt>
      <trkpt lat="45.80053" lon="4.96086">
        <ele>176</ele>
        <time>2012-02-05T10:42:40Z</time>
      </trkpt>
      <trkpt lat="45.8004" lon="4.96077">
        <ele>176</ele>
        <time>2012-02-05T10:42:46Z</time>
      </trkpt>
      <trkpt lat="45.80035" lon="4.96077">
        <ele>175</ele>
        <time>2012-02-05T10:42:48Z</time>
      </trkpt>
      <trkpt lat="45.80025" lon="4.96078">
        <ele>175</ele>
        <time>2012-02-05T10:42:52Z</time>
      </trkpt>
      <trkpt lat="45.80017" lon="4.9608">
        <ele>174</ele>
        <time>2012-02-05T10:42:55Z</time>
      </trkpt>
      <trkpt lat="45.80009" lon="4.96082">
        <ele>174</ele>
        <time>2012-02-05T10:42:58Z</time>
      </trkpt>
      <trkpt lat="45.79998" lon="4.96087">
        <ele>173</ele>
        <time>2012-02-05T10:43:02Z</time>
      </trkpt>
      <trkpt lat="45.79994" lon="4.96091">
        <ele>173</ele>
        <time>2012-02-05T10:43:04Z</time>
      </trkpt>
      <trkpt lat="45.79982" lon="4.96102">
        <ele>173</ele>
        <time>2012-02-05T10:43:09Z</time>
      </trkpt>
      <trkpt lat="45.79978" lon="4.96106">
        <ele>173</ele>
        <time>2012-02-05T10:43:11Z</time>
      </trkpt>
      <trkpt lat="45.79965" lon="4.96109">
        <ele>172</ele>
        <time>2012-02-05T10:43:16Z</time>
      </trkpt>
      <trkpt lat="45.7995" lon="4.96103">
        <ele>172</ele>
        <time>2012-02-05T10:43:22Z</time>
      </trkpt>
      <trkpt lat="45.79948" lon="4.96102">
        <ele>172</ele>
        <time>2012-02-05T10:43:23Z</time>
      </trkpt>
      <trkpt lat="45.79936" lon="4.96096">
        <ele>172</ele>
        <time>2012-02-05T10:43:28Z</time>
      </trkpt>
      <trkpt lat="45.79931" lon="4.96092">
        <ele>172</ele>
        <time>2012-02-05T10:43:30Z</time>
      </trkpt>
      <trkpt lat="45.79924" lon="4.96086">
        <ele>171</ele>
        <time>2012-02-05T10:43:33Z</time>
      </trkpt>
      <trkpt lat="45.79913" lon="4.9608">
        <ele>172</ele>
        <time>2012-02-05T10:43:38Z</time>
      </trkpt>
      <trkpt lat="45.799" lon="4.96082">
        <ele>173</ele>
        <time>2012-02-05T10:43:43Z</time>
      </trkpt>
      <trkpt lat="45.79895" lon="4.96082">
        <ele>173</ele>
        <time>2012-02-05T10:43:45Z</time>
      </trkpt>
      <trkpt lat="45.79888" lon="4.96078">
        <ele>174</ele>
        <time>2012-02-05T10:43:48Z</time>
      </trkpt>
      <trkpt lat="45.79879" lon="4.96069">
        <ele>174</ele>
        <time>2012-02-05T10:43:53Z</time>
      </trkpt>
      <trkpt lat="45.79874" lon="4.96067">
        <ele>174</ele>
        <time>2012-02-05T10:43:55Z</time>
      </trkpt>
      <trkpt lat="45.79868" lon="4.96061">
        <ele>175</ele>
        <time>2012-02-05T10:43:58Z</time>
      </trkpt>
      <trkpt lat="45.79868" lon="4.96053">
        <ele>175</ele>
        <time>2012-02-05T10:44:00Z</time>
      </trkpt>
      <trkpt lat="45.79871" lon="4.96042">
        <ele>174</ele>
        <time>2012-02-05T10:44:04Z</time>
      </trkpt>
      <trkpt lat="45.79871" lon="4.96039">
        <ele>174</ele>
        <time>2012-02-05T10:44:05Z</time>
      </trkpt>
      <trkpt lat="45.79868" lon="4.96029">
        <ele>174</ele>
        <time>2012-02-05T10:44:08Z</time>
      </trkpt>
      <trkpt lat="45.79868" lon="4.96026">
        <ele>174</ele>
        <time>2012-02-05T10:44:09Z</time>
      </trkpt>
      <trkpt lat="45.79864" lon="4.96009">
        <ele>175</ele>
        <time>2012-02-05T10:44:14Z</time>
      </trkpt>
      <trkpt lat="45.79861" lon="4.95999">
        <ele>174</ele>
        <time>2012-02-05T10:44:17Z</time>
      </trkpt>
      <trkpt lat="45.7986" lon="4.95992">
        <ele>174</ele>
        <time>2012-02-05T10:44:19Z</time>
      </trkpt>
      <trkpt lat="45.79859" lon="4.95973">
        <ele>173</ele>
        <time>2012-02-05T10:44:24Z</time>
      </trkpt>
      <trkpt lat="45.79859" lon="4.95969">
        <ele>173</ele>
        <time>2012-02-05T10:44:25Z</time>
      </trkpt>
      <trkpt lat="45.79858" lon="4.95947">
        <ele>173</ele>
        <time>2012-02-05T10:44:31Z</time>
      </trkpt>
      <trkpt lat="45.79858" lon="4.95944">
        <ele>172</ele>
        <time>2012-02-05T10:44:32Z</time>
      </trkpt>
      <trkpt lat="45.79858" lon="4.95925">
        <ele>172</ele>
        <time>2012-02-05T10:44:37Z</time>
      </trkpt>
      <trkpt lat="45.79858" lon="4.95917">
        <ele>172</ele>
        <time>2012-02-05T10:44:39Z</time>
      </trkpt>
      <trkpt lat="45.79857" lon="4.95902">
        <ele>171</ele>
        <time>2012-02-05T10:44:43Z</time>
      </trkpt>
      <trkpt lat="45.79857" lon="4.9589">
        <ele>171</ele>
        <time>2012-02-05T10:44:46Z</time>
      </trkpt>
      <trkpt lat="45.79855" lon="4.95877">
        <ele>171</ele>
        <time>2012-02-05T10:44:49Z</time>
      </trkpt>
      <trkpt lat="45.79855" lon="4.95862">
        <ele>171</ele>
        <time>2012-02-05T10:44:53Z</time>
      </trkpt>
      <trkpt lat="45.79854" lon="4.95854">
        <ele>171</ele>
        <time>2012-02-05T10:44:55Z</time>
      </trkpt>
      <trkpt lat="45.79853" lon="4.95835">
        <ele>171</ele>
        <time>2012-02-05T10:45:00Z</time>
      </trkpt>
      <trkpt lat="45.79853" lon="4.95831">
        <ele>171</ele>
        <time>2012-02-05T10:45:01Z</time>
      </trkpt>
      <trkpt lat="45.79851" lon="4.95807">
        <ele>172</ele>
        <time>2012-02-05T10:45:07Z</time>
      </trkpt>
      <trkpt lat="45.7985" lon="4.95783">
        <ele>173</ele>
        <time>2012-02-05T10:45:13Z</time>
      </trkpt>
      <trkpt lat="45.7985" lon="4.9578">
        <ele>173</ele>
        <time>2012-02-05T10:45:14Z</time>
      </trkpt>
      <trkpt lat="45.7985" lon="4.95757">
        <ele>174</ele>
        <time>2012-02-05T10:45:20Z</time>
      </trkpt>
      <trkpt lat="45.7985" lon="4.95753">
        <ele>174</ele>
        <time>2012-02-05T10:45:21Z</time>
      </trkpt>
      <trkpt lat="45.79848" lon="4.95731">
        <ele>174</ele>
        <time>2012-02-05T10:45:27Z</time>
      </trkpt>
      <trkpt lat="45.79848" lon="4.95727">
        <ele>174</ele>
        <time>2012-02-05T10:45:28Z</time>
      </trkpt>
      <trkpt lat="45.79847" lon="4.95709">
        <ele>174</ele>
        <time>2012-02-05T10:45:33Z</time>
      </trkpt>
      <trkpt lat="45.79846" lon="4.95698">
        <ele>174</ele>
        <time>2012-02-05T10:45:36Z</time>
      </trkpt>
      <trkpt lat="45.79846" lon="4.95687">
        <ele>174</ele>
        <time>2012-02-05T10:45:39Z</time>
      </trkpt>
      <trkpt lat="45.79844" lon="4.95673">
        <ele>175</ele>
        <time>2012-02-05T10:45:43Z</time>
      </trkpt>
      <trkpt lat="45.79843" lon="4.95669">
        <ele>175</ele>
        <time>2012-02-05T10:45:44Z</time>
      </trkpt>
      <trkpt lat="45.79842" lon="4.95666">
        <ele>175</ele>
        <time>2012-02-05T10:45:45Z</time>
      </trkpt>
      <trkpt lat="45.79834" lon="4.95665">
        <ele>176</ele>
        <time>2012-02-05T10:45:48Z</time>
      </trkpt>
      <trkpt lat="45.79831" lon="4.95664">
        <ele>176</ele>
        <time>2012-02-05T10:45:49Z</time>
      </trkpt>
      <trkpt lat="45.79828" lon="4.95664">
        <ele>176</ele>
        <time>2012-02-05T10:45:50Z</time>
      </trkpt>
      <trkpt lat="45.79819" lon="4.95662">
        <ele>177</ele>
        <time>2012-02-05T10:45:53Z</time>
      </trkpt>
      <trkpt lat="45.79809" lon="4.95661">
        <ele>177</ele>
        <time>2012-02-05T10:45:57Z</time>
      </trkpt>
      <trkpt lat="45.79804" lon="4.95658">
        <ele>177</ele>
        <time>2012-02-05T10:46:00Z</time>
      </trkpt>
      <trkpt lat="45.79802" lon="4.95658">
        <ele>177</ele>
        <time>2012-02-05T10:46:05Z</time>
      </trkpt>
      <trkpt lat="45.798" lon="4.95653">
        <ele>177</ele>
        <time>2012-02-05T10:46:09Z</time>
      </trkpt>
      <trkpt lat="45.79802" lon="4.95642">
        <ele>177</ele>
        <time>2012-02-05T10:46:16Z</time>
      </trkpt>
      <trkpt lat="45.79803" lon="4.95638">
        <ele>177</ele>
        <time>2012-02-05T10:46:18Z</time>
      </trkpt>
      <trkpt lat="45.79807" lon="4.95624">
        <ele>177</ele>
        <time>2012-02-05T10:46:23Z</time>
      </trkpt>
      <trkpt lat="45.79808" lon="4.95617">
        <ele>177</ele>
        <time>2012-02-05T10:46:25Z</time>
      </trkpt>
      <trkpt lat="45.79811" lon="4.95602">
        <ele>177</ele>
        <time>2012-02-05T10:46:29Z</time>
      </trkpt>
      <trkpt lat="45.79814" lon="4.95589">
        <ele>177</ele>
        <time>2012-02-05T10:46:33Z</time>
      </trkpt>
      <trkpt lat="45.79814" lon="4.95582">
        <ele>176</ele>
        <time>2012-02-05T10:46:35Z</time>
      </trkpt>
      <trkpt lat="45.79815" lon="4.95563">
        <ele>176</ele>
        <time>2012-02-05T10:46:40Z</time>
      </trkpt>
      <trkpt lat="45.79818" lon="4.95541">
        <ele>175</ele>
        <time>2012-02-05T10:46:46Z</time>
      </trkpt>
      <trkpt lat="45.79818" lon="4.95537">
        <ele>175</ele>
        <time>2012-02-05T10:46:47Z</time>
      </trkpt>
      <trkpt lat="45.79821" lon="4.95515">
        <ele>175</ele>
        <time>2012-02-05T10:46:53Z</time>
      </trkpt>
      <trkpt lat="45.79822" lon="4.95511">
        <ele>175</ele>
        <time>2012-02-05T10:46:54Z</time>
      </trkpt>
      <trkpt lat="45.79825" lon="4.95494">
        <ele>174</ele>
        <time>2012-02-05T10:46:59Z</time>
      </trkpt>
      <trkpt lat="45.79826" lon="4.95483">
        <ele>174</ele>
        <time>2012-02-05T10:47:02Z</time>
      </trkpt>
      <trkpt lat="45.79827" lon="4.95473">
        <ele>174</ele>
        <time>2012-02-05T10:47:05Z</time>
      </trkpt>
      <trkpt lat="45.7983" lon="4.95456">
        <ele>173</ele>
        <time>2012-02-05T10:47:10Z</time>
      </trkpt>
      <trkpt lat="45.7983" lon="4.95452">
        <ele>173</ele>
        <time>2012-02-05T10:47:11Z</time>
      </trkpt>
      <trkpt lat="45.79835" lon="4.95429">
        <ele>172</ele>
        <time>2012-02-05T10:47:18Z</time>
      </trkpt>
      <trkpt lat="45.79838" lon="4.95405">
        <ele>172</ele>
        <time>2012-02-05T10:47:25Z</time>
      </trkpt>
      <trkpt lat="45.79838" lon="4.95401">
        <ele>172</ele>
        <time>2012-02-05T10:47:26Z</time>
      </trkpt>
      <trkpt lat="45.79838" lon="4.95383">
        <ele>172</ele>
        <time>2012-02-05T10:47:31Z</time>
      </trkpt>
      <trkpt lat="45.79838" lon="4.95372">
        <ele>172</ele>
        <time>2012-02-05T10:47:34Z</time>
      </trkpt>
      <trkpt lat="45.79838" lon="4.95364">
        <ele>172</ele>
        <time>2012-02-05T10:47:36Z</time>
      </trkpt>
      <trkpt lat="45.79838" lon="4.95345">
        <ele>172</ele>
        <time>2012-02-05T10:47:41Z</time>
      </trkpt>
      <trkpt lat="45.79838" lon="4.95342">
        <ele>172</ele>
        <time>2012-02-05T10:47:42Z</time>
      </trkpt>
      <trkpt lat="45.79838" lon="4.95318">
        <ele>172</ele>
        <time>2012-02-05T10:47:48Z</time>
      </trkpt>
      <trkpt lat="45.79839" lon="4.95296">
        <ele>172</ele>
        <time>2012-02-05T10:47:54Z</time>
      </trkpt>
      <trkpt lat="45.79839" lon="4.95292">
        <ele>172</ele>
        <time>2012-02-05T10:47:55Z</time>
      </trkpt>
      <trkpt lat="45.7984" lon="4.95272">
        <ele>172</ele>
        <time>2012-02-05T10:48:00Z</time>
      </trkpt>
      <trkpt lat="45.7984" lon="4.95265">
        <ele>172</ele>
        <time>2012-02-05T10:48:02Z</time>
      </trkpt>
      <trkpt lat="45.79841" lon="4.95241">
        <ele>173</ele>
        <time>2012-02-05T10:48:08Z</time>
      </trkpt>
      <trkpt lat="45.79841" lon="4.95237">
        <ele>173</ele>
        <time>2012-02-05T10:48:09Z</time>
      </trkpt>
      <trkpt lat="45.79839" lon="4.95211">
        <ele>173</ele>
        <time>2012-02-05T10:48:15Z</time>
      </trkpt>
      <trkpt lat="45.79836" lon="4.95184">
        <ele>174</ele>
        <time>2012-02-05T10:48:21Z</time>
      </trkpt>
      <trkpt lat="45.7983" lon="4.95158">
        <ele>174</ele>
        <time>2012-02-05T10:48:28Z</time>
      </trkpt>
      <trkpt lat="45.79824" lon="4.95137">
        <ele>173</ele>
        <time>2012-02-05T10:48:34Z</time>
      </trkpt>
      <trkpt lat="45.79823" lon="4.95133">
        <ele>173</ele>
        <time>2012-02-05T10:48:35Z</time>
      </trkpt>
      <trkpt lat="45.79818" lon="4.95113">
        <ele>172</ele>
        <time>2012-02-05T10:48:41Z</time>
      </trkpt>
      <trkpt lat="45.79821" lon="4.95106">
        <ele>172</ele>
        <time>2012-02-05T10:48:43Z</time>
      </trkpt>
      <trkpt lat="45.79824" lon="4.951">
        <ele>172</ele>
        <time>2012-02-05T10:48:45Z</time>
      </trkpt>
      <trkpt lat="45.79828" lon="4.95086">
        <ele>171</ele>
        <time>2012-02-05T10:48:49Z</time>
      </trkpt>
      <trkpt lat="45.79829" lon="4.95082">
        <ele>171</ele>
        <time>2012-02-05T10:48:50Z</time>
      </trkpt>
      <trkpt lat="45.7983" lon="4.95078">
        <ele>171</ele>
        <time>2012-02-05T10:48:51Z</time>
      </trkpt>
      <trkpt lat="45.79834" lon="4.95055">
        <ele>171</ele>
        <time>2012-02-05T10:48:57Z</time>
      </trkpt>
      <trkpt lat="45.79834" lon="4.95048">
        <ele>171</ele>
        <time>2012-02-05T10:48:59Z</time>
      </trkpt>
      <trkpt lat="45.79836" lon="4.95029">
        <ele>172</ele>
        <time>2012-02-05T10:49:04Z</time>
      </trkpt>
      <trkpt lat="45.79837" lon="4.9502">
        <ele>172</ele>
        <time>2012-02-05T10:49:06Z</time>
      </trkpt>
      <trkpt lat="45.79842" lon="4.95003">
        <ele>172</ele>
        <time>2012-02-05T10:49:11Z</time>
      </trkpt>
      <trkpt lat="45.79843" lon="4.94999">
        <ele>173</ele>
        <time>2012-02-05T10:49:12Z</time>
      </trkpt>
      <trkpt lat="45.79851" lon="4.9498">
        <ele>173</ele>
        <time>2012-02-05T10:49:18Z</time>
      </trkpt>
      <trkpt lat="45.79864" lon="4.94962">
        <ele>173</ele>
        <time>2012-02-05T10:49:25Z</time>
      </trkpt>
      <trkpt lat="45.79874" lon="4.94949">
        <ele>173</ele>
        <time>2012-02-05T10:49:30Z</time>
      </trkpt>
      <trkpt lat="45.79878" lon="4.94944">
        <ele>173</ele>
        <time>2012-02-05T10:49:32Z</time>
      </trkpt>
      <trkpt lat="45.79886" lon="4.94936">
        <ele>172</ele>
        <time>2012-02-05T10:49:36Z</time>
      </trkpt>
      <trkpt lat="45.79894" lon="4.94931">
        <ele>172</ele>
        <time>2012-02-05T10:49:40Z</time>
      </trkpt>
      <trkpt lat="45.79896" lon="4.94929">
        <ele>172</ele>
        <time>2012-02-05T10:49:41Z</time>
      </trkpt>
      <trkpt lat="45.79911" lon="4.94917">
        <ele>171</ele>
        <time>2012-02-05T10:49:48Z</time>
      </trkpt>
      <trkpt lat="45.7992" lon="4.94913">
        <ele>170</ele>
        <time>2012-02-05T10:49:52Z</time>
      </trkpt>
      <trkpt lat="45.79922" lon="4.9491">
        <ele>170</ele>
        <time>2012-02-05T10:49:53Z</time>
      </trkpt>
      <trkpt lat="45.79926" lon="4.94902">
        <ele>171</ele>
        <time>2012-02-05T10:49:56Z</time>
      </trkpt>
      <trkpt lat="45.7993" lon="4.94893">
        <ele>171</ele>
        <time>2012-02-05T10:49:59Z</time>
      </trkpt>
      <trkpt lat="45.79936" lon="4.9488">
        <ele>171</ele>
        <time>2012-02-05T10:50:04Z</time>
      </trkpt>
      <trkpt lat="45.79938" lon="4.94875">
        <ele>172</ele>
        <time>2012-02-05T10:50:06Z</time>
      </trkpt>
      <trkpt lat="45.79942" lon="4.94858">
        <ele>172</ele>
        <time>2012-02-05T10:50:11Z</time>
      </trkpt>
      <trkpt lat="45.79944" lon="4.94855">
        <ele>172</ele>
        <time>2012-02-05T10:50:12Z</time>
      </trkpt>
      <trkpt lat="45.79948" lon="4.94837">
        <ele>172</ele>
        <time>2012-02-05T10:50:17Z</time>
      </trkpt>
      <trkpt lat="45.79949" lon="4.94827">
        <ele>173</ele>
        <time>2012-02-05T10:50:20Z</time>
      </trkpt>
      <trkpt lat="45.79952" lon="4.94816">
        <ele>173</ele>
        <time>2012-02-05T10:50:23Z</time>
      </trkpt>
      <trkpt lat="45.79953" lon="4.948">
        <ele>173</ele>
        <time>2012-02-05T10:50:28Z</time>
      </trkpt>
      <trkpt lat="45.79954" lon="4.94793">
        <ele>173</ele>
        <time>2012-02-05T10:50:30Z</time>
      </trkpt>
      <trkpt lat="45.79956" lon="4.94772">
        <ele>173</ele>
        <time>2012-02-05T10:50:36Z</time>
      </trkpt>
      <trkpt lat="45.79958" lon="4.9475">
        <ele>174</ele>
        <time>2012-02-05T10:50:42Z</time>
      </trkpt>
      <trkpt lat="45.79958" lon="4.94742">
        <ele>174</ele>
        <time>2012-02-05T10:50:44Z</time>
      </trkpt>
      <trkpt lat="45.79961" lon="4.94728">
        <ele>174</ele>
        <time>2012-02-05T10:50:48Z</time>
      </trkpt>
      <trkpt lat="45.79963" lon="4.94717">
        <ele>174</ele>
        <time>2012-02-05T10:50:51Z</time>
      </trkpt>
      <trkpt lat="45.79965" lon="4.9471">
        <ele>173</ele>
        <time>2012-02-05T10:50:53Z</time>
      </trkpt>
      <trkpt lat="45.7997" lon="4.94693">
        <ele>173</ele>
        <time>2012-02-05T10:50:58Z</time>
      </trkpt>
      <trkpt lat="45.79975" lon="4.94679">
        <ele>173</ele>
        <time>2012-02-05T10:51:02Z</time>
      </trkpt>
      <trkpt lat="45.79978" lon="4.94669">
        <ele>172</ele>
        <time>2012-02-05T10:51:05Z</time>
      </trkpt>
      <trkpt lat="45.79981" lon="4.94659">
        <ele>172</ele>
        <time>2012-02-05T10:51:08Z</time>
      </trkpt>
      <trkpt lat="45.79984" lon="4.94642">
        <ele>173</ele>
        <time>2012-02-05T10:51:13Z</time>
      </trkpt>
      <trkpt lat="45.79984" lon="4.94624">
        <ele>173</ele>
        <time>2012-02-05T10:51:18Z</time>
      </trkpt>
      <trkpt lat="45.79984" lon="4.94612">
        <ele>173</ele>
        <time>2012-02-05T10:51:21Z</time>
      </trkpt>
      <trkpt lat="45.79984" lon="4.94601">
        <ele>172</ele>
        <time>2012-02-05T10:51:24Z</time>
      </trkpt>
      <trkpt lat="45.79984" lon="4.94585">
        <ele>172</ele>
        <time>2012-02-05T10:51:28Z</time>
      </trkpt>
      <trkpt lat="45.79983" lon="4.94576">
        <ele>173</ele>
        <time>2012-02-05T10:51:30Z</time>
      </trkpt>
      <trkpt lat="45.79984" lon="4.94557">
        <ele>174</ele>
        <time>2012-02-05T10:51:35Z</time>
      </trkpt>
      <trkpt lat="45.79984" lon="4.94552">
        <ele>174</ele>
        <time>2012-02-05T10:51:36Z</time>
      </trkpt>
      <trkpt lat="45.7999" lon="4.94539">
        <ele>175</ele>
        <time>2012-02-05T10:51:40Z</time>
      </trkpt>
      <trkpt lat="45.79993" lon="4.94533">
        <ele>175</ele>
        <time>2012-02-05T10:51:42Z</time>
      </trkpt>
      <trkpt lat="45.79997" lon="4.94528">
        <ele>175</ele>
        <time>2012-02-05T10:51:44Z</time>
      </trkpt>
      <trkpt lat="45.79999" lon="4.94527">
        <ele>175</ele>
        <time>2012-02-05T10:51:45Z</time>
      </trkpt>
      <trkpt lat="45.80011" lon="4.94526">
        <ele>175</ele>
        <time>2012-02-05T10:51:50Z</time>
      </trkpt>
      <trkpt lat="45.80027" lon="4.94532">
        <ele>174</ele>
        <time>2012-02-05T10:51:56Z</time>
      </trkpt>
      <trkpt lat="45.80029" lon="4.94533">
        <ele>174</ele>
        <time>2012-02-05T10:51:57Z</time>
      </trkpt>
      <trkpt lat="45.80041" lon="4.94537">
        <ele>174</ele>
        <time>2012-02-05T10:52:02Z</time>
      </trkpt>
      <trkpt lat="45.80048" lon="4.94538">
        <ele>174</ele>
        <time>2012-02-05T10:52:05Z</time>
      </trkpt>
      <trkpt lat="45.80057" lon="4.94543">
        <ele>174</ele>
        <time>2012-02-05T10:52:09Z</time>
      </trkpt>
      <trkpt lat="45.80067" lon="4.94546">
        <ele>174</ele>
        <time>2012-02-05T10:52:13Z</time>
      </trkpt>
      <trkpt lat="45.80072" lon="4.94548">
        <ele>173</ele>
        <time>2012-02-05T10:52:15Z</time>
      </trkpt>
      <trkpt lat="45.80086" lon="4.9455">
        <ele>172</ele>
        <time>2012-02-05T10:52:21Z</time>
      </trkpt>
      <trkpt lat="45.801" lon="4.9455">
        <ele>172</ele>
        <time>2012-02-05T10:52:26Z</time>
      </trkpt>
      <trkpt lat="45.80106" lon="4.9455">
        <ele>172</ele>
        <time>2012-02-05T10:52:28Z</time>
      </trkpt>
      <trkpt lat="45.80111" lon="4.94551">
        <ele>172</ele>
        <time>2012-02-05T10:52:30Z</time>
      </trkpt>
      <trkpt lat="45.80122" lon="4.94553">
        <ele>172</ele>
        <time>2012-02-05T10:52:35Z</time>
      </trkpt>
      <trkpt lat="45.80125" lon="4.94554">
        <ele>172</ele>
        <time>2012-02-05T10:52:36Z</time>
      </trkpt>
      <trkpt lat="45.80135" lon="4.94553">
        <ele>172</ele>
        <time>2012-02-05T10:52:40Z</time>
      </trkpt>
      <trkpt lat="45.80138" lon="4.94551">
        <ele>172</ele>
        <time>2012-02-05T10:52:45Z</time>
      </trkpt>
      <trkpt lat="45.80141" lon="4.9455">
        <ele>172</ele>
        <time>2012-02-05T10:52:52Z</time>
      </trkpt>
      <trkpt lat="45.80141" lon="4.94548">
        <ele>172</ele>
        <time>2012-02-05T10:52:53Z</time>
      </trkpt>
      <trkpt lat="45.80142" lon="4.94547">
        <ele>172</ele>
        <time>2012-02-05T10:52:54Z</time>
      </trkpt>
      <trkpt lat="45.80144" lon="4.94539">
        <ele>172</ele>
        <time>2012-02-05T10:52:58Z</time>
      </trkpt>
      <trkpt lat="45.80147" lon="4.94525">
        <ele>172</ele>
        <time>2012-02-05T10:53:04Z</time>
      </trkpt>
      <trkpt lat="45.80147" lon="4.94521">
        <ele>172</ele>
        <time>2012-02-05T10:53:05Z</time>
      </trkpt>
      <trkpt lat="45.8015" lon="4.94501">
        <ele>171</ele>
        <time>2012-02-05T10:53:10Z</time>
      </trkpt>
      <trkpt lat="45.80148" lon="4.94493">
        <ele>172</ele>
        <time>2012-02-05T10:53:12Z</time>
      </trkpt>
      <trkpt lat="45.80146" lon="4.94487">
        <ele>173</ele>
        <time>2012-02-05T10:53:14Z</time>
      </trkpt>
      <trkpt lat="45.80144" lon="4.94487">
        <ele>173</ele>
        <time>2012-02-05T10:53:15Z</time>
      </trkpt>
      <trkpt lat="45.80139" lon="4.94493">
        <ele>173</ele>
        <time>2012-02-05T10:53:18Z</time>
      </trkpt>
      <trkpt lat="45.80138" lon="4.94496">
        <ele>173</ele>
        <time>2012-02-05T10:53:19Z</time>
      </trkpt>
      <trkpt lat="45.80137" lon="4.94499">
        <ele>173</ele>
        <time>2012-02-05T10:53:23Z</time>
      </trkpt>
      <trkpt lat="45.80137" lon="4.94497">
        <ele>173</ele>
        <time>2012-02-05T10:53:25Z</time>
      </trkpt>
      <trkpt lat="45.80138" lon="4.94497">
        <ele>173</ele>
        <time>2012-02-05T10:53:27Z</time>
      </trkpt>
      <trkpt lat="45.80141" lon="4.94489">
        <ele>173</ele>
        <time>2012-02-05T10:53:32Z</time>
      </trkpt>
      <trkpt lat="45.80145" lon="4.94475">
        <ele>173</ele>
        <time>2012-02-05T10:53:36Z</time>
      </trkpt>
      <trkpt lat="45.80145" lon="4.94472">
        <ele>173</ele>
        <time>2012-02-05T10:53:37Z</time>
      </trkpt>
      <trkpt lat="45.80143" lon="4.94448">
        <ele>173</ele>
        <time>2012-02-05T10:53:44Z</time>
      </trkpt>
      <trkpt lat="45.80141" lon="4.94425">
        <ele>173</ele>
        <time>2012-02-05T10:53:50Z</time>
      </trkpt>
      <trkpt lat="45.8014" lon="4.94421">
        <ele>173</ele>
        <time>2012-02-05T10:53:51Z</time>
      </trkpt>
      <trkpt lat="45.80137" lon="4.94403">
        <ele>173</ele>
        <time>2012-02-05T10:53:56Z</time>
      </trkpt>
      <trkpt lat="45.80135" lon="4.94393">
        <ele>173</ele>
        <time>2012-02-05T10:53:59Z</time>
      </trkpt>
      <trkpt lat="45.80131" lon="4.94383">
        <ele>174</ele>
        <time>2012-02-05T10:54:02Z</time>
      </trkpt>
      <trkpt lat="45.80127" lon="4.9437">
        <ele>174</ele>
        <time>2012-02-05T10:54:06Z</time>
      </trkpt>
      <trkpt lat="45.80125" lon="4.94364">
        <ele>174</ele>
        <time>2012-02-05T10:54:08Z</time>
      </trkpt>
      <trkpt lat="45.80116" lon="4.94346">
        <ele>174</ele>
        <time>2012-02-05T10:54:14Z</time>
      </trkpt>
      <trkpt lat="45.80107" lon="4.94333">
        <ele>174</ele>
        <time>2012-02-05T10:54:19Z</time>
      </trkpt>
      <trkpt lat="45.80102" lon="4.9433">
        <ele>174</ele>
        <time>2012-02-05T10:54:21Z</time>
      </trkpt>
      <trkpt lat="45.80092" lon="4.94323">
        <ele>174</ele>
        <time>2012-02-05T10:54:25Z</time>
      </trkpt>
      <trkpt lat="45.80085" lon="4.94318">
        <ele>174</ele>
        <time>2012-02-05T10:54:28Z</time>
      </trkpt>
      <trkpt lat="45.80082" lon="4.94316">
        <ele>175</ele>
        <time>2012-02-05T10:54:29Z</time>
      </trkpt>
      <trkpt lat="45.80069" lon="4.9431">
        <ele>175</ele>
        <time>2012-02-05T10:54:34Z</time>
      </trkpt>
      <trkpt lat="45.80067" lon="4.94309">
        <ele>175</ele>
        <time>2012-02-05T10:54:35Z</time>
      </trkpt>
      <trkpt lat="45.80057" lon="4.94304">
        <ele>174</ele>
        <time>2012-02-05T10:54:39Z</time>
      </trkpt>
      <trkpt lat="45.8005" lon="4.94298">
        <ele>174</ele>
        <time>2012-02-05T10:54:42Z</time>
      </trkpt>
      <trkpt lat="45.80042" lon="4.94292">
        <ele>174</ele>
        <time>2012-02-05T10:54:45Z</time>
      </trkpt>
      <trkpt lat="45.80031" lon="4.94287">
        <ele>174</ele>
        <time>2012-02-05T10:54:49Z</time>
      </trkpt>
      <trkpt lat="45.80028" lon="4.94286">
        <ele>174</ele>
        <time>2012-02-05T10:54:50Z</time>
      </trkpt>
      <trkpt lat="45.80012" lon="4.94279">
        <ele>174</ele>
        <time>2012-02-05T10:54:56Z</time>
      </trkpt>
      <trkpt lat="45.80003" lon="4.94277">
        <ele>174</ele>
        <time>2012-02-05T10:55:01Z</time>
      </trkpt>
      <trkpt lat="45.80001" lon="4.94276">
        <ele>174</ele>
        <time>2012-02-05T10:55:02Z</time>
      </trkpt>
      <trkpt lat="45.79997" lon="4.94271">
        <ele>175</ele>
        <time>2012-02-05T10:55:06Z</time>
      </trkpt>
      <trkpt lat="45.79994" lon="4.94267">
        <ele>175</ele>
        <time>2012-02-05T10:55:08Z</time>
      </trkpt>
      <trkpt lat="45.79992" lon="4.94261">
        <ele>175</ele>
        <time>2012-02-05T10:55:10Z</time>
      </trkpt>
      <trkpt lat="45.79991" lon="4.94258">
        <ele>175</ele>
        <time>2012-02-05T10:55:11Z</time>
      </trkpt>
      <trkpt lat="45.79986" lon="4.94241">
        <ele>175</ele>
        <time>2012-02-05T10:55:16Z</time>
      </trkpt>
      <trkpt lat="45.79983" lon="4.94235">
        <ele>175</ele>
        <time>2012-02-05T10:55:18Z</time>
      </trkpt>
      <trkpt lat="45.79978" lon="4.94215">
        <ele>175</ele>
        <time>2012-02-05T10:55:24Z</time>
      </trkpt>
      <trkpt lat="45.79974" lon="4.94193">
        <ele>175</ele>
        <time>2012-02-05T10:55:31Z</time>
      </trkpt>
      <trkpt lat="45.79975" lon="4.94189">
        <ele>175</ele>
        <time>2012-02-05T10:55:32Z</time>
      </trkpt>
      <trkpt lat="45.79977" lon="4.94174">
        <ele>175</ele>
        <time>2012-02-05T10:55:36Z</time>
      </trkpt>
      <trkpt lat="45.79979" lon="4.94161">
        <ele>176</ele>
        <time>2012-02-05T10:55:40Z</time>
      </trkpt>
      <trkpt lat="45.7998" lon="4.94154">
        <ele>176</ele>
        <time>2012-02-05T10:55:42Z</time>
      </trkpt>
      <trkpt lat="45.79981" lon="4.94134">
        <ele>176</ele>
        <time>2012-02-05T10:55:48Z</time>
      </trkpt>
      <trkpt lat="45.79982" lon="4.9413">
        <ele>176</ele>
        <time>2012-02-05T10:55:49Z</time>
      </trkpt>
      <trkpt lat="45.79986" lon="4.94108">
        <ele>176</ele>
        <time>2012-02-05T10:55:55Z</time>
      </trkpt>
      <trkpt lat="45.79993" lon="4.94089">
        <ele>175</ele>
        <time>2012-02-05T10:56:00Z</time>
      </trkpt>
      <trkpt lat="45.79995" lon="4.94081">
        <ele>175</ele>
        <time>2012-02-05T10:56:02Z</time>
      </trkpt>
      <trkpt lat="45.79999" lon="4.94065">
        <ele>176</ele>
        <time>2012-02-05T10:56:06Z</time>
      </trkpt>
    </trkseg>
  </trk>
</gpx>